[[{"header":{"parameterUnit":"m.s-1","parameterCategory":1,"la1":30.6,"la2":29.2853,"lo1":-89.7004,"lo2":-87.6739,"dx":0.0162,"dy":0.0183,"nx":112,"ny":82,"refTime":"2022-12-12T18:00:00:Z","depth":0,"parameterNumber":2,"parameterNumberName":"U-component_of_WINDS"},"data":[0.0,0.0,0.0,0.0,0.0,0.0,0.0,0.0,0.0,0.0,0.0,0.0,0.0,0.0,0.0,0.0,0.0,0.0,0.0,0.0,0.0,0.0,0.0,0.0,0.0,0.0,0.0,0.0,0.0,0.0,0.0,0.0,0.0,0.0,0.0,0.0,0.0,0.0,0.0,0.0,0.0,0.0,0.0,0.0,0.0,0.0,0.0,0.0,0.0,0.0,0.0,0.0,0.0,0.0,0.0,0.0,0.0,0.0,0.0,0.0,0.0,0.0,0.0,0.0,0.0,0.0,0.0,0.0,0.0,0.0,0.0,0.0,0.0,0.0,0.0,0.0,0.0,0.0,0.0,0.0,0.0,0.0,0.0,0.0,0.0,0.0,0.0,0.0,0.0,0.0,2.791,2.9355,3.123,3.2363,3.2363,3.2363,3.1055,2.7969,0.0,0.0,0.0,0.0,0.0,0.0,0.0,0.0,0.0,0.0,0.0,0.0,0.0,0.0,0.0,0.0,0.0,0.0,0.0,0.0,0.0,0.0,0.0,0.0,0.0,0.0,0.0,0.0,0.0,0.0,0.0,0.0,0.0,0.0,0.0,0.0,0.0,0.0,0.0,0.0,0.0,0.0,0.0,0.0,0.0,0.0,0.0,0.0,0.0,0.0,0.0,0.0,0.0,0.0,0.0,0.0,0.0,0.0,0.0,0.0,0.0,0.0,0.0,0.0,0.0,0.0,0.0,0.0,0.0,0.0,0.0,0.0,0.0,0.0,0.0,0.0,0.0,0.0,0.0,0.0,0.0,0.0,0.0,0.0,0.0,0.0,0.0,0.0,0.0,0.0,0.0,0.0,0.0,0.0,0.0,0.0,0.0,0.0,0.0,0.0,0.0,0.0,0.0,0.0,2.7617,3.1758,3.2812,3.3242,3.3242,3.3242,3.1797,2.8418,0.0,0.0,0.0,0.0,0.0,0.0,0.0,0.0,0.0,0.0,0.0,0.0,0.0,0.0,0.0,0.0,0.0,0.0,0.0,0.0,0.0,0.0,0.0,0.0,0.0,0.0,0.0,0.0,0.0,0.0,0.0,0.0,0.0,0.0,0.0,0.0,0.0,0.0,0.0,0.0,0.0,0.0,0.0,0.0,0.0,0.0,0.0,0.0,0.0,0.0,0.0,0.0,0.0,0.0,0.0,0.0,0.0,0.0,0.0,0.0,0.0,0.0,0.0,0.0,0.0,0.0,0.0,0.0,0.0,0.0,0.0,0.0,0.0,0.0,0.0,0.0,0.0,0.0,0.0,0.0,0.0,0.0,0.0,0.0,0.0,0.0,0.0,0.0,0.0,0.0,0.0,0.0,0.0,0.0,0.0,0.0,0.0,0.0,0.0,0.0,0.0,0.0,0.0,2.7519,2.9434,3.2773,3.3301,3.3418,3.3418,3.3418,3.1953,2.8516,2.8105,0.0,0.0,0.0,0.0,0.0,0.0,0.0,0.0,0.0,0.0,0.0,0.0,0.0,0.0,0.0,0.0,0.0,0.0,0.0,0.0,0.0,0.0,0.0,0.0,0.0,0.0,0.0,0.0,0.0,0.0,0.0,0.0,0.0,0.0,0.0,0.0,0.0,0.0,0.0,0.0,0.0,0.0,0.0,0.0,0.0,0.0,0.0,0.0,0.0,0.0,0.0,0.0,0.0,0.0,0.0,0.0,0.0,0.0,0.0,0.0,0.0,0.0,0.0,0.0,0.0,0.0,0.0,0.0,0.0,0.0,0.0,0.0,0.0,0.0,0.0,0.0,0.0,0.0,0.0,0.0,0.0,0.0,0.0,0.0,0.0,0.0,0.0,0.0,0.0,0.0,0.0,0.0,0.0,0.0,0.0,0.0,0.0,0.0,0.0,0.0,0.0,0.0,3.0195,3.1582,3.3242,3.3418,3.3418,3.3418,3.3418,3.1992,2.8652,2.834,0.0,0.0,0.0,0.0,0.0,0.0,0.0,0.0,0.0,0.0,0.0,0.0,0.0,0.0,0.0,0.0,0.0,0.0,0.0,0.0,0.0,0.0,0.0,0.0,0.0,0.0,0.0,0.0,0.0,0.0,0.0,0.0,0.0,0.0,0.0,0.0,0.0,0.0,0.0,0.0,0.0,0.0,0.0,0.0,0.0,0.0,0.0,0.0,0.0,0.0,0.0,0.0,0.0,0.0,0.0,0.0,0.0,0.0,0.0,0.0,0.0,0.0,0.0,0.0,0.0,0.0,0.0,0.0,0.0,0.0,0.0,0.0,0.0,0.0,0.0,0.0,0.0,0.0,0.0,0.0,0.0,0.0,0.0,0.0,0.0,0.0,0.0,0.0,0.0,0.0,0.0,0.0,0.0,0.0,0.0,0.0,0.0,0.0,0.0,0.0,0.0,0.0,3.0957,3.3262,3.3398,3.3418,3.3418,3.3418,3.3418,3.2129,2.9062,2.8516,0.0,0.0,0.0,0.0,0.0,0.0,0.0,0.0,0.0,0.0,0.0,0.0,0.0,0.0,0.0,0.0,0.0,0.0,0.0,0.0,0.0,0.0,0.0,0.0,0.0,0.0,0.0,0.0,0.0,0.0,0.0,0.0,0.0,0.0,0.0,0.0,0.0,0.0,0.0,0.0,0.0,0.0,0.0,0.0,0.0,0.0,0.0,0.0,0.0,0.0,0.0,0.0,0.0,0.0,0.0,0.0,0.0,0.0,0.0,0.0,0.0,0.0,0.0,0.0,0.0,0.0,0.0,0.0,0.0,0.0,0.0,0.0,0.0,0.0,0.0,0.0,0.0,0.0,0.0,0.0,0.0,0.0,0.0,0.0,0.0,0.0,0.0,0.0,0.0,0.0,0.0,0.0,0.0,0.0,0.0,0.0,0.0,0.0,0.0,0.0,0.0,0.0,3.0488,3.2637,3.3711,3.4062,3.4219,3.4219,3.4219,3.2812,2.9531,0.0,0.0,0.0,0.0,0.0,0.0,0.0,0.0,0.0,0.0,0.0,0.0,0.0,0.0,0.0,0.0,0.0,0.0,0.0,0.0,0.0,0.0,0.0,0.0,0.0,0.0,0.0,0.0,0.0,0.0,0.0,0.0,0.0,0.0,0.0,0.0,0.0,0.0,0.0,0.0,0.0,0.0,0.0,0.0,0.0,0.0,0.0,0.0,0.0,0.0,0.0,0.0,0.0,0.0,0.0,0.0,0.0,0.0,0.0,0.0,0.0,0.0,0.0,0.0,0.0,0.0,0.0,0.0,0.0,0.0,0.0,0.0,0.0,0.0,0.0,0.0,0.0,0.0,0.0,0.0,0.0,0.0,0.0,0.0,0.0,0.0,0.0,0.0,0.0,0.0,0.0,0.0,0.0,0.0,0.0,0.0,0.0,0.0,0.0,0.0,0.0,0.0,2.8223,3.0859,3.2969,3.4141,3.4531,3.4707,3.4707,3.4707,3.3223,2.9785,0.0,0.0,0.0,0.0,0.0,0.0,0.0,0.0,0.0,0.0,0.0,0.0,0.0,0.0,0.0,0.0,0.0,0.0,0.0,0.0,0.0,0.0,0.0,0.0,0.0,0.0,0.0,0.0,0.0,0.0,0.0,0.0,0.0,0.0,0.0,0.0,0.0,0.0,0.0,0.0,0.0,0.0,0.0,0.0,0.0,0.0,0.0,0.0,0.0,0.0,0.0,0.0,0.0,0.0,0.0,0.0,0.0,0.0,0.0,0.0,0.0,0.0,0.0,0.0,0.0,0.0,0.0,0.0,0.0,0.0,0.0,0.0,0.0,0.0,0.0,0.0,0.0,0.0,0.0,0.0,0.0,0.0,0.0,0.0,0.0,0.0,0.0,0.0,0.0,0.0,0.0,0.0,0.0,0.0,0.0,0.0,0.0,0.0,0.0,0.0,0.0,0.0,2.8809,3.2305,3.4707,3.4707,3.4726,3.4726,3.4726,3.4726,3.3242,0.0,0.0,0.0,0.0,0.0,0.0,0.0,0.0,0.0,0.0,0.0,0.0,0.0,0.0,0.0,0.0,0.0,0.0,0.0,0.0,0.0,0.0,0.0,0.0,0.0,0.0,0.0,0.0,0.0,0.0,0.0,0.0,0.0,0.0,0.0,0.0,0.0,0.0,0.0,0.0,0.0,0.0,0.0,0.0,0.0,0.0,0.0,0.0,0.0,0.0,0.0,0.0,0.0,0.0,0.0,0.0,0.0,0.0,0.0,0.0,0.0,0.0,0.0,0.0,0.0,0.0,0.0,0.0,0.0,0.0,0.0,0.0,0.0,0.0,0.0,0.0,0.0,0.0,0.0,0.0,0.0,0.0,0.0,0.0,0.0,0.0,0.0,0.0,0.0,0.0,0.0,0.0,0.0,0.0,0.0,0.0,0.0,0.0,0.0,0.0,0.0,0.0,0.0,2.9238,3.2773,3.5195,3.5195,3.5723,3.5976,3.5664,3.5918,3.4355,3.0273,0.0,0.0,0.0,0.0,0.0,0.0,0.0,0.0,0.0,0.0,0.0,0.0,0.0,0.0,0.0,0.0,0.0,0.0,0.0,0.0,0.0,0.0,0.0,0.0,0.0,0.0,0.0,0.0,0.0,0.0,0.0,0.0,0.0,0.0,0.0,0.0,0.0,0.0,0.0,0.0,0.0,0.0,0.0,0.0,0.0,0.0,0.0,0.0,0.0,0.0,0.0,0.0,0.0,0.0,0.0,0.0,0.0,0.0,0.0,0.0,0.0,0.0,0.0,0.0,0.0,0.0,0.0,0.0,0.0,0.0,0.0,0.0,0.0,0.0,0.0,0.0,0.0,0.0,0.0,0.0,0.0,0.0,0.0,0.0,0.0,0.0,0.0,0.0,0.0,0.0,0.0,0.0,0.0,0.0,0.0,0.0,0.0,0.0,0.0,0.0,0.0,0.0,2.9922,3.3496,3.5976,3.6133,3.6621,3.6816,3.6562,3.6777,3.543,3.1953,0.0,0.0,0.0,0.0,0.0,0.0,0.0,0.0,0.0,0.0,0.0,0.0,0.0,0.0,0.0,0.0,0.0,0.0,0.0,0.0,0.0,0.0,0.0,0.0,0.0,0.0,0.0,0.0,0.0,0.0,0.0,0.0,0.0,0.0,0.0,0.0,0.0,0.0,0.0,0.0,0.0,0.0,0.0,0.0,0.0,0.0,0.0,0.0,0.0,0.0,0.0,0.0,0.0,0.0,0.0,0.0,0.0,0.0,0.0,0.0,0.0,0.0,0.0,0.0,0.0,0.0,0.0,0.0,0.0,0.0,0.0,0.0,0.0,0.0,0.0,0.0,0.0,0.0,0.0,0.0,0.0,0.0,0.0,0.0,0.0,0.0,0.0,0.0,0.0,0.0,0.0,0.0,0.0,0.0,0.0,0.0,0.0,0.0,0.0,0.0,0.0,0.0,3.0781,3.4336,3.6875,3.7266,3.7324,3.7344,3.7305,3.7324,3.6406,3.4219,0.0,0.0,0.0,0.0,0.0,0.0,0.0,0.0,0.0,0.0,0.0,0.0,0.0,0.0,0.0,0.0,0.0,0.0,0.0,0.0,0.0,0.0,0.0,0.0,0.0,0.0,0.0,0.0,0.0,0.0,0.0,0.0,0.0,0.0,0.0,0.0,0.0,0.0,0.0,0.0,0.0,0.0,0.0,0.0,0.0,0.0,0.0,0.0,0.0,0.0,0.0,0.0,0.0,0.0,0.0,0.0,0.0,0.0,0.0,0.0,2.9352,2.6214,0.0,0.0,0.0,0.0,0.0,0.0,0.0,0.0,0.0,0.0,0.0,0.0,0.0,0.0,0.0,0.0,0.0,0.0,0.0,0.0,0.0,0.0,0.0,0.0,0.0,0.0,0.0,0.0,0.0,0.0,0.0,0.0,0.0,0.0,0.0,0.0,0.0,0.0,0.0,0.0,3.1211,3.4766,3.7207,3.7285,3.7598,3.7656,3.7324,3.7598,3.6719,3.4238,3.3555,0.0,0.0,0.0,0.0,0.0,0.0,0.0,0.0,0.0,0.0,0.0,0.0,0.0,0.0,0.0,0.0,0.0,0.0,0.0,0.0,0.0,0.0,0.0,0.0,0.0,0.0,0.0,0.0,0.0,0.0,0.0,0.0,0.0,0.0,0.0,0.0,0.0,0.0,0.0,0.0,0.0,0.0,0.0,0.0,0.0,0.0,0.0,0.0,0.0,0.0,0.0,0.0,0.0,0.0,0.0,0.0,0.0,0.0,0.0,3.2641,3.0809,0.0,0.0,0.0,0.0,0.0,0.0,0.0,0.0,0.0,0.0,0.0,0.0,0.0,0.0,0.0,0.0,0.0,0.0,0.0,0.0,0.0,0.0,0.0,0.0,0.0,0.0,0.0,0.0,0.0,0.0,0.0,0.0,0.0,0.0,0.0,0.0,0.0,0.0,0.0,0.0,3.1934,3.5508,3.7988,3.8184,3.8613,3.8789,3.8555,3.875,3.8301,3.6953,3.5703,0.0,0.0,0.0,0.0,0.0,0.0,0.0,0.0,0.0,0.0,0.0,0.0,0.0,0.0,0.0,0.0,0.0,0.0,0.0,0.0,0.0,0.0,0.0,0.0,0.0,0.0,0.0,0.0,0.0,0.0,0.0,0.0,0.0,0.0,0.0,0.0,0.0,0.0,0.0,0.0,0.0,0.0,0.0,0.0,0.0,0.0,0.0,0.0,0.0,0.0,0.0,0.0,0.0,3.4801,3.5429,3.5881,3.5981,3.701,3.8592,3.5931,3.6031,3.7688,3.3596,0.0,0.0,0.0,0.0,0.0,0.0,0.0,0.0,0.0,0.0,0.0,0.0,0.0,0.0,0.0,0.0,0.0,0.0,0.0,0.0,0.0,0.0,3.2234,3.1478,3.2056,3.1953,2.9101,0.0,0.0,0.0,0.0,0.0,0.0,0.0,0.0,0.0,0.0,0.0,3.3223,3.6601,3.8945,3.9277,3.9668,3.9902,3.9902,3.9902,3.9902,3.9902,3.7891,3.6562,0.0,0.0,0.0,0.0,0.0,0.0,0.0,0.0,0.0,0.0,0.0,0.0,0.0,0.0,0.0,0.0,0.0,0.0,0.0,0.0,0.0,0.0,0.0,0.0,0.0,0.0,0.0,0.0,0.0,0.0,0.0,0.0,2.8348,2.9151,0.0,0.0,0.0,0.0,0.0,0.0,0.0,0.0,0.0,0.0,0.0,0.0,0.0,3.3269,3.3571,3.6006,3.7287,3.7387,3.9396,4.04,4.0475,4.0953,4.1329,4.1605,4.1656,0.0,3.7965,3.7312,0.0,0.0,0.0,0.0,0.0,0.0,0.0,0.0,0.0,0.0,0.0,0.0,0.0,0.0,0.0,0.0,0.0,0.0,0.0,0.0,0.0,0.0,3.5957,3.4545,3.4583,3.4844,3.4394,3.1367,2.8789,2.8867,2.8633,2.7851,0.0,0.0,0.0,0.0,0.0,0.0,3.5801,3.8242,3.9746,3.9805,3.9863,3.9902,3.9902,3.9902,3.9902,3.9902,3.957,3.8711,3.7187,3.3121,0.0,0.0,0.0,0.0,0.0,0.0,0.0,0.0,0.0,0.0,0.0,0.0,0.0,0.0,0.0,0.0,0.0,0.0,0.0,0.0,0.0,0.0,0.0,0.0,0.0,0.0,0.0,0.0,0.0,2.7544,2.9503,2.9754,2.9402,2.8574,0.0,0.0,0.0,0.0,0.0,0.0,0.0,0.0,0.0,3.578,3.6684,3.7588,3.8542,4.0049,4.0802,4.0827,4.2108,4.2735,4.2735,4.3288,4.3539,4.3564,4.379,4.3087,4.158,3.9722,3.7487,3.5152,0.0,0.0,0.0,0.0,3.4098,3.4625,3.6935,3.7713,3.7638,3.7061,0.0,0.0,0.0,0.0,0.0,0.0,0.0,3.6446,3.5545,3.6868,3.7891,3.6276,3.6152,3.6465,3.6465,3.5156,3.3535,3.2031,3.1191,2.9961,2.7519,2.8457,0.0,0.0,0.0,3.498,3.6797,3.8906,4.0254,4.0254,4.0684,4.0957,4.0957,4.1191,4.1308,4.1308,4.1308,4.0221,3.812,3.4206,3.0574,0.0,0.0,0.0,0.0,0.0,0.0,0.0,0.0,0.0,0.0,0.0,0.0,0.0,0.0,0.0,0.0,0.0,0.0,0.0,0.0,0.0,0.0,0.0,0.0,0.0,0.0,0.0,0.0,2.9402,3.111,3.0683,3.1486,3.121,0.0,0.0,0.0,0.0,0.0,0.0,3.5353,3.6157,3.7487,3.9421,4.03,4.1404,4.276,4.3187,4.3388,4.3413,4.3815,4.4016,4.4016,4.4443,4.4694,4.4844,4.4844,4.492,4.4844,4.2082,4.0375,3.9371,3.8115,3.7136,3.6558,3.7789,3.8341,3.8818,4.1304,4.2283,4.2308,4.1756,4.1003,3.9973,3.804,0.0,0.0,0.0,0.0,3.9504,3.8752,3.9056,3.926,3.7569,3.748,3.7793,3.7793,3.7851,3.7285,3.5156,3.4316,3.3125,3.043,3.1562,0.0,3.168,3.4375,3.6973,3.8281,3.9941,4.1016,4.1016,4.1582,4.1953,4.1953,4.2246,4.2422,4.2422,4.2422,4.1285,3.8797,3.5467,3.226,2.8792,0.0,0.0,0.0,0.0,0.0,0.0,0.0,0.0,0.0,0.0,0.0,0.0,0.0,0.0,0.0,0.0,0.0,0.0,0.0,0.0,0.0,0.0,0.0,0.0,0.0,0.0,0.0,0.0,0.0,3.3093,3.4776,0.0,0.0,0.0,0.0,3.4474,3.5077,3.6609,3.927,3.9446,4.0727,4.3413,4.3564,4.389,4.4493,4.4518,4.4543,4.4543,4.4568,4.4593,4.4593,4.4618,4.492,4.5447,4.5447,4.5748,4.6125,4.4895,4.3137,4.1204,4.1128,4.0099,3.8894,4.0526,4.1455,4.2158,4.3865,4.4819,4.5171,4.4593,4.3338,4.2108,4.2484,4.1505,0.0,0.0,4.1472,4.1742,4.0743,4.0583,4.0215,3.8774,3.8809,3.9101,3.9101,3.8476,3.8008,3.8262,3.8613,3.8281,3.6523,0.0,3.6523,3.6855,3.7422,3.873,4.125,4.2012,4.2324,4.2324,4.2363,4.2402,4.2402,4.2422,4.2422,4.2422,4.2422,4.1399,3.905,3.6771,3.3756,3.0024,2.6892,0.0,0.0,0.0,0.0,0.0,0.0,0.0,0.0,0.0,0.0,0.0,0.0,0.0,0.0,0.0,0.0,0.0,0.0,0.0,0.0,0.0,0.0,0.0,0.0,0.0,0.0,0.0,0.0,3.5328,3.686,0.0,3.5378,3.6835,3.7914,3.7914,3.9747,4.1304,4.2283,4.2685,4.3313,4.4292,4.4317,4.4593,4.5171,4.5171,4.5347,4.5723,4.6075,4.625,4.625,4.6577,4.6853,4.7054,4.7054,4.7154,4.7305,4.6903,4.5874,4.4568,4.492,4.4694,4.4292,4.5221,4.5698,4.5949,4.6527,4.6878,4.7004,4.6803,4.6326,4.5974,4.6527,4.6301,4.5764,4.5398,4.5409,4.5023,4.2514,4.1976,4.1462,3.9801,3.9531,3.9648,3.9648,3.9844,4.0059,4.0215,3.9238,3.8105,3.7226,3.8457,3.9238,3.8262,3.9668,4.1152,4.209,4.2344,4.2422,4.2422,4.2676,4.2851,4.2851,4.3086,4.3242,4.3242,4.1872,3.9902,3.745,3.5071,3.2504,2.9411,2.8271,2.6306,0.0,0.0,0.0,0.0,0.0,0.0,0.0,0.0,0.0,0.0,0.0,0.0,0.0,0.0,0.0,0.0,0.0,0.0,0.0,0.0,0.0,0.0,0.0,0.0,0.0,3.5529,3.7412,3.6508,3.8517,3.932,3.7638,3.9672,4.1078,4.1078,4.2936,4.4091,4.4091,4.4618,4.4995,4.5196,4.5372,4.5748,4.6301,4.6301,4.6577,4.7154,4.7506,4.7782,4.7983,4.8309,4.8586,4.8761,4.8761,4.8862,4.9038,4.9038,4.8636,4.7983,4.7757,4.7682,4.7757,4.8284,4.8485,4.851,4.8686,4.8761,4.8786,4.8987,4.9038,4.9113,4.9515,4.9615,4.9352,4.8108,4.7756,4.7027,4.3671,4.292,4.2642,4.0927,4.0644,4.0742,4.0742,4.1191,4.1601,4.1601,4.043,3.9355,3.9082,4.0449,4.1113,3.9668,4.1269,4.2539,4.2246,4.2598,4.2851,4.2851,4.3125,4.3281,4.3281,4.3027,4.276,4.2621,4.0603,3.824,3.544,3.3367,3.1121,2.8591,2.8497,2.7041,2.4209,0.0,0.0,0.0,0.0,0.0,0.0,0.0,0.0,0.0,0.0,0.0,0.0,0.0,0.0,0.0,0.0,0.0,0.0,0.0,0.0,0.0,0.0,0.0,3.5102,3.7236,3.8391,3.681,3.9923,4.158,3.9973,4.2258,4.3815,4.3815,4.4342,4.4669,4.4669,4.5246,4.5799,4.6351,4.6903,4.7431,4.7958,4.7983,4.8284,4.8837,4.8837,4.9138,4.964,4.964,4.9941,5.0444,5.0469,5.0795,5.1297,5.1322,5.1322,5.1172,4.949,4.8837,4.8912,4.9439,4.964,4.9715,5.0268,5.0444,5.0544,5.1096,5.1272,5.1272,5.1297,5.1322,5.0896,4.8875,4.8187,4.7446,4.4059,4.3523,4.3524,4.2171,4.2129,4.2422,4.2422,4.2441,4.2441,4.2441,4.2461,4.2461,4.2441,4.2441,4.2168,4.1367,4.2305,0.0,4.1973,4.293,4.3691,4.3672,4.3672,4.3672,4.3672,4.2148,4.0941,4.0319,3.8653,3.6351,3.3511,3.2008,3.0021,2.7762,2.7442,2.6841,2.5985,0.0,0.0,0.0,0.0,0.0,0.0,0.0,0.0,0.0,0.0,0.0,0.0,0.0,0.0,0.0,0.0,0.0,0.0,0.0,0.0,0.0,3.7262,3.8843,3.8391,4.0023,4.1229,4.1178,4.2459,4.3162,4.271,4.3714,4.4392,4.4392,4.5296,4.5849,4.5849,4.6728,4.7305,4.7456,4.8033,4.8586,4.9113,4.9515,5.0017,5.0594,5.0594,5.067,5.082,5.082,5.0896,5.1071,5.1473,5.1724,5.19,5.2302,5.2477,5.2352,5.1096,5.0594,5.0619,5.077,5.082,5.0845,5.0996,5.1046,5.1071,5.1222,5.1272,5.1348,5.1749,5.1122,4.991,4.8384,4.7136,4.5641,4.323,4.2743,4.2704,4.2386,4.2344,4.2422,4.2422,4.2676,4.2891,4.2891,4.3144,4.3262,4.2949,4.2891,4.293,4.2988,4.3301,4.3437,4.3203,4.3476,4.3457,4.2851,4.2773,4.2773,4.2773,4.2344,4.1533,4.0355,3.8316,3.5906,3.3541,3.1407,2.9986,2.9312,2.7963,2.7041,0.0,0.0,0.0,0.0,0.0,0.0,0.0,0.0,0.0,0.0,0.0,0.0,0.0,0.0,0.0,0.0,0.0,0.0,0.0,0.0,0.0,0.0,3.9647,4.1153,4.1379,4.2032,4.271,4.3263,4.3614,4.389,4.4116,4.4869,4.5321,4.5321,4.6351,4.6979,4.6979,4.8008,4.8611,4.8611,4.9414,4.9967,5.0293,5.0845,5.1398,5.1975,5.2201,5.2427,5.2653,5.2653,5.2653,5.2678,5.3005,5.313,5.3155,5.3482,5.3607,5.3532,0.0,0.0,0.0,0.0,5.2653,5.2653,5.2653,5.2653,5.2653,5.2653,5.2653,5.2566,5.1985,5.1127,4.9928,4.7414,4.6044,4.4898,4.2882,4.2558,4.2695,4.2695,4.2832,4.2969,4.2969,4.3164,4.334,4.334,4.3535,0.0,4.3379,4.334,4.3301,4.3183,4.3476,4.3574,4.3223,4.3476,4.3516,4.3008,4.3125,4.3242,4.3242,4.1743,0.0,0.0,0.0,3.369,3.1397,2.985,0.0,0.0,0.0,2.7669,2.811,2.7094,0.0,0.0,2.5571,2.5157,0.0,0.0,0.0,0.0,0.0,0.0,0.0,0.0,0.0,0.0,0.0,0.0,0.0,0.0,0.0,0.0,4.1731,4.3338,4.3815,4.3539,4.3413,4.384,4.4016,4.4267,4.4769,4.5824,4.6527,4.6577,4.7531,4.8134,4.8184,4.9213,0.0,0.0,0.0,5.1473,5.1473,5.2076,5.2628,5.313,5.3582,5.4059,5.4561,5.4561,5.4561,5.4561,5.4637,5.4662,5.4662,5.4737,5.4762,5.4687,5.4059,5.3808,5.3858,5.4386,5.4561,5.4561,5.4561,0.0,0.0,5.4561,5.4561,5.4252,5.2115,5.1237,5.0397,4.6476,4.5315,4.4728,4.304,4.2851,4.3144,4.3144,4.3437,4.3711,4.3711,4.3711,4.3711,4.3711,4.375,4.3789,4.3789,4.373,4.3457,4.2754,4.3301,4.3516,4.2812,4.3379,4.3808,4.3711,4.4082,0.0,4.3962,4.0861,3.8484,3.7467,3.377,3.0666,2.8628,2.8444,2.8323,2.8056,2.8043,2.8698,3.002,3.002,3.002,2.9927,2.6466,2.5678,0.0,0.0,0.0,0.0,0.0,0.0,0.0,0.0,0.0,0.0,0.0,0.0,0.0,0.0,0.0,4.0877,4.2861,4.4342,4.4443,4.4769,4.4869,4.4518,4.5271,4.5874,4.5974,4.6954,4.7782,4.8259,4.8912,4.9464,4.9916,5.0594,5.0946,5.0946,5.2026,5.2603,5.2603,5.3607,5.4135,5.4235,5.4361,0.0,5.4561,5.4561,5.4561,5.4587,5.5039,5.5239,5.5265,5.5717,5.5892,5.5792,5.4787,5.4411,5.4411,5.4536,5.4561,5.4561,5.4561,5.4561,5.4561,5.4561,5.4561,5.4252,5.2115,5.0583,0.0,4.6499,4.5065,4.3929,4.3621,4.3516,4.3574,4.3574,4.3652,4.3711,4.3711,4.3711,4.3711,4.3711,4.4004,4.4258,4.4258,4.3945,4.3769,4.3984,4.416,4.4336,4.4492,4.4668,4.4492,4.3789,4.3789,4.2978,4.1079,4.0337,3.8357,3.5193,3.2532,3.0758,3.0287,3.0287,3.0247,3.0194,3.0194,3.0341,3.0621,3.0621,3.0621,3.0595,2.9379,2.8991,0.0,0.0,0.0,0.0,0.0,0.0,0.0,0.0,0.0,0.0,0.0,3.7111,3.8241,0.0,4.1706,4.2811,4.4141,4.5146,4.5422,4.5949,4.61,4.5547,4.62,4.6828,4.7079,4.8109,4.8862,4.9163,4.9967,5.0569,5.0845,5.1649,5.2101,5.2101,5.3181,5.3758,5.3758,5.4561,5.4988,5.4988,5.5265,5.539,5.539,5.539,5.539,5.5415,5.5691,5.5792,5.5817,5.6093,5.6219,5.6168,5.5591,5.539,5.539,5.539,5.539,5.539,5.539,5.539,5.5221,5.4156,5.3864,5.3227,4.9988,4.8631,4.7598,4.541,4.4335,4.3711,4.3711,4.3711,4.3711,4.3711,4.3711,4.3769,4.4004,4.4043,4.4121,4.4316,4.4551,4.4707,4.4707,4.4512,4.4453,4.4668,4.4707,4.4785,4.5,4.5019,4.4844,4.4414,4.4551,4.3632,4.1333,3.9038,3.6263,3.3201,3.1956,3.1169,3.1022,3.1009,3.0942,3.0795,3.0795,3.0795,3.0795,3.0795,3.0795,3.0782,3.0488,3.0354,0.0,0.0,0.0,0.0,0.0,0.0,0.0,3.4826,3.5579,3.701,3.8366,3.9697,4.1053,4.2208,4.3388,4.4744,4.5522,4.6125,4.6552,4.7179,4.7456,4.7004,4.733,4.7782,4.8184,4.9264,4.9967,5.0067,5.1021,5.1649,5.1749,5.2703,5.3256,5.3256,5.421,5.4737,5.4737,5.5265,5.5541,5.5541,5.5993,5.6219,5.6219,5.6219,5.6219,5.6219,5.6219,5.6219,5.6219,5.6219,5.6219,5.6219,5.6219,5.6219,5.6219,5.6219,5.6219,5.6219,5.6219,5.6219,5.5901,5.4199,5.3726,5.2949,4.8733,4.7486,4.6867,4.433,4.3711,4.373,4.3808,4.3848,4.3867,4.3945,4.3965,4.4062,4.4433,4.4512,4.4629,4.4961,4.5098,4.5156,4.5156,4.5215,4.5254,4.5176,4.5156,4.5176,4.5254,4.5273,4.5312,4.5391,4.5338,4.3959,4.1121,3.7191,3.387,3.2028,3.1837,3.173,3.149,3.1423,3.1289,3.1049,3.0996,3.0996,3.1049,3.1049,3.1076,3.1129,3.1129,3.1036,3.5931,3.5303,3.5529,3.583,3.5956,3.7136,0.0,4.1103,4.0501,4.3087,4.374,4.394,4.4141,4.5095,4.5899,4.61,4.6979,4.7657,4.7732,4.8636,4.9289,4.9238,4.9289,4.9339,4.9389,5.0419,5.1297,5.1774,5.2402,5.2955,5.3406,5.4034,5.4386,5.4386,5.4988,5.529,5.529,5.5842,5.6118,5.6118,5.6168,5.6219,5.6219,5.6219,5.6219,5.6219,5.6219,5.6219,5.6219,5.6219,5.6219,5.6219,5.6219,5.6219,5.6219,5.6219,5.6219,5.6219,5.6219,5.6219,5.6219,5.5901,5.5901,5.5115,5.0916,4.9674,4.8733,4.4802,4.3711,4.3789,4.4219,4.4316,4.4414,4.4785,4.4883,4.4902,4.4941,4.4961,4.4961,4.5019,4.5332,4.5605,4.5605,4.5918,4.6035,4.5664,4.5605,4.5742,4.6113,4.6152,4.6308,4.668,4.4726,4.1578,3.7238,3.4496,3.2827,3.2452,3.2452,3.2438,3.2398,3.2144,3.1984,3.1957,3.1704,3.1704,3.1957,3.1957,3.2091,3.2345,3.2345,3.1931,3.9998,3.9396,3.9044,3.9597,3.9973,4.0676,4.2434,4.2384,4.2459,4.4242,4.5146,4.5598,4.5598,4.6502,4.723,4.723,4.7908,4.841,4.841,4.9364,5.0067,5.0067,5.0645,5.0921,5.0594,5.1297,5.2,5.2553,5.308,5.3607,5.4185,5.4737,5.5039,5.5039,5.5591,5.5867,5.5867,5.6093,5.6219,5.6219,5.6219,5.6219,5.6219,5.6219,5.6219,5.6219,5.6219,5.6219,5.6219,5.6219,5.6219,5.6219,5.6219,5.6219,5.6219,5.6219,5.6219,5.6219,5.6219,5.6219,5.6097,5.5187,5.4007,5.2503,4.9817,4.8153,4.6722,4.4956,4.4473,4.4512,4.4707,4.4766,4.4805,4.498,4.5019,4.5098,4.5351,4.541,4.5469,4.5723,4.5918,4.6035,4.6035,4.6387,4.6601,4.6426,4.6406,4.6465,4.6641,4.6894,4.6555,4.5231,4.281,3.9901,3.6486,3.4059,3.2545,3.2545,3.2545,3.2545,3.2545,3.2425,3.2358,3.2358,3.2238,3.2238,3.2358,3.2358,3.2425,3.2545,3.2545,3.2438,4.1681,4.1605,4.1455,4.2007,4.2811,4.3363,4.3137,4.3388,4.3991,4.5095,4.5974,4.6577,4.6728,4.7506,4.8159,4.8159,4.8761,4.9213,4.9213,5.0193,5.087,5.087,5.1875,5.2377,5.2,5.2302,5.2703,5.3105,5.3783,5.4361,5.4762,5.5315,5.5616,5.5616,5.6018,5.6219,5.6219,5.6219,5.6219,5.6219,5.6219,5.6219,5.6219,5.6219,5.6219,5.6219,5.6219,5.6219,5.6219,5.6219,5.6219,5.6219,5.6369,5.6445,5.647,5.662,5.647,5.6072,5.5608,5.5485,5.5262,5.3755,5.2032,5.0517,4.8783,4.711,4.5659,4.5189,4.5019,4.5058,4.5176,4.5195,4.5234,4.5351,4.5371,4.5469,4.5781,4.5937,4.6113,4.6426,4.6582,4.666,4.666,4.6914,4.7109,4.7109,4.7207,4.7246,4.7129,4.748,4.6428,4.3218,4.1425,3.9037,3.5628,3.3739,3.2786,3.2786,3.2786,3.2786,3.2786,3.2706,3.2666,3.2666,3.2585,3.2585,3.2666,3.2666,3.2706,3.2786,3.2879,3.2617,3.912,4.0149,4.1455,4.2007,4.3363,4.4719,4.5271,4.5397,4.5723,4.6828,4.7079,4.7255,4.7757,4.836,4.8736,4.8736,4.9665,5.0368,5.0368,5.1348,5.2051,5.2051,5.3005,5.3658,5.3632,5.3632,5.3658,5.3683,5.4712,5.534,5.5365,5.5892,5.6194,5.6194,5.6194,5.6219,5.6219,5.6219,5.6219,5.6219,5.6219,5.6219,5.6219,5.6219,5.6219,5.6219,5.6219,5.6219,5.6219,5.6219,5.6219,5.6269,5.6796,5.7022,5.7072,5.765,5.7148,5.5976,5.4303,5.3837,5.3448,5.19,5.1282,5.0961,4.8704,4.8066,4.7589,4.5509,4.5019,4.5117,4.5547,4.5664,4.5762,4.6172,4.6269,4.6269,4.6289,4.6601,4.6894,4.6914,4.7246,4.7539,4.7539,4.7558,4.7558,4.7558,4.791,4.8027,4.7617,4.793,4.6276,4.1147,4.0892,3.8979,3.3959,3.3387,3.3387,3.3387,3.3387,3.3387,3.3387,3.312,3.2959,3.2959,3.2692,3.2679,3.2959,3.2959,3.3106,3.3387,3.3708,3.2379,4.1254,4.2283,4.3288,4.4593,4.5321,4.5899,4.6451,4.6577,4.6778,4.7506,4.7657,4.7707,4.7883,4.8686,4.9314,4.9314,5.0268,5.0996,5.0996,5.195,5.2653,5.2653,5.3607,5.4285,5.4285,5.4285,5.4436,5.4787,5.5164,5.5541,5.5917,5.6118,5.6219,5.6219,5.6219,5.6219,5.6219,5.6219,5.6219,5.6219,5.6219,5.6219,5.6219,5.6219,5.642,5.6746,5.6746,5.6972,5.7323,5.7323,5.7323,5.7349,5.7549,5.76,5.7625,5.7826,5.6696,5.5266,5.6094,5.6495,5.6241,5.4532,5.3085,5.1515,4.9719,4.8011,4.6683,4.6032,4.5879,4.5898,4.6055,4.6094,4.6133,4.6269,4.6504,4.6719,4.6719,4.7051,4.7363,4.7363,4.748,4.7578,4.7578,4.7812,4.8086,4.8379,4.8301,4.8262,4.8418,4.8555,4.6708,4.1548,4.109,3.9026,3.38,3.3414,3.3414,3.3414,3.3414,3.3414,3.3414,3.332,3.3267,3.3267,3.3173,3.3173,3.3267,3.348,3.3627,3.3734,3.4028,3.2686,4.2911,4.3815,4.4543,4.6426,4.6878,4.6979,4.733,4.7405,4.7556,4.8109,4.7757,4.7456,4.7832,4.851,4.9063,4.9264,5.0569,5.1649,5.185,5.2628,5.3281,5.3482,5.431,5.4863,5.4863,5.5039,5.5214,5.539,5.5566,5.5842,5.6194,5.6219,5.6219,5.6219,5.6219,5.6219,5.6219,5.6219,5.6219,5.6219,5.642,5.652,5.652,5.6721,5.7022,5.7349,5.7349,5.7549,5.7901,5.7901,5.7901,5.7926,5.8102,5.8202,5.8202,5.8403,5.7001,5.5193,5.565,5.5267,5.4398,5.2619,5.1135,4.989,4.8702,4.7468,4.6308,4.6308,4.6308,4.6308,4.6308,4.6308,4.6348,4.6484,4.6738,4.6973,4.7129,4.75,4.7793,4.7793,4.793,4.8047,4.8047,4.8398,4.8769,4.9062,4.8867,4.873,4.8848,4.8867,4.6915,4.1732,4.1156,3.9026,3.38,3.3414,3.3414,3.3414,3.3414,3.3467,3.3574,3.3467,3.3467,3.3574,3.3574,3.3574,3.3587,3.3895,3.4042,3.4055,3.4336,3.2345,4.394,4.4719,4.5296,4.738,4.7908,4.7908,4.7933,4.7983,4.8134,4.8586,4.7456,4.6627,4.7531,4.7832,4.8134,4.8686,5.072,5.2427,5.2929,5.3457,5.3984,5.4536,5.5089,5.544,5.544,5.5917,5.5993,5.5465,5.5917,5.6219,5.6219,5.6219,5.6219,5.6219,5.6219,5.6219,5.6219,5.6219,5.6219,5.6269,5.6796,5.7047,5.7097,5.765,5.7901,5.7951,5.7951,5.7951,5.7976,5.7976,5.7976,5.8027,5.8401,5.8602,5.8652,5.8998,5.7849,5.5503,5.2917,5.0609,4.8713,4.7002,4.6464,4.6464,4.6308,4.6308,4.6308,4.6328,4.6328,4.6348,4.6367,4.6367,4.6465,4.6875,4.6973,4.7109,4.7519,4.7949,4.8242,4.8242,4.8574,4.8867,4.8887,4.9238,4.9531,4.9551,4.957,4.9414,4.8984,4.8906,4.6766,4.1783,4.1205,3.9073,3.3841,3.3454,3.3454,3.3454,3.3454,3.3587,3.3895,3.3614,3.3601,3.3908,3.3908,3.3908,3.3908,3.4202,3.4349,3.4349,3.4643,3.1559,4.497,4.615,4.7205,4.7757,4.7908,4.8033,4.846,4.8862,4.8862,4.7782,4.7205,4.6502,4.5095,4.6878,4.8611,4.8736,5.1674,5.3984,5.4135,5.4612,5.5013,5.5164,5.5666,5.6018,5.6018,5.6118,5.6143,5.6018,5.6118,5.6219,5.6219,5.6219,5.6219,5.6219,5.6219,5.6219,5.6219,5.6219,5.642,5.6821,5.6972,5.7273,5.7675,5.7826,5.8127,5.8504,5.8504,5.873,5.9081,5.9081,5.9081,5.8927,5.7423,5.6842,5.6708,5.5181,5.3311,5.159,5.0974,5.1222,5.1441,4.9404,4.8805,4.8462,4.6793,4.6308,4.6367,4.668,4.6777,4.6855,4.7168,4.7246,4.7285,4.7383,4.7656,4.791,4.8027,4.8379,4.8691,4.8691,4.8789,4.8965,4.9297,4.9453,4.9648,4.9961,5.0019,4.998,4.9863,4.7799,4.5179,4.2324,4.0205,3.7643,3.4286,3.4082,3.4082,3.4082,3.4082,3.4122,3.4202,3.4135,3.4122,3.4202,3.4202,3.4202,3.4215,3.4509,3.4643,3.4656,3.495,3.205,4.6276,4.7405,4.8335,4.8586,4.8661,4.8535,4.8134,4.8284,4.7983,4.6075,4.5296,4.4568,4.3313,4.5799,4.8134,4.836,5.1875,5.4637,5.4888,5.5189,5.5491,5.5717,5.6018,5.6219,5.6219,5.6219,5.6219,5.6219,5.6219,5.6219,5.6219,5.6219,5.6219,5.6219,5.6219,5.6319,5.657,5.657,5.6872,5.7424,5.765,5.7951,5.8278,5.8504,5.878,5.9056,5.9056,5.9232,5.9483,5.9483,5.9483,5.9353,5.8433,5.7373,5.6435,5.5322,5.3056,5.0429,5.0429,5.0607,5.0397,4.9036,4.8708,4.8554,4.7189,4.6855,4.6914,4.7148,4.7207,4.7266,4.7519,4.7578,4.7617,4.7812,4.8027,4.8262,4.8457,4.8691,4.8867,4.8867,4.8867,4.9004,4.9453,4.9687,4.9961,5.0391,5.0449,5.0527,5.0703,4.7809,4.4781,4.241,3.9875,3.7099,3.4514,3.4322,3.4322,3.4322,3.4322,3.4376,3.4509,3.4389,3.4389,3.4509,3.4509,3.4509,3.4509,3.4803,3.495,3.4963,3.3819,3.0846,4.7531,4.8385,4.8987,4.9464,4.959,4.9163,4.7506,4.7129,4.6451,4.3991,4.276,4.2057,4.1781,4.4518,4.7054,4.7782,5.1523,5.4612,5.539,5.5491,5.5666,5.6143,5.6219,5.6219,5.6219,5.6219,5.6219,5.6219,5.6219,5.6219,5.6219,5.6219,5.6244,5.6319,5.6319,5.6595,5.7148,5.7148,5.7449,5.8001,5.8504,5.8755,5.883,5.9282,5.9483,5.9483,5.9483,5.9483,5.9483,5.9483,5.9378,5.9167,5.9301,5.804,5.6163,5.6252,5.3913,5.0559,5.0559,4.9425,4.7734,4.7617,4.7578,4.7578,4.7578,4.7578,4.7598,4.7656,4.7656,4.7676,4.7734,4.7754,4.7832,4.8203,4.8301,4.8398,4.8769,4.8867,4.8867,4.8867,4.8867,4.9004,4.9453,4.9883,5.0312,5.0742,5.0859,5.1016,5.1387,4.7942,4.4707,4.2575,3.9613,3.6836,3.4635,3.4442,3.4442,3.4442,3.4442,3.4549,3.4817,3.4576,3.4563,3.4817,3.4817,3.4817,3.4817,3.507,3.5191,3.5191,3.2148,2.9326,4.7832,4.8661,4.9464,4.9565,4.959,4.9163,4.7506,4.7129,4.61,4.2509,4.1982,4.1605,3.9772,4.2509,4.5673,4.7606,5.0896,5.3884,5.5792,5.6068,5.6118,5.6194,5.6219,5.6219,5.6219,5.6219,5.6219,5.6219,5.6219,5.6219,5.6219,5.6219,5.642,5.6872,5.6897,5.7173,5.775,5.775,5.8027,5.8579,5.8679,5.8956,5.9357,5.9458,5.9483,5.9483,5.9483,5.9483,5.9483,5.9483,5.8615,5.7228,5.5461,5.3571,5.1722,4.9929,4.8991,4.861,4.861,4.8685,4.8516,4.7812,4.7578,4.7578,4.7578,4.7578,4.7656,4.8008,4.8105,4.8183,4.8535,4.8633,4.8652,4.873,4.875,4.8769,4.8848,4.8867,4.8867,4.8867,4.8867,4.9004,4.9453,4.9883,5.0312,5.0742,5.1094,5.1348,5.1426,4.6574,4.3207,4.3104,3.8693,3.545,3.5044,3.5044,3.5044,3.5044,3.5044,3.507,3.5124,3.507,3.507,3.5124,3.5124,3.5124,3.5124,3.5177,3.5191,3.5191,3.2148,2.9326,4.7908,4.8736,4.959,4.959,4.959,4.8937,4.6401,4.5598,4.4292,4.04,4.0049,4.0023,3.8668,4.158,4.4644,4.5974,4.9741,5.298,5.431,5.5491,5.6219,5.6219,5.6219,5.6219,5.6219,5.6219,5.6219,5.6219,5.6219,5.6219,5.6219,5.647,5.6771,5.7022,5.7323,5.775,5.8328,5.8328,5.8604,5.9131,5.9131,5.9257,5.9483,5.9483,5.9483,5.9483,5.9483,5.9659,5.9754,5.8605,5.7759,5.7101,5.5176,5.3017,5.1203,5.0408,4.9412,4.8535,4.8535,4.8672,4.8789,4.8379,4.8242,4.8242,4.8242,4.8242,4.8281,4.8496,4.8535,4.8594,4.8808,4.8867,4.8867,4.8867,4.8867,4.8867,4.8867,4.8867,4.8867,4.8867,4.8867,4.9004,4.9453,4.9883,5.0312,5.0742,5.1172,5.0822,4.9395,4.5596,4.3137,4.3302,3.8456,3.5191,3.5191,3.5191,3.5191,3.5191,3.5191,3.5191,3.5191,3.5191,3.5191,3.5191,3.5191,3.5191,3.5191,3.5191,3.5191,3.5191,3.0632,2.7823,4.7883,4.8736,4.959,4.959,4.959,4.8711,4.5372,4.4116,4.2559,3.8793,3.8366,3.8542,3.809,4.0802,4.3438,4.4468,4.8134,5.1348,5.2729,5.4511,5.5817,5.6168,5.6219,5.6219,5.6219,5.6219,5.6219,5.6219,5.6319,5.6394,5.6394,5.6922,5.7273,5.7399,5.7826,5.8328,5.888,5.888,5.9081,5.9483,5.9483,5.9483,5.9483,5.9483,5.9483,5.9508,5.9608,5.991,6.0154,5.7952,5.7124,5.6934,5.496,5.2949,5.0991,5.1543,5.0439,4.8867,4.8867,4.8867,4.8867,4.8867,4.8867,4.8867,4.8867,4.8867,4.8867,4.8867,4.8867,4.8867,4.8867,4.8867,4.8867,4.8867,4.8867,4.8867,4.8867,4.8945,4.9004,4.9004,4.9004,4.9121,4.9473,4.9883,5.0293,5.0625,5.0513,4.9806,4.7582,4.4531,4.2506,4.2506,3.804,3.5191,3.5191,3.5191,3.5191,3.5191,3.5191,3.5191,3.5191,3.5191,3.5191,3.5191,3.5191,3.5191,3.5191,3.5191,3.498,3.4108,2.8908,2.6097,4.7782,4.8736,4.959,4.959,4.959,4.8711,4.5372,4.3815,4.2082,3.8693,3.804,3.8065,3.8015,3.9546,4.1656,4.4217,4.5874,4.8259,5.2352,5.3507,5.4486,5.6018,5.6219,5.6219,5.6219,5.6219,5.6219,5.6219,5.6671,5.6972,5.6972,5.7499,5.8052,5.8554,5.8629,5.8905,5.9408,5.9433,5.9458,5.9483,5.9483,5.9483,5.9483,5.9483,5.9483,5.9533,6.001,6.0261,6.018,5.8337,5.6647,5.505,5.2687,5.0715,4.9157,4.9197,4.9032,4.8867,4.8867,4.8867,4.8867,4.8867,4.8867,4.8867,4.8867,4.8867,4.8867,4.8867,4.8867,4.8867,4.8867,4.8867,4.8867,4.8867,4.8867,4.8867,4.8867,4.918,4.9473,4.9473,4.9473,4.9473,4.9512,4.9883,5.0195,5.0234,4.8907,4.7582,4.7383,4.2913,3.9683,3.9683,3.704,3.5191,3.5191,3.5191,3.5191,3.5191,3.5191,3.5191,3.5191,3.5191,3.5191,3.5191,3.5191,3.5191,3.5191,3.5191,3.3883,3.1272,2.8038,2.5014,4.7682,4.8736,4.959,4.959,4.9088,4.7883,4.5221,4.3263,4.1229,3.8567,3.7739,3.7613,3.7939,3.8843,4.0199,4.2308,4.4141,4.6024,4.8159,5.0645,5.2603,5.3607,5.4612,5.5491,5.6143,5.6219,5.6344,5.6671,5.7549,5.8052,5.8052,5.8278,5.8504,5.8704,5.9031,5.9282,5.9483,5.9483,5.9483,5.9483,5.9483,5.9483,5.9483,5.9483,5.9684,6.001,6.0211,6.0713,6.1181,5.8989,5.7159,5.5218,5.296,5.0801,4.8867,4.8867,4.8867,4.8867,4.8867,4.8867,4.8867,4.8867,4.8867,4.8867,4.8867,4.8867,4.8867,4.8867,4.8867,4.8926,4.9199,4.9453,4.959,4.9316,4.9453,4.9648,4.9648,4.9805,4.9922,4.9922,4.9922,4.9922,4.9922,5.0273,5.0547,5.0547,4.8843,4.6769,4.5151,4.1706,3.8663,3.704,3.5809,3.5191,3.5191,3.5191,3.5191,3.5191,3.5191,3.5191,3.5191,3.5191,3.5191,3.5191,3.5191,3.5191,3.5191,3.5191,3.3672,3.0846,2.7823,2.5014,4.733,4.851,4.9389,4.9565,4.8636,4.7154,4.5095,4.2785,4.0501,3.8442,3.7563,3.7337,3.7914,3.8492,3.9346,4.0852,4.2534,4.4141,4.5522,4.8234,5.0519,5.1724,5.303,5.426,5.5365,5.6068,5.6696,5.7248,5.8177,5.878,5.8956,5.8956,5.8956,5.8956,5.9307,5.9483,5.9483,5.9483,5.9483,5.9483,5.9483,5.9483,5.9508,5.9659,5.996,6.0337,6.0663,6.1266,6.1832,5.9567,5.76,5.5682,5.3238,5.0964,4.8867,4.8867,4.8867,4.8867,4.8867,4.8867,4.8867,4.8867,4.8945,4.9062,4.9062,4.9062,4.9062,4.9062,4.9141,4.9316,4.9629,4.9941,5.0098,4.9785,4.9961,5.0176,5.0176,5.0273,5.0371,5.0371,5.0371,5.0371,5.0371,5.0605,5.0801,5.0801,4.8134,4.5552,4.3521,4.0286,3.7444,3.5401,3.5191,3.5191,3.5191,3.5191,3.5191,3.5191,3.5191,3.5191,3.5191,3.5191,3.5191,3.5191,3.5191,3.5191,3.5191,3.5191,3.3235,2.9551,2.7392,2.4589,4.6677,4.7933,4.8912,4.9464,4.836,4.6702,4.4995,4.2509,4.0049,3.8366,3.7563,3.7337,3.7914,3.8492,3.922,4.035,4.1003,4.2534,4.5849,4.6803,4.8209,5.0971,5.1774,5.2553,5.3632,5.5717,5.7273,5.7851,5.8403,5.8956,5.9458,5.9483,5.9483,5.9483,5.9483,5.9483,5.9483,5.9483,5.9483,5.9483,5.9483,5.9483,5.9508,6.006,6.0311,6.0387,6.1492,6.1994,6.1882,5.9977,5.7925,5.5705,5.3259,5.0964,4.8867,4.8867,4.8867,4.8867,4.8867,4.8867,4.8867,4.8867,4.916,4.9512,4.9512,4.9512,4.9512,4.9512,4.9824,5.0176,5.0176,5.0176,5.0176,5.0176,5.0176,5.0176,5.0176,5.0508,5.0801,5.0801,5.0801,5.0801,5.0801,5.0801,5.0801,5.0801,4.6519,4.3318,4.3318,3.8663,3.5191,3.5191,3.5191,3.5191,3.5191,3.5191,3.5191,3.5191,3.5191,3.5191,3.5191,3.5191,3.5191,3.5191,3.5191,3.5191,3.5191,3.5191,3.216,2.6529,2.6529,2.3502,4.4493,4.5673,4.6476,4.625,4.5246,4.3966,4.266,4.0827,3.9019,3.7713,3.701,3.6784,3.7337,3.7588,3.8567,4.1204,4.1781,4.266,4.4844,4.728,4.9138,5.0017,5.2955,5.5039,5.539,5.6771,5.77,5.7876,5.873,5.9332,5.9483,5.9483,5.9483,5.9483,5.9483,5.9483,5.9483,5.9859,5.9859,5.9508,6.0286,6.0437,6.0085,6.0638,6.1115,6.1492,6.1843,6.222,6.2571,6.1878,5.9354,5.5879,5.4983,5.2366,4.8867,4.8867,4.8867,4.8867,4.8867,4.8867,4.8906,4.9219,4.9414,4.959,4.9883,4.998,4.998,4.998,5.0273,5.0547,5.0254,5.0605,5.0957,5.0683,5.082,5.1035,5.1035,5.1133,5.123,5.123,5.123,5.123,5.123,5.123,5.0629,4.8797,4.5466,4.2709,4.0887,3.7444,3.5191,3.5191,3.5191,3.5191,3.5191,3.5191,3.5191,3.5191,3.5191,3.5191,3.5191,3.5191,3.5191,3.5191,3.5191,3.5191,3.5191,3.3235,2.9337,2.3511,2.1546,1.9595,4.266,4.3991,4.4819,4.4669,4.3489,4.2183,4.1505,3.9722,3.804,3.7337,3.6734,3.6533,3.7086,3.7186,3.799,4.0501,4.1078,4.2108,4.4593,4.6928,4.8912,5.0368,5.3331,5.5365,5.5566,5.6997,5.7901,5.7901,5.888,5.9483,5.9483,5.9483,5.9483,5.9483,5.9483,5.9483,5.9483,5.9834,5.9935,5.9809,6.0512,6.0788,6.0663,6.124,6.1692,6.2019,6.222,6.2496,0.0,6.1787,5.933,5.5879,5.4829,5.2186,4.8867,4.8867,4.8867,4.8867,4.8867,4.8965,4.916,4.9433,4.9746,5.0098,5.0527,5.0547,5.0449,5.0605,5.084,5.0976,5.0723,5.1035,5.1367,5.1094,5.125,5.1426,5.1426,5.1426,5.1426,5.1426,5.1426,5.1426,5.1426,5.1426,5.0413,4.778,4.5134,4.2302,3.9683,3.6831,3.5191,3.5191,3.5191,3.5191,3.5191,3.5191,3.5191,3.5191,3.5191,3.5191,3.5191,3.5191,3.5191,3.5191,3.5191,3.5191,3.5191,3.1284,2.6745,2.221,1.9177,1.786,0.0,4.2559,4.3564,4.4041,4.261,4.1103,4.1053,3.9019,0.0,3.7136,3.6684,3.6483,3.7136,3.7211,3.7613,3.8894,3.9572,4.1279,4.5121,4.6351,4.8209,5.19,5.3256,5.4084,5.4587,5.6595,5.7901,5.7901,5.888,5.9483,5.9483,5.9483,5.9483,5.9483,5.9483,5.9483,5.9483,5.9533,5.9809,6.0311,6.0412,6.0713,6.1266,6.1818,6.2069,6.2094,6.2596,6.2822,6.2659,6.0194,5.7949,5.5705,5.3259,5.0964,4.8867,4.8867,4.8887,4.8906,4.8906,4.9199,4.957,4.9609,5.0176,5.0918,5.1308,5.1152,5.0937,5.1328,5.1426,5.1426,5.1426,5.1426,5.1426,5.1426,5.1426,5.1426,5.1426,5.1426,5.1426,5.1426,5.1426,5.1426,5.1426,5.1426,5.0413,4.7582,4.4933,4.2302,3.9477,3.6831,3.5191,3.5191,3.5191,3.5191,3.5191,3.5191,3.5191,3.5191,3.5191,3.5191,3.5191,3.5191,3.5191,3.5191,3.498,3.4768,3.4544,2.8908,2.4806,2.1781,1.9177,1.786,3.6759,0.0,3.9948,3.9647,3.917,3.8693,0.0,3.7337,3.6558,3.6558,3.6107,3.6157,3.7563,3.7462,3.8115,4.0927,4.1856,4.3413,4.6853,5.0017,5.2628,5.4411,5.5214,5.5516,5.5214,5.6846,5.7901,5.7901,5.888,5.9483,5.9483,5.9483,5.9483,5.9483,5.9483,5.9483,5.9483,5.991,6.0186,6.0337,6.119,6.1667,6.1843,6.2395,6.2621,6.2647,6.2772,6.2822,6.2659,6.0194,5.7949,5.5705,5.3259,5.0964,4.8867,4.8867,4.9082,4.9375,4.9375,4.9668,5.0078,5.0391,5.0859,5.1308,5.1406,5.1367,5.1308,5.1406,5.1426,5.1426,5.1426,5.1426,5.1426,5.1426,5.1426,5.1426,5.1426,5.1426,5.1426,5.1426,5.1426,5.1426,5.1426,5.1426,4.9806,4.4933,4.3723,4.1486,3.6831,3.5599,3.5191,3.5191,3.5191,3.5191,3.5191,3.5191,3.5191,3.5191,3.5191,3.5191,3.5191,3.5191,3.5191,3.5191,3.301,3.0846,2.8468,2.5023,2.1773,1.8942,1.8295,1.786,3.4324,3.6408,3.8391,3.809,3.7814,3.7563,3.7262,3.6358,3.5604,3.5604,3.5579,3.5906,3.7036,3.8266,3.9597,4.1153,4.3564,4.6326,4.9414,5.2302,5.4411,5.529,5.5641,5.5817,5.5767,5.7047,5.7901,5.7901,5.888,5.9483,5.9483,5.9483,5.9483,5.9483,5.9483,5.9483,5.9483,6.0035,6.0462,6.0713,6.1592,6.2144,6.2395,6.2697,6.2822,6.2822,6.2822,6.2142,6.1076,5.863,5.6377,5.4125,5.1667,5.0094,4.8867,4.8867,4.9141,4.9531,4.9531,4.9941,5.0527,5.0957,5.125,5.1426,5.1426,5.1426,5.1426,5.1426,5.1426,5.1426,5.1426,5.1426,5.1426,5.1426,5.1426,5.1426,5.1426,5.1426,5.1426,5.1426,5.1426,5.1426,5.1426,5.1426,4.9591,4.4127,4.3318,4.1297,3.5809,3.5191,3.5191,3.5191,3.5191,3.5191,3.5191,3.5191,3.5191,3.5191,3.5191,3.5191,3.5191,3.5191,3.5191,3.5191,3.2361,2.9551,2.6529,2.3511,2.0694,1.786,1.786,1.786,3.3219,3.5604,3.7939,3.7688,3.7412,3.7161,3.7086,3.5906,3.4876,3.4951,3.5353,3.6006,3.7161,3.9471,4.1279,4.1505,4.5347,4.9238,5.1975,5.3783,5.4963,5.534,5.5465,5.5666,5.6043,5.7173,5.7901,5.7901,5.888,5.9483,5.9483,5.9483,5.9483,5.9483,5.9483,5.9533,5.9608,6.0085,6.0663,6.1316,6.1793,6.2295,6.2822,6.2822,6.2822,6.2822,6.247,6.1408,5.9667,5.6573,5.4477,5.2724,4.9911,4.8867,4.8867,4.8867,4.9141,4.9551,4.9668,5.0234,5.0957,5.1308,5.1426,5.1426,5.1426,5.1426,5.1426,5.1426,5.1426,5.1426,5.1426,5.1426,5.1426,5.1426,5.1426,5.1426,5.1426,5.1426,5.1426,5.1426,5.1426,5.1426,5.1426,5.1037,4.9002,4.4127,4.2913,4.0887,3.5809,3.5191,3.5191,3.5191,3.5191,3.5191,3.5191,3.5191,3.5191,3.5191,3.5191,3.5191,3.5191,3.5191,3.5191,3.5191,3.1923,2.8897,2.6529,2.3075,2.0262,1.786,1.786,1.786,3.3847,3.6207,3.7663,3.6282,3.6558,3.7061,3.6584,3.5931,3.5554,3.6006,3.6182,3.7412,4.1254,4.1229,4.1856,4.5522,4.8309,5.082,5.313,5.4913,5.5817,5.544,5.5792,5.5942,5.5541,5.6947,5.7901,5.7901,5.888,5.9483,5.9483,5.9483,5.9483,5.9483,5.9483,5.9709,6.0186,6.0286,6.0839,6.1893,6.1969,6.2295,6.2822,6.2822,6.2822,6.2659,6.0719,6.0719,6.1787,5.5508,5.3948,5.4807,5.0621,4.8867,4.8867,4.8867,4.9141,4.9629,5.0351,5.0937,5.1348,5.1406,5.1426,5.1426,5.1426,5.1426,5.1426,5.1426,5.1426,5.1426,5.1426,5.1426,5.1426,5.1426,5.1426,5.1426,5.1426,5.1426,5.1426,5.1426,5.1426,5.1426,5.1426,4.961,4.6968,4.3723,4.1297,3.8871,3.5599,3.5191,3.5191,3.5191,3.5191,3.5191,3.5191,3.5191,3.5191,3.5191,3.5191,3.5191,3.5191,3.5191,3.5191,3.5191,2.9979,2.6961,2.6529,2.1116,1.8302,1.786,1.786,1.786,3.2491,3.455,3.6332,3.6759,3.8843,4.0701,4.0425,3.9948,3.9371,3.8743,3.8843,3.9848,4.2484,4.3815,4.6175,5.1222,5.19,5.2427,5.4336,5.5013,5.534,5.539,5.5616,5.5892,5.6244,5.7248,5.8027,5.8328,5.9056,5.9483,5.9483,5.9483,5.9483,5.9483,5.9483,5.991,6.0788,6.0788,6.119,6.1994,6.2295,6.2571,6.2822,6.2822,6.2822,6.2659,6.1598,6.1076,6.0553,5.603,5.4125,5.3593,5.0276,4.8867,4.8926,4.9394,4.9707,5.0,5.084,5.1269,5.1426,5.1426,5.1426,5.1426,5.1426,5.1426,5.1426,5.1426,5.1426,5.1426,5.1426,5.1426,5.1426,5.1426,5.1426,5.1426,5.1426,5.1426,5.1426,5.1426,5.1426,5.1426,5.1426,4.9199,4.6569,4.3723,4.1092,3.8248,3.5612,3.5191,3.5191,3.5191,3.5191,3.5191,3.5191,3.5191,3.5191,3.5191,3.5191,3.5191,3.5191,3.5191,3.5191,3.5191,2.9551,2.6529,2.6529,2.0678,1.786,1.786,1.786,1.786,3.2064,3.3696,3.5655,3.8015,4.0526,4.2685,4.3589,4.3187,4.2384,4.163,4.2032,4.2836,4.394,4.6728,5.0293,5.4561,5.416,5.3833,5.5365,5.5214,5.5114,5.5541,5.5591,5.5968,5.6947,5.7549,5.8127,5.8679,5.9207,5.9483,5.9483,5.9483,5.9483,5.9483,5.9608,6.0161,6.1165,6.1316,6.1642,6.2195,6.2621,6.2822,6.2822,6.2822,6.2822,6.2822,6.2306,6.0886,5.9138,5.6226,5.3948,5.2207,4.9748,4.8926,4.9101,4.9785,5.0156,5.041,5.1055,5.1348,5.1426,5.1426,5.1426,5.1426,5.1426,5.1426,5.1426,5.1426,5.1426,5.1426,5.1426,5.1426,5.1426,5.1426,5.1426,5.1426,5.1426,5.1426,5.1426,5.1426,5.1426,5.1426,5.1426,4.8589,4.5753,4.3521,4.0492,3.7652,3.5401,3.5191,3.5191,3.5191,3.5191,3.5191,3.5191,3.5191,3.5191,3.5191,3.5191,3.5191,3.5191,3.5191,3.5191,3.5191,2.9551,2.6529,2.6529,2.0678,1.786,1.786,1.786,1.786,3.4525,3.573,3.691,3.9647,3.9371,3.9371,4.2986,4.2585,4.2007,4.394,4.5196,4.6276,4.7355,4.9891,5.1925,5.2327,5.3557,5.4838,5.5993,5.6118,5.6118,5.6143,5.6143,5.6394,5.6972,5.7549,5.8127,5.8679,5.9207,5.9483,5.9483,5.9483,5.9483,5.9483,5.9985,6.0563,6.1165,6.1692,6.222,6.2772,6.2822,6.2822,6.2822,6.2822,6.2822,6.2659,6.0528,5.9475,5.8969,5.4456,5.2545,5.2207,4.9748,4.9121,4.9492,4.9551,5.0078,5.0781,5.082,5.1113,5.1426,5.1426,5.1426,5.1426,5.1426,5.1426,5.1426,5.1426,5.1426,5.1426,5.1426,5.1426,5.1426,5.1426,5.1426,5.1426,5.1426,5.1426,5.1426,5.1426,5.1426,5.1426,5.1426,4.6968,4.3521,4.3318,3.8856,3.5401,3.5191,3.5191,3.5191,3.5191,3.5191,3.5191,3.5191,3.5191,3.5191,3.5191,3.5191,3.5191,3.5191,3.5191,3.5191,3.5191,2.9551,2.6529,2.6529,2.0678,1.786,1.786,1.786,1.786,3.352,3.5177,3.6885,3.8969,4.0049,4.1605,4.5472,4.6426,4.6702,4.7556,4.8611,4.9515,4.9941,5.2553,5.4436,5.3758,5.4737,5.5742,5.6143,5.6219,5.6219,5.6219,5.6219,5.657,5.7474,5.7775,5.8252,5.9131,5.9382,5.9483,5.9483,5.9483,5.9483,5.9483,6.0035,6.0588,6.1165,6.1718,6.2295,6.2822,6.2822,6.2822,6.2822,6.2822,6.2822,6.2822,6.1952,6.0719,5.8969,5.5856,5.3792,5.2228,5.0046,4.9375,4.959,5.0117,5.0527,5.084,5.1094,5.1308,5.1426,5.1426,5.1426,5.1426,5.1426,5.1426,5.1426,5.1426,5.1426,5.1426,5.1426,5.1426,5.1426,5.1426,5.1426,5.1426,5.1426,5.1426,5.1426,5.1426,5.1426,5.0822,4.9199,4.5753,4.2709,4.1092,3.7638,3.5191,3.5191,3.5191,3.5191,3.5191,3.5191,3.5191,3.5191,3.5191,3.5191,3.5191,3.5191,3.5191,3.5191,3.5191,3.5191,3.5191,2.9551,2.6529,2.6529,2.0678,1.786,1.786,1.786,1.786,3.4173,3.5755,3.7663,3.9672,4.1178,4.3212,4.7255,4.851,4.9213,5.0619,5.1096,5.1498,5.2201,5.3733,5.4838,5.4612,5.5491,5.6219,5.6219,5.6219,5.6219,5.6219,5.6219,5.6671,5.7801,5.7901,5.8353,5.9408,5.9483,5.9483,5.9483,5.9483,5.9483,5.9483,6.0211,6.0788,6.119,6.1893,6.2446,6.2822,6.2822,6.2822,6.2822,6.2822,6.2822,6.2822,6.1952,6.0386,5.8119,5.5705,5.3523,5.1411,5.0092,4.9824,5.0,5.0586,5.0898,5.1035,5.1328,5.1426,5.1426,5.1426,5.1426,5.1426,5.1426,5.1426,5.1426,5.1426,5.1426,5.1426,5.1426,5.1426,5.1426,5.1426,5.1426,5.1426,5.1426,5.1426,5.1426,5.1426,5.1426,5.0608,4.778,4.5151,4.2302,3.9683,3.704,3.5191,3.5191,3.5191,3.5191,3.5191,3.5191,3.5191,3.5191,3.5191,3.5191,3.5191,3.5191,3.5191,3.5191,3.5191,3.5191,3.5191,2.9551,2.6529,2.6529,2.0678,1.786,1.786,1.786,1.786,3.7161,3.799,3.9546,4.2283,4.2585,4.3388,4.7782,4.7933,4.841,5.2804,5.2427,5.1975,5.416,5.3231,5.2678,5.431,5.5491,5.6219,5.6219,5.6219,5.6219,5.6219,5.6219,5.6671,5.7801,5.7901,5.8353,5.9408,5.9483,5.9483,5.9483,5.9483,5.9483,5.9483,6.0588,6.119,6.119,6.227,6.2822,6.2822,6.2822,6.2822,6.2822,6.2822,6.2822,6.2659,6.0362,5.7949,5.5705,5.3437,5.125,4.957,5.0019,5.0449,5.0801,5.0801,5.1074,5.1426,5.1426,5.1426,5.1426,5.1426,5.1426,5.1426,5.1426,5.1426,5.1426,5.1426,5.1426,5.1426,5.1426,5.1426,5.1426,5.1426,5.1426,5.1426,5.1426,5.1426,5.1426,5.1426,5.1426,5.0608,4.778,4.5134,4.2302,3.9683,3.704,3.5191,3.5191,3.5191,3.5191,3.5191,3.5191,3.5191,3.5191,3.5191,3.5191,3.5191,3.5191,3.5191,3.5191,3.5191,3.5191,3.5191,2.9551,2.6529,2.6529,2.0694,1.786,1.786,1.786,1.786,3.4876,3.7387,4.0224,4.1053,4.4342,4.7732,4.9063,4.9088,4.9891,5.3557,5.3934,5.3783,5.4436,5.4787,5.4913,5.4612,5.5491,5.6219,5.6219,5.6219,5.6219,5.6219,5.6545,5.7072,5.7826,5.8252,5.8755,5.9433,5.9483,5.9483,5.9483,5.9483,5.9483,5.9483,6.0588,6.119,6.119,6.227,6.2822,6.2822,6.2822,6.2822,6.2822,6.2822,6.2822,6.2659,6.0362,5.7925,5.5552,5.1858,4.9934,4.959,5.0332,5.0703,5.084,5.1133,5.1328,5.1426,5.1426,5.1426,5.1426,5.1426,5.1426,5.1426,5.1426,5.1426,5.1426,5.1426,5.1426,5.1426,5.1426,5.1426,5.1426,5.1426,5.1426,5.1426,5.1426,5.1426,5.1426,5.1426,5.1426,5.0002,4.5334,4.3925,4.169,3.7026,3.5809,3.5191,3.5191,3.5191,3.5191,3.5191,3.5191,3.5191,3.5191,3.5191,3.5191,3.5191,3.5191,3.5191,3.5191,3.5191,3.4319,3.2148,2.8468,2.5447,2.3511,1.9815,1.786,1.786,1.786,1.786,3.809,4.0777,4.3463,4.4794,4.738,4.9891,5.0971,5.1398,5.2201,5.4436,5.4712,5.4687,5.5139,5.5415,5.5491,5.5265,5.5767,5.6219,5.6219,5.6219,5.6219,5.6219,5.6696,5.7273,5.7851,5.8403,5.893,5.9458,5.9483,5.9483,5.9483,5.9483,5.9583,5.9809,6.0713,6.1291,6.1517,6.2395,6.2822,6.2822,6.2822,6.2822,6.2822,6.2822,6.2822,6.2659,5.933,5.6143,5.302,5.067,4.9883,5.0098,5.0781,5.1055,5.1094,5.1348,5.1426,5.1426,5.1426,5.1426,5.1426,5.1426,5.1426,5.1426,5.1426,5.1426,5.1426,5.1426,5.1426,5.1426,5.1426,5.1426,5.1426,5.1426,5.1426,5.1426,5.1426,5.1426,5.1426,5.1426,5.1426,4.961,4.4329,4.3318,4.1486,3.6019,3.5191,3.5191,3.5191,3.5191,3.5191,3.5191,3.5191,3.5191,3.5191,3.5191,3.5191,3.5191,3.5191,3.5191,3.5191,3.5191,3.3883,3.1059,2.8038,2.5014,2.221,1.9383,1.786,1.786,1.786,1.786,4.379,4.5899,4.7883,5.1021,5.087,5.0645,5.3206,5.4235,5.4787,5.529,5.5039,5.5013,5.6018,5.539,5.5039,5.6043,5.6219,5.6219,5.6219,5.6219,5.6219,5.6269,5.6771,5.7349,5.7926,5.8478,5.8981,5.9458,5.9483,5.9483,5.9483,5.9483,5.9759,6.0311,6.0889,6.1441,6.1994,6.2546,6.2822,6.2822,6.2822,6.2822,6.2822,6.2822,6.252,6.2027,5.7801,5.3558,4.9609,5.0019,5.043,5.084,5.1269,5.1426,5.1426,5.1426,5.1426,5.1426,5.1426,5.1426,5.1426,5.1426,5.1426,5.1426,5.1426,5.1426,5.1426,5.1426,5.1426,5.1426,5.1426,5.1426,5.1426,5.1426,5.1426,5.1426,5.1426,5.1426,5.1426,5.1426,5.1231,4.9395,4.4127,4.3115,4.1092,3.6006,3.5191,3.5191,3.5191,3.5191,3.5191,3.5191,3.5191,3.5191,3.5191,3.5191,3.5191,3.5191,3.5191,3.5191,3.5191,3.5191,3.3672,3.0621,2.7823,2.5014,2.1781,1.9177,1.786,1.786,1.786,1.786,3.8868,4.2961,4.7506,4.9088,5.1172,5.3105,5.4135,5.4813,5.5239,5.5365,5.5641,5.5942,5.6168,5.6018,5.5942,5.6168,5.6219,5.6219,5.6219,5.6219,5.6369,5.6796,5.7374,5.7926,5.8478,5.9006,5.9382,5.9483,5.9483,5.9483,5.9483,5.9483,5.9759,6.0311,6.0889,6.1441,6.1994,6.2546,6.2822,6.2822,6.2822,6.2822,6.2822,6.2822,6.0963,5.7814,5.6384,5.375,5.0039,5.0137,5.043,5.084,5.1269,5.1426,5.1426,5.1426,5.1426,5.1426,5.1426,5.1426,5.1426,5.1426,5.1426,5.1426,5.1426,5.1426,5.1426,5.1426,5.1426,5.1426,5.1426,5.1426,5.1426,5.1426,5.1426,5.1426,5.1426,5.1426,5.1426,5.1426,4.961,4.7167,4.3925,4.1502,3.9063,3.5599,3.5191,3.5191,3.5191,3.5191,3.5191,3.5191,3.5191,3.5191,3.5191,3.5191,3.5191,3.5191,3.5191,3.5191,3.5191,3.5191,3.2798,2.7607,2.6745,2.3937,1.8743,1.8295,1.786,1.786,1.786,1.786,4.0701,4.4292,4.7782,5.0469,5.2628,5.426,5.4838,5.539,5.5792,5.5792,5.6018,5.6219,5.6219,5.6219,5.6219,5.6219,5.6219,5.6219,5.6219,5.6445,5.6721,5.6997,5.7775,5.8403,5.8704,5.9207,5.9483,5.9483,5.9483,5.9483,5.9483,5.9483,5.9885,6.0713,6.104,6.1567,6.2395,6.2697,6.2822,6.2822,6.2822,6.2822,6.2822,6.2822,6.0508,5.6397,5.608,5.374,5.0469,5.0273,5.0547,5.1133,5.1348,5.1426,5.1426,5.1426,5.1426,5.1426,5.1426,5.1426,5.1426,5.1426,5.1426,5.1426,5.1426,5.1426,5.1426,5.1426,5.1426,5.1426,5.1426,5.1426,5.1426,5.1426,5.1426,5.1426,5.1426,5.1426,5.1426,5.1426,4.9199,4.6569,4.3723,4.008,3.6831,3.5401,3.5191,3.5191,3.5191,3.5191,3.5191,3.5191,3.5191,3.5191,3.5191,3.5191,3.5191,3.5191,3.5191,3.5191,3.5191,3.5191,3.2373,2.6529,2.6529,2.372,1.786,1.786,1.786,1.786,1.786,1.7901,4.2861,4.5773,4.8184,5.2603,5.4135,5.4712,5.5265,5.5817,5.6219,5.6219,5.6219,5.6219,5.6219,5.6219,5.6219,5.6219,5.6219,5.6219,5.6219,5.6696,5.7072,5.7173,5.8102,5.8755,5.8855,5.9257,5.9483,5.9483,5.9483,5.9483,5.9483,5.9483,6.001,6.114,6.119,6.1718,6.2822,6.2822,6.2822,6.2822,6.2822,6.2822,6.2822,6.2923,6.0628,5.6509,5.6192,5.3974,5.0879,5.0449,5.0742,5.1426,5.1426,5.1426,5.1426,5.1426,5.1426,5.1426,5.1426,5.1426,5.1426,5.1426,5.1426,5.1426,5.1426,5.1426,5.1426,5.1426,5.1426,5.1426,5.1426,5.1426,5.1426,5.1426,5.1426,5.1426,5.1426,5.1426,5.1426,5.1426,4.8786,4.5753,4.2506,3.8248,3.5191,3.5191,3.5191,3.5191,3.5191,3.5191,3.5191,3.5191,3.5191,3.5191,3.5191,3.5191,3.5191,3.5191,3.5191,3.5191,3.5191,3.5191,3.2373,2.6529,2.6529,2.372,1.786,1.786,1.786,1.786,1.786,1.7948,3.686,4.1957,4.8184,5.2603,5.4135,5.4712,5.5265,5.5817,5.6219,5.6219,5.6219,5.6219,5.6219,5.6219,5.6219,5.6219,5.6219,5.6219,5.6219,5.6696,5.7223,5.7725,5.8328,5.8905,5.9357,5.9458,5.9483,5.9483,5.9483,5.9483,5.9483,5.9483,6.001,6.114,6.119,6.1718,6.2822,6.2822,6.2822,6.2822,6.2822,6.2822,6.2847,6.335,6.1207,5.7022,5.6531,5.4464,5.1308,5.0898,5.0996,5.1426,5.1426,5.1426,5.1426,5.1426,5.1426,5.1426,5.1426,5.1426,5.1426,5.1426,5.1426,5.1426,5.1426,5.1426,5.1426,5.1426,5.1426,5.1426,5.1426,5.1426,5.1426,5.1426,5.1426,5.1426,5.1426,5.1426,5.1426,5.1426,4.7365,4.2302,3.7235,3.5599,3.5191,3.5191,3.5191,3.5191,3.5191,3.5191,3.5191,3.5191,3.5191,3.5191,3.5191,3.5191,3.5191,3.5191,3.5191,3.5191,3.5191,3.5191,3.2373,2.6529,2.6529,2.372,1.786,1.786,1.786,1.786,1.786,1.7948,3.8592,4.3564,4.8636,5.308,5.4386,5.4787,5.5641,5.6043,5.6219,5.6219,5.6219,5.6219,5.6219,5.6219,5.6219,5.6219,5.6219,5.6319,5.662,5.7173,5.7725,5.8303,5.883,5.9257,5.9483,5.9483,5.9483,5.9483,5.9483,5.9483,5.9483,5.9784,6.0337,6.1165,6.1492,6.2019,6.2822,6.2822,6.2822,6.2822,6.2822,6.2822,6.2847,6.3425,6.1304,5.7112,5.6911,5.4804,5.1406,5.0976,5.1055,5.1426,5.1426,5.1426,5.1426,5.1426,5.1426,5.1426,5.1426,5.1426,5.1426,5.1426,5.1426,5.1426,5.1426,5.1426,5.1426,5.1426,5.1426,5.1426,5.1426,5.1426,5.1426,5.1426,5.1426,5.1426,5.1426,5.0217,4.8194,4.5151,4.2709,3.9874,3.5809,3.5191,3.5191,3.5191,3.5191,3.5191,3.5191,3.5191,3.5191,3.5191,3.5191,3.5191,3.5191,3.5191,3.5191,3.5191,3.5191,3.5191,3.5191,3.5191,3.2373,2.6529,2.6529,2.372,1.786,1.786,1.786,1.786,1.786,1.7989,3.9597,4.3413,4.6652,5.1975,5.3532,5.416,5.5842,5.6219,5.6219,5.6219,5.6219,5.6219,5.6219,5.6219,5.6219,5.6219,5.6219,5.6394,5.6947,5.7524,5.8102,5.8654,5.9182,5.9483,5.9483,5.9483,5.9483,5.9483,5.9483,5.9483,5.9483,6.001,6.0588,6.1165,6.1718,6.227,6.2822,6.2822,6.2822,6.2822,6.2822,6.2898,6.3073,6.2937,6.0959,5.7335,5.7514,5.5102,5.1406,5.1094,5.1152,5.1426,5.1426,5.1426,5.1426,5.1426,5.1426,5.1426,5.1426,5.1426,5.1426,5.1426,5.1426,5.1426,5.1426,5.1426,5.1426,5.1426,5.1426,5.1426,5.1426,5.1426,5.1426,5.1426,5.1426,5.1231,5.0608,4.8786,4.5753,4.0286,3.927,3.8456,3.5599,3.5191,3.5191,3.5191,3.5191,3.5191,3.5191,3.5191,3.5191,3.5191,3.5191,3.5191,3.5191,3.5191,3.5191,3.5191,3.5191,3.5191,3.5191,3.5191,3.2373,2.6529,2.6529,2.372,1.786,1.786,1.786,1.786,1.7901,1.8057,3.6107,3.799,4.035,4.7958,5.0645,5.2277,5.5491,5.6219,5.6219,5.6219,5.6219,5.6219,5.6219,5.6219,5.6219,5.6219,5.6219,5.6394,5.6947,5.7524,5.8102,5.8654,5.9182,5.9483,5.9483,5.9483,5.9483,5.9483,5.9483,5.9483,5.9483,6.001,6.0588,6.1165,6.1718,6.227,6.2822,6.2822,6.2822,6.2822,6.2822,6.3124,6.3651,6.1862,5.989,5.803,5.803,5.5421,5.1426,5.1406,5.1406,5.1426,5.1426,5.1426,5.1426,5.1426,5.1426,5.1426,5.1426,5.1426,5.1426,5.1426,5.1426,5.1426,5.1426,5.1426,5.1426,5.1426,5.1426,5.1426,5.1426,5.1426,5.1426,5.1426,5.1426,5.0627,4.8194,4.7582,4.5753,4.0286,3.927,3.8456,3.5599,3.5191,3.5191,3.5191,3.5191,3.5191,3.5191,3.5191,3.5191,3.5191,3.5191,3.5191,3.5191,3.5191,3.5191,3.5191,3.5191,3.5191,3.5191,3.5191,3.2373,2.6529,2.6529,2.372,1.786,1.786,1.786,1.786,1.8002,1.8165,3.5077,3.6784,3.8919,4.492,4.8309,5.0795,5.3055,5.4938,5.6219,5.6219,5.6219,5.6219,5.6219,5.6219,5.6219,5.6219,5.6219,5.652,5.7474,5.7775,5.8227,5.9106,5.9382,5.9483,5.9483,5.9483,5.9483,5.9483,5.9483,5.9483,5.9483,6.0362,6.0964,6.1165,6.2069,6.2621,6.2822,6.2822,6.2822,6.2822,6.2822,6.2948,6.3174,6.3167,6.0995,5.7447,5.8276,5.5906,5.1426,5.1426,5.1426,5.1426,5.1426,5.1426,5.1426,5.1426,5.1426,5.1426,5.1426,5.1426,5.1426,5.1426,5.1426,5.1426,5.1426,5.1426,5.1426,5.1426,5.1426,5.1426,5.1426,5.1426,5.1426,5.1426,5.1426,5.0627,4.7978,4.5953,4.3723,4.008,3.7846,3.6425,3.5401,3.5191,3.5191,3.5191,3.5191,3.5191,3.5191,3.5191,3.5191,3.5191,3.5191,3.5191,3.5191,3.5191,3.5191,3.5191,3.5191,3.5191,3.5191,3.3447,3.0632,2.6529,2.4589,2.1781,1.786,1.786,1.786,1.786,1.8023,1.8179,3.3381,3.4826,3.701,4.2007,4.492,4.7581,5.1498,5.3507,5.4863,5.5993,5.6219,5.6219,5.6219,5.6219,5.6219,5.6219,5.6369,5.6821,5.775,5.8052,5.8504,5.9382,5.9483,5.9483,5.9483,5.9483,5.9483,5.9483,5.9483,5.9483,5.9483,6.0563,6.1366,6.1718,6.2446,6.2822,6.2822,6.2822,6.2822,6.2822,6.2822,6.3023,6.34,6.3241,6.1264,5.767,5.7607,5.5304,5.1426,5.1426,5.1426,5.1426,5.1426,5.1426,5.1426,5.1426,5.1426,5.1426,5.1426,5.1426,5.1426,5.1426,5.1426,5.1426,5.1426,5.1426,5.1426,5.1426,5.1426,5.1426,5.1426,5.1426,5.1426,5.1426,5.1426,5.0627,4.7978,4.5151,4.2506,3.9874,3.7026,3.5191,3.5191,3.5191,3.5191,3.5191,3.5191,3.5191,3.5191,3.5191,3.5191,3.5191,3.5191,3.5191,3.5191,3.5191,3.5191,3.5191,3.5191,3.5191,3.5191,3.2361,2.954,2.6529,2.3729,2.0701,1.786,1.786,1.7901,1.7948,1.8091,1.8267,0.0,0.0,0.0,3.9069,4.035,4.2585,5.072,5.1825,5.2076,5.5415,5.6093,5.6118,5.6194,5.6219,5.6219,5.6219,5.6671,5.7223,5.7801,5.8353,5.8905,5.9433,5.9483,5.9483,5.9483,5.9483,5.9483,5.9483,5.9483,5.9483,5.9483,6.0563,6.1692,6.2797,6.2822,6.2822,6.2822,6.2822,6.2822,6.2822,6.2822,6.34,6.4429,6.1958,6.0193,5.8608,5.6221,5.3828,5.1426,5.1426,5.1426,5.1426,5.1426,5.1426,5.1426,5.1426,5.1426,5.1426,5.1426,5.1426,5.1426,5.1426,5.1426,5.1426,5.1426,5.1426,5.1426,5.1426,5.1426,5.1426,5.1426,5.1426,5.1426,5.1426,5.1426,5.0627,4.7978,4.5151,4.2506,3.9874,3.7026,3.5191,3.5191,3.5191,3.5191,3.5191,3.5191,3.5191,3.5191,3.5191,3.5191,3.5191,3.5191,3.5191,3.5191,3.5191,3.5191,3.5191,3.5191,3.5191,3.498,3.2361,2.9326,2.6529,2.3502,2.0694,1.786,1.786,1.7935,1.8091,1.8247,1.8477,3.1185,0.0,0.0,0.0,0.0,0.0,4.3664,4.6175,4.8736,5.2477,5.3231,5.3858,5.5842,5.6219,5.6219,5.6219,5.6344,5.6771,5.775,5.8027,5.8453,5.9382,5.9483,5.9483,5.9483,5.9483,5.9483,5.9483,5.9483,5.9483,5.9483,6.0563,6.1692,6.2797,6.2822,6.2822,6.2822,6.2822,6.2822,6.2822,6.2822,6.3199,6.3927,6.3583,6.1628,5.8117,5.7924,5.5304,5.1426,5.1426,5.1426,5.1426,5.1426,5.1426,5.1426,5.1426,5.1426,5.1426,5.1426,5.1426,5.1426,5.1426,5.1426,5.1426,5.1426,5.1426,5.1426,5.1426,5.1426,5.1426,5.1426,5.1426,5.1426,5.1426,5.1426,5.0627,4.7978,4.5151,4.2506,3.9874,3.7026,3.5191,3.5191,3.5191,3.5191,3.5191,3.5191,3.5191,3.5191,3.5191,3.5191,3.5191,3.5191,3.5191,3.5191,3.5191,3.5191,3.5191,3.5191,3.4319,3.2148,2.9326,2.6313,2.3511,2.0474,1.8736,1.786,1.786,1.7935,1.8091,1.8355,1.8586,3.2046,3.1873,3.234,3.3345,0.0,0.0,4.261,4.4895,4.7456,5.2729,5.3808,5.431,5.5917,5.6219,5.6219,5.6219,5.6219,5.652,5.7424,5.7951,5.8478,5.9106,5.9357,5.9483,5.9483,5.9483,5.9483,5.9483,5.9483,5.9709,6.0161,6.0839,6.1692,6.2797,6.2822,6.2822,6.2822,6.2822,6.2822,6.2822,6.2822,6.3249,6.4028,6.4329,6.2196,5.8411,5.8679,5.6055,5.1426,5.1426,5.1426,5.1426,5.1426,5.1426,5.1426,5.1426,5.1426,5.1426,5.1426,5.1426,5.1426,5.1426,5.1426,5.1426,5.1426,5.1426,5.1426,5.1426,5.1426,5.1426,5.1426,5.1426,5.1426,5.1426,5.1426,5.0413,4.6552,4.4329,4.2506,3.9874,3.7026,3.5191,3.5191,3.5191,3.5191,3.5191,3.5191,3.5191,3.5191,3.5191,3.5191,3.5191,3.5191,3.5191,3.5191,3.5191,3.5191,3.5191,3.5191,3.3883,3.1059,2.8038,2.5231,2.2219,1.9383,1.7901,1.7948,1.7948,1.8077,1.8287,1.8511,1.8674,3.3571,3.3183,3.382,3.4951,3.4675,0.0,4.389,4.5045,4.6401,5.3155,5.4561,5.4687,5.5114,5.5214,5.5214,5.529,5.5541,5.6068,5.6922,5.7951,5.8654,5.8704,5.9182,5.9483,5.9483,5.9483,5.9483,5.9483,5.9483,5.9985,6.1115,6.119,6.1692,6.2797,6.2822,6.2822,6.2822,6.2822,6.2822,6.2822,6.2898,6.3475,6.4479,6.4337,6.2239,5.8814,5.8447,5.568,5.1426,5.1426,5.1426,5.1426,5.1426,5.1426,5.1426,5.1426,5.1426,5.1426,5.1426,5.1426,5.1426,5.1426,5.1426,5.1426,5.1426,5.1426,5.1426,5.1426,5.1426,5.1426,5.1426,5.1426,5.1426,5.1426,5.1231,4.9591,4.4329,4.3115,4.2099,3.927,3.6831,3.5191,3.5191,3.5191,3.5191,3.5191,3.5191,3.5191,3.5191,3.5191,3.5191,3.5191,3.5191,3.5191,3.5191,3.5191,3.5191,3.5191,3.5191,3.3672,3.0621,2.7823,2.5014,2.1781,1.9177,1.7948,1.8111,1.8111,1.8267,1.8531,1.8694,1.8762,3.7373,3.6369,3.6113,3.4059,3.4399,0.0,3.6282,3.7362,3.9346,4.3413,4.4242,4.5196,4.8335,4.8912,4.9038,4.9464,5.1423,5.3858,5.6646,5.7625,5.8227,5.8679,5.9182,5.9483,5.9483,5.9483,5.9483,5.9483,5.9483,5.9985,6.1115,6.119,6.1692,6.2797,6.2822,6.2822,6.2822,6.2822,6.2822,6.2847,6.3299,6.3852,6.4479,6.2934,6.0945,5.863,5.6781,5.4189,5.1426,5.1426,5.1426,5.1426,5.1426,5.1426,5.1426,5.1426,5.1426,5.1426,5.1426,5.1426,5.1426,5.1426,5.1426,5.1426,5.1426,5.1426,5.1426,5.1426,5.1426,5.1426,5.1426,5.1426,5.1426,5.1426,4.9806,4.7365,4.3925,4.1706,3.927,3.6621,3.5612,3.5191,3.5191,3.5191,3.5191,3.5191,3.5191,3.5191,3.5191,3.5191,3.5191,3.5191,3.5191,3.5191,3.5191,3.5191,3.5191,3.5191,3.5191,3.2798,2.7607,2.6745,2.4155,1.8743,1.8295,1.8002,1.8267,1.8267,1.8355,1.8531,1.8694,1.8762,3.9369,3.8167,3.7806,3.6025,3.5775,0.0,0.0,3.7613,3.8894,4.3313,4.3564,4.374,4.625,4.6502,4.6476,4.7029,4.969,5.1875,5.2402,5.5365,5.7675,5.8252,5.878,5.9207,5.9458,5.9483,5.9483,5.9483,5.9483,5.9985,6.1115,6.119,6.1692,6.2797,6.2822,6.2822,6.2822,6.2822,6.2822,6.2847,6.3425,6.3977,6.4479,6.2514,6.0504,5.863,5.6221,5.3638,5.1426,5.1426,5.1426,5.1426,5.1426,5.1426,5.1426,5.1426,5.1426,5.1426,5.1426,5.1426,5.1426,5.1426,5.1426,5.1426,5.1426,5.1426,5.1426,5.1426,5.1426,5.1426,5.1426,5.1426,5.1426,5.1426,4.9395,4.6569,4.3925,4.1092,3.8456,3.5809,3.5191,3.5191,3.5191,3.5191,3.5191,3.5191,3.5191,3.5191,3.5191,3.5191,3.5191,3.5191,3.5191,3.5191,3.5191,3.5191,3.5191,3.5191,3.3883,3.1071,2.6745,2.5014,2.2412,1.8088,1.7935,1.8091,1.8321,1.8389,1.8498,1.8654,1.8728,1.8762,4.1449,4.0262,4.0055,3.8765,3.7927,3.7847,0.0,0.0,0.0,4.3966,4.374,4.3087,4.4317,4.4091,4.394,4.4593,4.7405,4.8912,4.7205,5.1674,5.5415,5.6194,5.7725,5.8704,5.8704,5.8604,5.8805,5.9433,5.8905,5.9282,6.0939,6.1115,6.1642,6.2647,6.2772,6.2822,6.2822,6.2822,6.2822,6.2847,6.3525,6.4053,6.4479,6.2065,6.024,5.863,5.5659,5.3275,5.1426,5.1426,5.1426,5.1426,5.1426,5.1426,5.1426,5.1426,5.1426,5.1426,5.1426,5.1426,5.1426,5.1426,5.1426,5.1426,5.1426,5.1426,5.1426,5.1426,5.1426,5.1426,5.1426,5.1426,5.1426,5.1426,4.9002,4.5953,4.3723,4.0682,3.7846,3.5599,3.5191,3.5191,3.5191,3.5191,3.5191,3.5191,3.5191,3.5191,3.5191,3.5191,3.5191,3.5191,3.5191,3.5191,3.5191,3.5191,3.5191,3.5191,3.2573,2.9551,2.6529,2.3293,2.0262,1.7867,1.8023,1.8165,1.8321,1.8464,1.8599,1.8762,1.8762,1.8762,4.583,4.4662,4.4562,4.0725,4.0086,3.9627,3.6823,0.0,3.5504,3.6634,0.0,3.6332,3.7939,0.0,0.0,3.8793,4.1329,4.3263,4.3514,4.625,4.8837,5.0368,5.539,5.7951,5.6043,5.5415,5.6344,5.9282,5.6771,5.6671,6.0236,6.0914,6.1466,6.2069,6.2571,6.2822,6.2822,6.2822,6.2822,6.2847,6.3877,6.4404,6.4312,6.0837,5.893,5.863,5.3828,5.162,5.1426,5.1426,5.1426,5.1426,5.1426,5.1426,5.1426,5.1426,5.1426,5.1426,5.1426,5.1426,5.1426,5.1426,5.1426,5.1426,5.1426,5.1426,5.1426,5.1426,5.1426,5.1426,5.1426,5.1426,5.1426,5.1426,4.7564,4.3723,4.3318,3.927,3.5612,3.5191,3.5191,3.5191,3.5191,3.5191,3.5191,3.5191,3.5191,3.5191,3.5191,3.5191,3.5191,3.5191,3.5191,3.5191,3.5191,3.5191,3.5191,3.5191,3.2573,2.9551,2.6529,2.1335,1.8295,1.786,1.8023,1.8165,1.8321,1.8464,1.8599,1.8762,1.8762,1.8762,4.6343,4.6757,4.7457,4.2594,4.2036,4.1677,3.7414,3.5043,3.4198,3.5705,0.0,0.0,0.0,0.0,0.0,0.0,3.9647,4.1304,4.0249,4.389,4.728,4.8912,5.1096,5.3105,5.4737,5.4988,5.6294,5.9282,5.6721,5.6595,6.0136,6.0864,6.1441,6.1994,6.2546,6.2822,6.2822,6.2822,6.2822,6.2847,6.3626,6.3459,6.2324,5.9513,5.7813,5.6408,5.2912,5.1426,5.1426,5.1426,5.1426,5.1426,5.1426,5.1426,5.1426,5.1426,5.1426,5.1426,5.1426,5.1426,5.1426,5.1426,5.1426,5.1426,5.1426,5.1426,5.1426,5.1426,5.1426,5.1426,5.1426,5.1426,5.1037,4.9414,4.6153,4.2913,4.1297,3.7846,3.5191,3.5191,3.5191,3.5191,3.5191,3.5191,3.5191,3.5191,3.5191,3.5191,3.5191,3.5191,3.5191,3.5191,3.5191,3.5191,3.5191,3.5191,3.4544,3.2798,2.8468,2.4589,2.1554,1.9177,1.7901,1.7989,1.8145,1.8301,1.8443,1.8586,1.8694,1.8762,1.8762,1.8762,4.8327,4.9075,4.9699,4.4033,4.3197,4.2649,3.851,3.5817,3.4666,3.6447,3.5814,0.0,0.0,0.0,3.6132,3.6533,0.0,3.9647,3.8015,4.1254,4.4418,4.61,4.6853,4.8812,5.2804,5.2879,5.421,5.7876,5.5591,5.5792,5.9885,6.0638,6.119,6.1768,6.232,6.2672,6.2822,6.2822,6.2822,6.2847,6.3425,6.2707,6.0726,5.8927,5.688,5.4926,5.2527,5.1426,5.1426,5.1426,5.1426,5.1426,5.1426,5.1426,5.1426,5.1426,5.1426,5.1426,5.1426,5.1426,5.1426,5.1426,5.1426,5.1426,5.1426,5.1426,5.1426,5.1426,5.1426,5.1426,5.1426,5.1426,5.0627,4.7996,4.5352,4.2506,3.9874,3.7235,3.5191,3.5191,3.5191,3.5191,3.5191,3.5191,3.5191,3.5191,3.5191,3.5191,3.5191,3.5191,3.5191,3.5191,3.5191,3.5191,3.5191,3.5191,3.3672,2.9979,2.5023,2.0905,1.8088,1.7901,1.7989,1.8091,1.8287,1.8423,1.8531,1.8694,1.8762,1.8762,1.8762,1.8762,5.3743,5.2516,5.1528,4.4893,4.3025,4.2103,3.9269,3.7812,3.719,3.7847,3.7903,3.7889,3.7939,3.7513,3.7136,3.7161,3.7236,0.0,0.0,3.7362,3.809,3.9798,4.3288,4.6677,4.949,4.7355,4.8284,5.4285,5.2151,5.3181,5.9207,6.006,6.0613,6.119,6.1743,6.2295,6.2822,6.2822,6.2822,6.2847,6.3425,6.2707,6.0726,5.8927,5.688,5.4926,5.2527,5.1426,5.1426,5.1426,5.1426,5.1426,5.1426,5.1426,5.1426,5.1426,5.1426,5.1426,5.1426,5.1426,5.1426,5.1426,5.1426,5.1426,5.1426,5.1426,5.1426,5.1426,5.1426,5.1426,5.1426,5.1426,5.0627,4.7996,4.5352,4.2506,3.9874,3.7235,3.5191,3.5191,3.5191,3.5191,3.5191,3.5191,3.5191,3.5191,3.5191,3.5191,3.5191,3.5191,3.5191,3.5191,3.5191,3.5191,3.5191,3.5191,3.2798,2.6961,2.3937,2.0905,1.8088,1.8002,1.8091,1.8091,1.8375,1.8531,1.8531,1.8694,1.8762,1.8762,1.8762,1.8762,5.6047,5.7214,5.7274,4.9763,4.8614,4.7666,4.155,3.9192,3.8254,3.8069,3.8357,3.8467,3.8065,3.7839,3.7739,3.7739,3.7412,3.7061,0.0,3.6659,3.7111,3.8417,4.2007,4.4869,4.6175,4.7782,5.0368,5.426,5.4034,5.539,5.9282,6.001,6.0588,6.1165,6.1718,6.227,6.2822,6.2822,6.2822,6.2822,6.3023,6.1473,5.8379,5.7671,5.5656,5.2527,5.1794,5.1426,5.1426,5.1426,5.1426,5.1426,5.1426,5.1426,5.1426,5.1426,5.1426,5.1426,5.1426,5.1426,5.1426,5.1426,5.1426,5.1426,5.1426,5.1426,5.1426,5.1426,5.1426,5.1426,5.1426,5.0021,4.7978,4.5334,4.2709,3.9874,3.7235,3.5809,3.5191,3.5191,3.5191,3.5191,3.5191,3.5191,3.5191,3.5191,3.5191,3.5191,3.5191,3.5191,3.5191,3.5191,3.5191,3.5191,3.5191,3.1722,2.8682,2.6529,2.1983,1.8949,1.7867,1.8002,1.8145,1.8233,1.8423,1.8586,1.8694,1.8742,1.8762,1.8762,1.8762,1.8762,5.9189,6.0446,6.0475,5.3683,5.2744,5.1718,4.4995,4.3008,4.2371,4.1863,4.0852,4.0645,4.216,4.0414,3.8793,3.9396,3.8341,3.7211,0.0,3.6383,3.6784,3.7864,4.04,4.2635,4.4192,4.5522,4.851,5.3858,5.3507,5.4938,5.9257,5.9834,6.0286,6.0864,6.1416,6.1969,6.2521,6.2722,6.2306,6.1598,6.247,6.0411,5.5875,5.6776,5.4953,5.1426,5.1426,5.1426,5.1426,5.1426,5.1426,5.1426,5.1426,5.1426,5.1426,5.1426,5.1426,5.1426,5.1426,5.1426,5.1426,5.1426,5.1426,5.1426,5.1426,5.1426,5.1426,5.1426,5.1426,5.1426,5.1426,4.9414,4.6769,4.3925,4.1297,3.8456,3.5809,3.5191,3.5191,3.5191,3.5191,3.5191,3.5191,3.5191,3.5191,3.5191,3.5191,3.5191,3.5191,3.5191,3.5191,3.5191,3.5191,3.4755,3.3672,2.9337,2.6097,2.5014,2.0466,1.786,1.786,1.8057,1.8213,1.8321,1.8511,1.8654,1.8762,1.8762,1.8762,1.8762,1.8762,1.8762]},{"header":{"parameterUnit":"m.s-1","parameterCategory":1,"la1":30.6,"la2":29.2853,"lo1":-89.7004,"lo2":-87.6739,"dx":0.0162,"dy":0.0183,"nx":112,"ny":82,"refTime":"2022-12-12T18:00:00:Z","depth":0,"parameterNumber":3,"parameterNumberName":"V-component_of_WINDS"},"data":[0.0,0.0,0.0,0.0,0.0,0.0,0.0,0.0,0.0,0.0,0.0,0.0,0.0,0.0,0.0,0.0,0.0,0.0,0.0,0.0,0.0,0.0,0.0,0.0,0.0,0.0,0.0,0.0,0.0,0.0,0.0,0.0,0.0,0.0,0.0,0.0,0.0,0.0,0.0,0.0,0.0,0.0,0.0,0.0,0.0,0.0,0.0,0.0,0.0,0.0,0.0,0.0,0.0,0.0,0.0,0.0,0.0,0.0,0.0,0.0,0.0,0.0,0.0,0.0,0.0,0.0,0.0,0.0,0.0,0.0,0.0,0.0,0.0,0.0,0.0,0.0,0.0,0.0,0.0,0.0,0.0,0.0,0.0,0.0,0.0,0.0,0.0,0.0,0.0,0.0,-4.8342,-5.0845,-5.4093,-5.6055,-5.6055,-5.6055,-5.3788,-4.8443,0.0,0.0,0.0,0.0,0.0,0.0,0.0,0.0,0.0,0.0,0.0,0.0,0.0,0.0,0.0,0.0,0.0,0.0,0.0,0.0,0.0,0.0,0.0,0.0,0.0,0.0,0.0,0.0,0.0,0.0,0.0,0.0,0.0,0.0,0.0,0.0,0.0,0.0,0.0,0.0,0.0,0.0,0.0,0.0,0.0,0.0,0.0,0.0,0.0,0.0,0.0,0.0,0.0,0.0,0.0,0.0,0.0,0.0,0.0,0.0,0.0,0.0,0.0,0.0,0.0,0.0,0.0,0.0,0.0,0.0,0.0,0.0,0.0,0.0,0.0,0.0,0.0,0.0,0.0,0.0,0.0,0.0,0.0,0.0,0.0,0.0,0.0,0.0,0.0,0.0,0.0,0.0,0.0,0.0,0.0,0.0,0.0,0.0,0.0,0.0,0.0,0.0,0.0,0.0,-4.7834,-5.5006,-5.6833,-5.7577,-5.7577,-5.7577,-5.5074,-4.9221,0.0,0.0,0.0,0.0,0.0,0.0,0.0,0.0,0.0,0.0,0.0,0.0,0.0,0.0,0.0,0.0,0.0,0.0,0.0,0.0,0.0,0.0,0.0,0.0,0.0,0.0,0.0,0.0,0.0,0.0,0.0,0.0,0.0,0.0,0.0,0.0,0.0,0.0,0.0,0.0,0.0,0.0,0.0,0.0,0.0,0.0,0.0,0.0,0.0,0.0,0.0,0.0,0.0,0.0,0.0,0.0,0.0,0.0,0.0,0.0,0.0,0.0,0.0,0.0,0.0,0.0,0.0,0.0,0.0,0.0,0.0,0.0,0.0,0.0,0.0,0.0,0.0,0.0,0.0,0.0,0.0,0.0,0.0,0.0,0.0,0.0,0.0,0.0,0.0,0.0,0.0,0.0,0.0,0.0,0.0,0.0,0.0,0.0,0.0,0.0,0.0,0.0,0.0,-4.7665,-5.098,-5.6765,-5.7679,-5.7881,-5.7881,-5.7881,-5.5344,-4.939,-4.868,0.0,0.0,0.0,0.0,0.0,0.0,0.0,0.0,0.0,0.0,0.0,0.0,0.0,0.0,0.0,0.0,0.0,0.0,0.0,0.0,0.0,0.0,0.0,0.0,0.0,0.0,0.0,0.0,0.0,0.0,0.0,0.0,0.0,0.0,0.0,0.0,0.0,0.0,0.0,0.0,0.0,0.0,0.0,0.0,0.0,0.0,0.0,0.0,0.0,0.0,0.0,0.0,0.0,0.0,0.0,0.0,0.0,0.0,0.0,0.0,0.0,0.0,0.0,0.0,0.0,0.0,0.0,0.0,0.0,0.0,0.0,0.0,0.0,0.0,0.0,0.0,0.0,0.0,0.0,0.0,0.0,0.0,0.0,0.0,0.0,0.0,0.0,0.0,0.0,0.0,0.0,0.0,0.0,0.0,0.0,0.0,0.0,0.0,0.0,0.0,0.0,0.0,-5.23,-5.4702,-5.7577,-5.7881,-5.7881,-5.7881,-5.7881,-5.5412,-4.9627,-4.9086,0.0,0.0,0.0,0.0,0.0,0.0,0.0,0.0,0.0,0.0,0.0,0.0,0.0,0.0,0.0,0.0,0.0,0.0,0.0,0.0,0.0,0.0,0.0,0.0,0.0,0.0,0.0,0.0,0.0,0.0,0.0,0.0,0.0,0.0,0.0,0.0,0.0,0.0,0.0,0.0,0.0,0.0,0.0,0.0,0.0,0.0,0.0,0.0,0.0,0.0,0.0,0.0,0.0,0.0,0.0,0.0,0.0,0.0,0.0,0.0,0.0,0.0,0.0,0.0,0.0,0.0,0.0,0.0,0.0,0.0,0.0,0.0,0.0,0.0,0.0,0.0,0.0,0.0,0.0,0.0,0.0,0.0,0.0,0.0,0.0,0.0,0.0,0.0,0.0,0.0,0.0,0.0,0.0,0.0,0.0,0.0,0.0,0.0,0.0,0.0,0.0,0.0,-5.3619,-5.7611,-5.7848,-5.7881,-5.7881,-5.7881,-5.7881,-5.5649,-5.0338,-4.939,0.0,0.0,0.0,0.0,0.0,0.0,0.0,0.0,0.0,0.0,0.0,0.0,0.0,0.0,0.0,0.0,0.0,0.0,0.0,0.0,0.0,0.0,0.0,0.0,0.0,0.0,0.0,0.0,0.0,0.0,0.0,0.0,0.0,0.0,0.0,0.0,0.0,0.0,0.0,0.0,0.0,0.0,0.0,0.0,0.0,0.0,0.0,0.0,0.0,0.0,0.0,0.0,0.0,0.0,0.0,0.0,0.0,0.0,0.0,0.0,0.0,0.0,0.0,0.0,0.0,0.0,0.0,0.0,0.0,0.0,0.0,0.0,0.0,0.0,0.0,0.0,0.0,0.0,0.0,0.0,0.0,0.0,0.0,0.0,0.0,0.0,0.0,0.0,0.0,0.0,0.0,0.0,0.0,0.0,0.0,0.0,0.0,0.0,0.0,0.0,0.0,0.0,-5.2807,-5.6528,-5.8389,-5.8998,-5.9268,-5.9268,-5.9268,-5.6833,-5.115,0.0,0.0,0.0,0.0,0.0,0.0,0.0,0.0,0.0,0.0,0.0,0.0,0.0,0.0,0.0,0.0,0.0,0.0,0.0,0.0,0.0,0.0,0.0,0.0,0.0,0.0,0.0,0.0,0.0,0.0,0.0,0.0,0.0,0.0,0.0,0.0,0.0,0.0,0.0,0.0,0.0,0.0,0.0,0.0,0.0,0.0,0.0,0.0,0.0,0.0,0.0,0.0,0.0,0.0,0.0,0.0,0.0,0.0,0.0,0.0,0.0,0.0,0.0,0.0,0.0,0.0,0.0,0.0,0.0,0.0,0.0,0.0,0.0,0.0,0.0,0.0,0.0,0.0,0.0,0.0,0.0,0.0,0.0,0.0,0.0,0.0,0.0,0.0,0.0,0.0,0.0,0.0,0.0,0.0,0.0,0.0,0.0,0.0,0.0,0.0,0.0,0.0,-4.8883,-5.345,-5.7103,-5.9133,-5.981,-6.0114,-6.0114,-6.0114,-5.7543,-5.1589,0.0,0.0,0.0,0.0,0.0,0.0,0.0,0.0,0.0,0.0,0.0,0.0,0.0,0.0,0.0,0.0,0.0,0.0,0.0,0.0,0.0,0.0,0.0,0.0,0.0,0.0,0.0,0.0,0.0,0.0,0.0,0.0,0.0,0.0,0.0,0.0,0.0,0.0,0.0,0.0,0.0,0.0,0.0,0.0,0.0,0.0,0.0,0.0,0.0,0.0,0.0,0.0,0.0,0.0,0.0,0.0,0.0,0.0,0.0,0.0,0.0,0.0,0.0,0.0,0.0,0.0,0.0,0.0,0.0,0.0,0.0,0.0,0.0,0.0,0.0,0.0,0.0,0.0,0.0,0.0,0.0,0.0,0.0,0.0,0.0,0.0,0.0,0.0,0.0,0.0,0.0,0.0,0.0,0.0,0.0,0.0,0.0,0.0,0.0,0.0,0.0,0.0,-4.9898,-5.5953,-6.0114,-6.0114,-6.0148,-6.0148,-6.0148,-6.0148,-5.7577,0.0,0.0,0.0,0.0,0.0,0.0,0.0,0.0,0.0,0.0,0.0,0.0,0.0,0.0,0.0,0.0,0.0,0.0,0.0,0.0,0.0,0.0,0.0,0.0,0.0,0.0,0.0,0.0,0.0,0.0,0.0,0.0,0.0,0.0,0.0,0.0,0.0,0.0,0.0,0.0,0.0,0.0,0.0,0.0,0.0,0.0,0.0,0.0,0.0,0.0,0.0,0.0,0.0,0.0,0.0,0.0,0.0,0.0,0.0,0.0,0.0,0.0,0.0,0.0,0.0,0.0,0.0,0.0,0.0,0.0,0.0,0.0,0.0,0.0,0.0,0.0,0.0,0.0,0.0,0.0,0.0,0.0,0.0,0.0,0.0,0.0,0.0,0.0,0.0,0.0,0.0,0.0,0.0,0.0,0.0,0.0,0.0,0.0,0.0,0.0,0.0,0.0,0.0,-5.0642,-5.6765,-6.096,-6.096,-6.1873,-6.2313,-6.1772,-6.2212,-5.9505,-5.2435,0.0,0.0,0.0,0.0,0.0,0.0,0.0,0.0,0.0,0.0,0.0,0.0,0.0,0.0,0.0,0.0,0.0,0.0,0.0,0.0,0.0,0.0,0.0,0.0,0.0,0.0,0.0,0.0,0.0,0.0,0.0,0.0,0.0,0.0,0.0,0.0,0.0,0.0,0.0,0.0,0.0,0.0,0.0,0.0,0.0,0.0,0.0,0.0,0.0,0.0,0.0,0.0,0.0,0.0,0.0,0.0,0.0,0.0,0.0,0.0,0.0,0.0,0.0,0.0,0.0,0.0,0.0,0.0,0.0,0.0,0.0,0.0,0.0,0.0,0.0,0.0,0.0,0.0,0.0,0.0,0.0,0.0,0.0,0.0,0.0,0.0,0.0,0.0,0.0,0.0,0.0,0.0,0.0,0.0,0.0,0.0,0.0,0.0,0.0,0.0,0.0,0.0,-5.1826,-5.8017,-6.2313,-6.2584,-6.3429,-6.3768,-6.3328,-6.37,-6.1366,-5.5344,0.0,0.0,0.0,0.0,0.0,0.0,0.0,0.0,0.0,0.0,0.0,0.0,0.0,0.0,0.0,0.0,0.0,0.0,0.0,0.0,0.0,0.0,0.0,0.0,0.0,0.0,0.0,0.0,0.0,0.0,0.0,0.0,0.0,0.0,0.0,0.0,0.0,0.0,0.0,0.0,0.0,0.0,0.0,0.0,0.0,0.0,0.0,0.0,0.0,0.0,0.0,0.0,0.0,0.0,0.0,0.0,0.0,0.0,0.0,0.0,0.0,0.0,0.0,0.0,0.0,0.0,0.0,0.0,0.0,0.0,0.0,0.0,0.0,0.0,0.0,0.0,0.0,0.0,0.0,0.0,0.0,0.0,0.0,0.0,0.0,0.0,0.0,0.0,0.0,0.0,0.0,0.0,0.0,0.0,0.0,0.0,0.0,0.0,0.0,0.0,0.0,0.0,-5.3315,-5.9471,-6.3869,-6.4546,-6.4647,-6.4681,-6.4613,-6.4647,-6.3057,-5.9268,0.0,0.0,0.0,0.0,0.0,0.0,0.0,0.0,0.0,0.0,0.0,0.0,0.0,0.0,0.0,0.0,0.0,0.0,0.0,0.0,0.0,0.0,0.0,0.0,0.0,0.0,0.0,0.0,0.0,0.0,0.0,0.0,0.0,0.0,0.0,0.0,0.0,0.0,0.0,0.0,0.0,0.0,0.0,0.0,0.0,0.0,0.0,0.0,0.0,0.0,0.0,0.0,0.0,0.0,0.0,0.0,0.0,0.0,0.0,0.0,-3.4981,-3.124,0.0,0.0,0.0,0.0,0.0,0.0,0.0,0.0,0.0,0.0,0.0,0.0,0.0,0.0,0.0,0.0,0.0,0.0,0.0,0.0,0.0,0.0,0.0,0.0,0.0,0.0,0.0,0.0,0.0,0.0,0.0,0.0,0.0,0.0,0.0,0.0,0.0,0.0,0.0,0.0,-5.4059,-6.0216,-6.4444,-6.458,-6.5121,-6.5222,-6.4647,-6.5121,-6.3599,-5.9302,-5.8118,0.0,0.0,0.0,0.0,0.0,0.0,0.0,0.0,0.0,0.0,0.0,0.0,0.0,0.0,0.0,0.0,0.0,0.0,0.0,0.0,0.0,0.0,0.0,0.0,0.0,0.0,0.0,0.0,0.0,0.0,0.0,0.0,0.0,0.0,0.0,0.0,0.0,0.0,0.0,0.0,0.0,0.0,0.0,0.0,0.0,0.0,0.0,0.0,0.0,0.0,0.0,0.0,0.0,0.0,0.0,0.0,0.0,0.0,0.0,-3.8901,-3.6716,0.0,0.0,0.0,0.0,0.0,0.0,0.0,0.0,0.0,0.0,0.0,0.0,0.0,0.0,0.0,0.0,0.0,0.0,0.0,0.0,0.0,0.0,0.0,0.0,0.0,0.0,0.0,0.0,0.0,0.0,0.0,0.0,0.0,0.0,0.0,0.0,0.0,0.0,0.0,0.0,-5.531,-6.1501,-6.5797,-6.6136,-6.688,-6.7184,-6.6779,-6.7117,-6.6339,-6.4005,-6.1839,0.0,0.0,0.0,0.0,0.0,0.0,0.0,0.0,0.0,0.0,0.0,0.0,0.0,0.0,0.0,0.0,0.0,0.0,0.0,0.0,0.0,0.0,0.0,0.0,0.0,0.0,0.0,0.0,0.0,0.0,0.0,0.0,0.0,0.0,0.0,0.0,0.0,0.0,0.0,0.0,0.0,0.0,0.0,0.0,0.0,0.0,0.0,0.0,0.0,0.0,0.0,0.0,0.0,-4.1474,-4.2222,-4.2761,-4.288,-4.4107,-4.5992,-4.2821,-4.294,-4.4915,-4.0038,0.0,0.0,0.0,0.0,0.0,0.0,0.0,0.0,0.0,0.0,0.0,0.0,0.0,0.0,0.0,0.0,0.0,0.0,0.0,0.0,0.0,0.0,-4.9164,-5.062,-5.3881,-5.5344,-5.0405,0.0,0.0,0.0,0.0,0.0,0.0,0.0,0.0,0.0,0.0,0.0,-5.7543,-6.3396,-6.7455,-6.803,-6.8707,-6.9113,-6.9113,-6.9113,-6.9113,-6.9113,-6.5628,-6.3328,0.0,0.0,0.0,0.0,0.0,0.0,0.0,0.0,0.0,0.0,0.0,0.0,0.0,0.0,0.0,0.0,0.0,0.0,0.0,0.0,0.0,0.0,0.0,0.0,0.0,0.0,0.0,0.0,0.0,0.0,0.0,0.0,-3.3784,-3.4741,0.0,0.0,0.0,0.0,0.0,0.0,0.0,0.0,0.0,0.0,0.0,0.0,0.0,-3.9649,-4.0008,-4.291,-4.4436,-4.4556,-4.695,-4.8147,-4.8237,-4.8805,-4.9254,-4.9583,-4.9643,0.0,-4.5244,-4.4466,0.0,0.0,0.0,0.0,0.0,0.0,0.0,0.0,0.0,0.0,0.0,0.0,0.0,0.0,0.0,0.0,0.0,0.0,0.0,0.0,0.0,0.0,-5.7264,-5.8354,-5.9599,-6.0351,-5.9573,-5.4329,-4.9864,-4.9999,-4.9593,-4.824,0.0,0.0,0.0,0.0,0.0,0.0,-6.2009,-6.6237,-6.8842,-6.8944,-6.9045,-6.9113,-6.9113,-6.9113,-6.9113,-6.9113,-6.8538,-6.7049,-6.441,-6.3965,0.0,0.0,0.0,0.0,0.0,0.0,0.0,0.0,0.0,0.0,0.0,0.0,0.0,0.0,0.0,0.0,0.0,0.0,0.0,0.0,0.0,0.0,0.0,0.0,0.0,0.0,0.0,0.0,0.0,-3.2826,-3.516,-3.5459,-3.504,-3.4053,0.0,0.0,0.0,0.0,0.0,0.0,0.0,0.0,0.0,-4.2641,-4.3718,-4.4796,-4.5933,-4.7728,-4.8626,-4.8656,-5.0182,-5.093,-5.093,-5.1588,-5.1887,-5.1917,-5.2187,-5.1349,-4.9553,-4.7339,-4.4676,-4.1893,0.0,0.0,0.0,0.0,-4.0636,-4.1265,-4.4018,-4.4945,-4.4855,-4.4167,0.0,0.0,0.0,0.0,0.0,0.0,0.0,-4.7071,-5.245,-5.5701,-5.8346,-6.1278,-6.2618,-6.3159,-6.3159,-6.0892,-5.8084,-5.548,-5.4025,-5.1894,-4.7665,-4.9289,0.0,0.0,0.0,-6.0588,-6.3734,-6.7387,-6.9722,-6.9722,-7.0466,-7.0939,-7.0939,-7.1345,-7.1548,-7.1548,-7.1548,-7.109,-6.9845,-6.8234,-6.5566,0.0,0.0,0.0,0.0,0.0,0.0,0.0,0.0,0.0,0.0,0.0,0.0,0.0,0.0,0.0,0.0,0.0,0.0,0.0,0.0,0.0,0.0,0.0,0.0,0.0,0.0,0.0,0.0,-3.504,-3.7075,-3.6567,-3.7524,-3.7195,0.0,0.0,0.0,0.0,0.0,0.0,-4.2132,-4.309,-4.4676,-4.698,-4.8027,-4.9344,-5.096,-5.1468,-5.1708,-5.1738,-5.2217,-5.2456,-5.2456,-5.2965,-5.3264,-5.3443,-5.3443,-5.3533,-5.3443,-5.0152,-4.8117,-4.692,-4.5424,-4.4257,-4.3569,-4.5035,-4.5693,-4.6262,-4.9224,-5.0391,-5.0421,-4.9763,-4.8865,-4.7638,-4.5334,0.0,0.0,0.0,0.0,-4.9886,-5.5601,-5.7903,-5.9598,-6.3463,-6.4918,-6.5459,-6.5459,-6.5561,-6.458,-6.0892,-5.9438,-5.7374,-5.2706,-5.4668,0.0,-5.4871,-5.9539,-6.4038,-6.6305,-6.918,-7.1041,-7.1041,-7.2022,-7.2665,-7.2665,-7.3172,-7.3477,-7.3477,-7.3477,-7.3719,-7.4133,-7.2318,-7.0381,-6.8661,0.0,0.0,0.0,0.0,0.0,0.0,0.0,0.0,0.0,0.0,0.0,0.0,0.0,0.0,0.0,0.0,0.0,0.0,0.0,0.0,0.0,0.0,0.0,0.0,0.0,0.0,0.0,0.0,0.0,-3.9439,-4.1444,0.0,0.0,0.0,0.0,-4.1085,-4.1803,-4.3629,-4.68,-4.701,-4.8536,-5.1738,-5.1917,-5.2306,-5.3025,-5.3054,-5.3084,-5.3084,-5.3114,-5.3144,-5.3144,-5.3174,-5.3533,-5.4162,-5.4162,-5.4521,-5.497,-5.3503,-5.1409,-4.9105,-4.9015,-4.7788,-4.6352,-4.8297,-4.9404,-5.0242,-5.2276,-5.3414,-5.3832,-5.3144,-5.1648,-5.0182,-5.0631,-4.9464,0.0,0.0,-5.4047,-5.59,-6.1849,-6.3396,-6.4046,-6.6154,-6.7218,-6.7726,-6.7726,-6.6643,-6.5831,-6.6271,-6.688,-6.6305,-6.326,0.0,-6.326,-6.3835,-6.4816,-6.7083,-7.1447,-7.2766,-7.3308,-7.3308,-7.3375,-7.3443,-7.3443,-7.3477,-7.3477,-7.3477,-7.3477,-7.3923,-7.5015,-7.5811,-7.4935,-7.204,-7.0515,0.0,0.0,0.0,0.0,0.0,0.0,0.0,0.0,0.0,0.0,0.0,0.0,0.0,0.0,0.0,0.0,0.0,0.0,0.0,0.0,0.0,0.0,0.0,0.0,0.0,0.0,0.0,0.0,-4.2102,-4.3928,0.0,-4.2162,-4.3898,-4.5185,-4.5185,-4.7369,-4.9224,-5.0391,-5.087,-5.1618,-5.2785,-5.2815,-5.3144,-5.3832,-5.3832,-5.4042,-5.4491,-5.491,-5.5119,-5.5119,-5.5508,-5.5837,-5.6077,-5.6077,-5.6196,-5.6376,-5.5897,-5.467,-5.3114,-5.3533,-5.3264,-5.2785,-5.3892,-5.4461,-5.476,-5.5448,-5.5867,-5.6017,-5.5777,-5.5209,-5.479,-5.5448,-5.5179,-5.527,-5.8369,-5.9446,-6.0568,-6.4845,-6.589,-6.6353,-6.7906,-6.847,-6.8673,-6.8673,-6.9011,-6.9383,-6.9654,-6.7963,-6.6,-6.4478,-6.6609,-6.7963,-6.6271,-6.8707,-7.1278,-7.2902,-7.3341,-7.3477,-7.3477,-7.3916,-7.4221,-7.4221,-7.4627,-7.4897,-7.4897,-7.5538,-7.6244,-7.6784,-7.7856,-7.799,-7.7121,-7.6631,-7.2275,0.0,0.0,0.0,0.0,0.0,0.0,0.0,0.0,0.0,0.0,0.0,0.0,0.0,0.0,0.0,0.0,0.0,0.0,0.0,0.0,0.0,0.0,0.0,0.0,0.0,-4.2342,-4.4586,-4.3509,-4.5903,-4.686,-4.4855,-4.7279,-4.8955,-4.8955,-5.1169,-5.2546,-5.2546,-5.3174,-5.3623,-5.3862,-5.4072,-5.4521,-5.5179,-5.5179,-5.5508,-5.6196,-5.6615,-5.6944,-5.7184,-5.7573,-5.7902,-5.8112,-5.8112,-5.8231,-5.8441,-5.8441,-5.7962,-5.7184,-5.6915,-5.6825,-5.6915,-5.7543,-5.7782,-5.7812,-5.8022,-5.8112,-5.8141,-5.8381,-5.8441,-5.853,-5.9009,-5.9129,-5.9603,-6.1853,-6.2519,-6.3264,-6.6609,-6.7697,-6.8241,-6.9827,-7.0398,-7.0567,-7.0567,-7.1345,-7.2056,-7.2056,-7.0026,-6.8166,-6.7692,-7.006,-7.121,-6.8707,-7.1481,-7.368,-7.3172,-7.3781,-7.4221,-7.4221,-7.4695,-7.4965,-7.4965,-7.4525,-7.4814,-7.6105,-7.5962,-7.6698,-7.8675,-7.8134,-7.8005,-7.8552,-7.8295,-7.4294,-6.6512,0.0,0.0,0.0,0.0,0.0,0.0,0.0,0.0,0.0,0.0,0.0,0.0,0.0,0.0,0.0,0.0,0.0,0.0,0.0,0.0,0.0,0.0,0.0,-4.1833,-4.4377,-4.5753,-4.3868,-4.7578,-4.9553,-4.7638,-5.0361,-5.2217,-5.2217,-5.2845,-5.3234,-5.3234,-5.3922,-5.4581,-5.5239,-5.5897,-5.6526,-5.7154,-5.7184,-5.7543,-5.8201,-5.8201,-5.856,-5.9159,-5.9159,-5.9518,-6.0116,-6.0146,-6.0535,-6.1134,-6.1164,-6.1164,-6.0984,-5.8979,-5.8201,-5.8291,-5.8919,-5.9159,-5.9249,-5.9907,-6.0116,-6.0236,-6.0894,-6.1104,-6.1104,-6.1134,-6.1164,-6.1468,-6.284,-6.3369,-6.412,-6.7522,-6.898,-6.9993,-7.1951,-7.2969,-7.3477,-7.3477,-7.351,-7.351,-7.351,-7.3544,-7.3544,-7.351,-7.351,-7.3037,-7.165,-7.3274,0.0,-7.2699,-7.4356,-7.5676,-7.5642,-7.5642,-7.5642,-7.5642,-7.3003,-7.3105,-7.704,-7.4649,-7.5363,-8.0405,-7.68,-7.5248,-7.6276,-7.5395,-7.3744,-7.1394,0.0,0.0,0.0,0.0,0.0,0.0,0.0,0.0,0.0,0.0,0.0,0.0,0.0,0.0,0.0,0.0,0.0,0.0,0.0,0.0,0.0,-4.4407,-4.6292,-4.5753,-4.7698,-4.9134,-4.9075,-5.0601,-5.1439,-5.09,-5.2097,-5.2905,-5.2905,-5.3982,-5.464,-5.464,-5.5688,-5.6376,-5.6555,-5.7244,-5.7902,-5.853,-5.9009,-5.9608,-6.0296,-6.0296,-6.0386,-6.0565,-6.0565,-6.0655,-6.0864,-6.1343,-6.1642,-6.1852,-6.2331,-6.254,-6.2391,-6.0894,-6.0296,-6.0326,-6.0505,-6.0565,-6.0595,-6.0775,-6.0835,-6.0864,-6.1044,-6.1104,-6.1194,-6.1672,-6.2849,-6.446,-6.6291,-6.7946,-6.9614,-7.1593,-7.2203,-7.2498,-7.3046,-7.3341,-7.3477,-7.3477,-7.3916,-7.4289,-7.4289,-7.4728,-7.4931,-7.439,-7.4289,-7.4356,-7.4458,-7.4999,-7.5236,-7.483,-7.5303,-7.527,-7.4221,-7.4086,-7.4086,-7.4086,-7.3341,-7.4162,-7.711,-7.7272,-7.8335,-8.0478,-8.0244,-8.0202,-8.0534,-7.6827,-7.4294,0.0,0.0,0.0,0.0,0.0,0.0,0.0,0.0,0.0,0.0,0.0,0.0,0.0,0.0,0.0,0.0,0.0,0.0,0.0,0.0,0.0,0.0,-4.7249,-4.9045,-4.9314,-5.0092,-5.09,-5.1558,-5.1977,-5.2306,-5.2576,-5.3473,-5.4012,-5.4012,-5.5239,-5.5987,-5.5987,-5.7214,-5.7932,-5.7932,-5.889,-5.9548,-5.9937,-6.0595,-6.1253,-6.1942,-6.2211,-6.248,-6.275,-6.275,-6.275,-6.278,-6.3169,-6.3318,-6.3348,-6.3737,-6.3887,-6.3797,0.0,0.0,0.0,0.0,-6.275,-6.275,-6.275,-6.275,-6.275,-6.275,-6.275,-6.2924,-6.391,-6.5146,-6.6558,-6.8988,-7.0564,-7.1852,-7.3164,-7.3713,-7.395,-7.395,-7.4187,-7.4424,-7.4424,-7.4762,-7.5067,-7.5067,-7.5405,0.0,-7.5134,-7.5067,-7.4999,-7.4796,-7.5303,-7.5473,-7.4864,-7.5303,-7.5371,-7.4492,-7.4695,-7.4897,-7.4897,-7.4537,0.0,0.0,0.0,-7.8889,-7.9199,-7.9836,0.0,0.0,0.0,-7.6019,-7.7231,-7.4441,0.0,0.0,-7.0257,-6.9119,0.0,0.0,0.0,0.0,0.0,0.0,0.0,0.0,0.0,0.0,0.0,0.0,0.0,0.0,0.0,0.0,-4.9733,-5.1648,-5.2217,-5.1887,-5.1738,-5.2247,-5.2456,-5.2755,-5.3354,-5.461,-5.5448,-5.5508,-5.6645,-5.7363,-5.7423,-5.865,0.0,0.0,0.0,-6.1343,-6.1343,-6.2061,-6.272,-6.3318,-6.3857,-6.4425,-6.5024,-6.5024,-6.5024,-6.5024,-6.5114,-6.5144,-6.5144,-6.5233,-6.5263,-6.5173,-6.4425,-6.4126,-6.4186,-6.4814,-6.5024,-6.5024,-6.5024,0.0,0.0,-6.5024,-6.5024,-6.5231,-6.6704,-6.738,-6.8108,-7.0888,-7.1821,-7.228,-7.3433,-7.4221,-7.4728,-7.4728,-7.5236,-7.5709,-7.5709,-7.5709,-7.5709,-7.5709,-7.5777,-7.5845,-7.5845,-7.5743,-7.527,-7.4052,-7.4999,-7.5371,-7.4153,-7.5134,-7.5879,-7.5709,-7.6352,0.0,-7.6917,-7.6045,-7.7188,-8.1272,-8.0043,-7.8856,-7.8123,-7.8148,-7.7818,-7.7084,-7.7047,-7.8846,-8.248,-8.248,-8.248,-8.2223,-7.2716,-7.055,0.0,0.0,0.0,0.0,0.0,0.0,0.0,0.0,0.0,0.0,0.0,0.0,0.0,0.0,0.0,-4.8716,-5.1079,-5.2845,-5.2965,-5.3354,-5.3473,-5.3054,-5.3952,-5.467,-5.479,-5.5957,-5.6944,-5.7513,-5.8291,-5.8949,-5.9488,-6.0296,-6.0715,-6.0715,-6.2002,-6.269,-6.269,-6.3887,-6.4515,-6.4635,-6.4784,0.0,-6.5024,-6.5024,-6.5024,-6.5054,-6.5592,-6.5832,-6.5862,-6.64,-6.661,-6.649,-6.5293,-6.4844,-6.4844,-6.4994,-6.5024,-6.5024,-6.5024,-6.5024,-6.5024,-6.5024,-6.5024,-6.5231,-6.6704,-6.8359,0.0,-7.1945,-7.354,-7.495,-7.5175,-7.5371,-7.5473,-7.5473,-7.5608,-7.5709,-7.5709,-7.5709,-7.5709,-7.5709,-7.6217,-7.6657,-7.6657,-7.6115,-7.5811,-7.6183,-7.6487,-7.6792,-7.7063,-7.7367,-7.7063,-7.5845,-7.5845,-7.6352,-7.7258,-7.7075,-7.8644,-8.2409,-8.3118,-8.3374,-8.3214,-8.3214,-8.3104,-8.2957,-8.2957,-8.3361,-8.4132,-8.4132,-8.4132,-8.4058,-8.0718,-7.9653,0.0,0.0,0.0,0.0,0.0,0.0,0.0,0.0,0.0,0.0,0.0,-4.4227,-4.5574,0.0,-4.9703,-5.102,-5.2606,-5.3803,-5.4132,-5.476,-5.494,-5.4281,-5.5059,-5.5807,-5.6107,-5.7334,-5.8231,-5.859,-5.9548,-6.0266,-6.0595,-6.1553,-6.2091,-6.2091,-6.3378,-6.4066,-6.4066,-6.5024,-6.5533,-6.5533,-6.5862,-6.6011,-6.6011,-6.6011,-6.6011,-6.6041,-6.637,-6.649,-6.652,-6.6849,-6.6999,-6.6939,-6.6251,-6.6011,-6.6011,-6.6011,-6.6011,-6.6011,-6.6011,-6.6011,-6.6102,-6.6877,-6.7113,-6.7519,-6.9759,-7.109,-7.2255,-7.3741,-7.4892,-7.5709,-7.5709,-7.5709,-7.5709,-7.5709,-7.5709,-7.5811,-7.6217,-7.6284,-7.642,-7.6758,-7.7164,-7.7435,-7.7435,-7.7096,-7.6995,-7.7367,-7.7435,-7.757,-7.7942,-7.7976,-7.7671,-7.6927,-7.7164,-7.7911,-7.8979,-8.0485,-8.2414,-8.4828,-8.5471,-8.5637,-8.5233,-8.5196,-8.5013,-8.4609,-8.4609,-8.4609,-8.4609,-8.4609,-8.4609,-8.4572,-8.3765,-8.3398,0.0,0.0,0.0,0.0,0.0,0.0,0.0,-4.1504,-4.2402,-4.4107,-4.5723,-4.7309,-4.8925,-5.0301,-5.1708,-5.3324,-5.4251,-5.497,-5.5478,-5.6226,-5.6555,-5.6017,-5.6406,-5.6944,-5.7423,-5.871,-5.9548,-5.9668,-6.0805,-6.1553,-6.1672,-6.281,-6.3468,-6.3468,-6.4605,-6.5233,-6.5233,-6.5862,-6.6191,-6.6191,-6.6729,-6.6999,-6.6999,-6.6999,-6.6999,-6.6999,-6.6999,-6.6999,-6.6999,-6.6999,-6.6999,-6.6999,-6.6999,-6.6999,-6.6999,-6.6999,-6.6999,-6.6999,-6.6999,-6.6999,-6.7213,-6.8444,-6.8766,-6.9317,-7.2249,-7.3121,-7.3566,-7.5258,-7.5709,-7.5743,-7.5879,-7.5946,-7.598,-7.6115,-7.6149,-7.6318,-7.6961,-7.7096,-7.7299,-7.7874,-7.8111,-7.8213,-7.8213,-7.8314,-7.8382,-7.8247,-7.8213,-7.8247,-7.8382,-7.8416,-7.8483,-7.8619,-7.9325,-8.0542,-8.2028,-8.4523,-8.6537,-8.7402,-8.7472,-8.7178,-8.6518,-8.6334,-8.5967,-8.5306,-8.5159,-8.5159,-8.5306,-8.5306,-8.538,-8.5527,-8.5527,-8.527,-4.2821,-4.2073,-4.2342,-4.2701,-4.2851,-4.4257,0.0,-4.8985,-4.8267,-5.1349,-5.2127,-5.2366,-5.2606,-5.3743,-5.47,-5.494,-5.5987,-5.6795,-5.6885,-5.7962,-5.874,-5.868,-5.874,-5.88,-5.886,-6.0086,-6.1134,-6.1702,-6.245,-6.3109,-6.3647,-6.4395,-6.4814,-6.4814,-6.5533,-6.5892,-6.5892,-6.655,-6.6879,-6.6879,-6.6939,-6.6999,-6.6999,-6.6999,-6.6999,-6.6999,-6.6999,-6.6999,-6.6999,-6.6999,-6.6999,-6.6999,-6.6999,-6.6999,-6.6999,-6.6999,-6.6999,-6.6999,-6.6999,-6.6999,-6.6999,-6.7213,-6.7213,-6.7759,-7.0727,-7.1605,-7.2249,-7.4932,-7.5709,-7.5845,-7.6589,-7.6758,-7.6927,-7.757,-7.7739,-7.7773,-7.7841,-7.7874,-7.7874,-7.7976,-7.8517,-7.8991,-7.8991,-7.9532,-7.9735,-7.9092,-7.8991,-7.9228,-7.987,-7.9938,-8.0209,-8.0851,-8.1948,-8.3851,-8.6675,-8.8138,-8.8981,-8.916,-8.916,-8.9124,-8.9014,-8.8316,-8.7876,-8.7802,-8.7105,-8.7105,-8.7802,-8.7802,-8.8169,-8.8867,-8.8867,-8.7729,-4.7668,-4.695,-4.6531,-4.7189,-4.7638,-4.8476,-5.0571,-5.0511,-5.0601,-5.2725,-5.3803,-5.4341,-5.4341,-5.5418,-5.6286,-5.6286,-5.7094,-5.7693,-5.7693,-5.883,-5.9668,-5.9668,-6.0356,-6.0685,-6.0296,-6.1134,-6.1972,-6.263,-6.3258,-6.3887,-6.4575,-6.5233,-6.5592,-6.5592,-6.6251,-6.658,-6.658,-6.6849,-6.6999,-6.6999,-6.6999,-6.6999,-6.6999,-6.6999,-6.6999,-6.6999,-6.6999,-6.6999,-6.6999,-6.6999,-6.6999,-6.6999,-6.6999,-6.6999,-6.6999,-6.6999,-6.6999,-6.6999,-6.6999,-6.6999,-6.7151,-6.8455,-6.9438,-7.0631,-7.3166,-7.4504,-7.5502,-7.6702,-7.7029,-7.7096,-7.7435,-7.7536,-7.7604,-7.7908,-7.7976,-7.8111,-7.8551,-7.8653,-7.8754,-7.9194,-7.9532,-7.9735,-7.9735,-8.0344,-8.0716,-8.0412,-8.0378,-8.0479,-8.0784,-8.1224,-8.1868,-8.2874,-8.4019,-8.5568,-8.7545,-8.8726,-8.9417,-8.9417,-8.9417,-8.9417,-8.9417,-8.9087,-8.8904,-8.8904,-8.8573,-8.8573,-8.8904,-8.8904,-8.9087,-8.9417,-8.9417,-8.9124,-4.9673,-4.9583,-4.9404,-5.0062,-5.102,-5.1678,-5.1409,-5.1708,-5.2426,-5.3743,-5.479,-5.5508,-5.5688,-5.6615,-5.7393,-5.7393,-5.8112,-5.865,-5.865,-5.9817,-6.0625,-6.0625,-6.1822,-6.2421,-6.1972,-6.2331,-6.281,-6.3288,-6.4096,-6.4784,-6.5263,-6.5922,-6.6281,-6.6281,-6.6759,-6.6999,-6.6999,-6.6999,-6.6999,-6.6999,-6.6999,-6.6999,-6.6999,-6.6999,-6.6999,-6.6999,-6.6999,-6.6999,-6.6999,-6.6999,-6.6999,-6.6999,-6.7178,-6.7268,-6.7298,-6.7478,-6.7298,-6.7121,-6.7759,-6.791,-6.8243,-7.0372,-7.1945,-7.316,-7.512,-7.6502,-7.7513,-7.7878,-7.7976,-7.8044,-7.8247,-7.828,-7.8348,-7.8551,-7.8585,-7.8754,-7.9295,-7.9566,-7.987,-8.0412,-8.0682,-8.0818,-8.0818,-8.1257,-8.1596,-8.1596,-8.1765,-8.1832,-8.1629,-8.2238,-8.3329,-8.4819,-8.5883,-8.7166,-8.874,-8.9642,-9.0078,-9.0078,-9.0078,-9.0078,-9.0078,-8.9858,-8.9748,-8.9748,-8.9528,-8.9528,-8.9748,-8.9748,-8.9858,-9.0078,-9.0335,-9.0845,-4.6621,-4.7848,-4.9404,-5.0062,-5.1678,-5.3294,-5.3952,-5.4102,-5.4491,-5.5807,-5.6107,-5.6316,-5.6915,-5.7633,-5.8082,-5.8082,-5.9189,-6.0027,-6.0027,-6.1194,-6.2032,-6.2032,-6.3169,-6.3947,-6.3917,-6.3917,-6.3947,-6.3977,-6.5203,-6.5951,-6.5981,-6.661,-6.6969,-6.6969,-6.6969,-6.6999,-6.6999,-6.6999,-6.6999,-6.6999,-6.6999,-6.6999,-6.6999,-6.6999,-6.6999,-6.6999,-6.6999,-6.6999,-6.6999,-6.6999,-6.6999,-6.7059,-6.7687,-6.7956,-6.8016,-6.8704,-6.8106,-6.7304,-6.9505,-7.0162,-7.0606,-7.2761,-7.358,-7.3803,-7.5357,-7.5812,-7.6159,-7.7646,-7.7976,-7.8145,-7.8889,-7.9092,-7.9261,-7.9972,-8.0141,-8.0141,-8.0175,-8.0716,-8.1224,-8.1257,-8.1832,-8.234,-8.234,-8.2374,-8.2374,-8.2374,-8.2983,-8.3186,-8.2475,-8.3016,-8.4351,-8.6752,-8.7692,-8.9113,-9.1436,-9.173,-9.173,-9.173,-9.173,-9.173,-9.173,-9.0996,-9.0555,-9.0555,-8.9821,-8.9784,-9.0555,-9.0555,-9.0959,-9.173,-9.2611,-9.3373,-4.9164,-5.0391,-5.1588,-5.3144,-5.4012,-5.47,-5.5359,-5.5508,-5.5748,-5.6615,-5.6795,-5.6855,-5.7064,-5.8022,-5.877,-5.877,-5.9907,-6.0775,-6.0775,-6.1912,-6.275,-6.275,-6.3887,-6.4695,-6.4695,-6.4695,-6.4874,-6.5293,-6.5742,-6.6191,-6.664,-6.6879,-6.6999,-6.6999,-6.6999,-6.6999,-6.6999,-6.6999,-6.6999,-6.6999,-6.6999,-6.6999,-6.6999,-6.6999,-6.7238,-6.7627,-6.7627,-6.7897,-6.8315,-6.8315,-6.8315,-6.8345,-6.8585,-6.8645,-6.8675,-6.8914,-6.9393,-6.9791,-6.958,-6.9456,-6.9762,-7.2039,-7.3401,-7.4606,-7.6561,-7.7965,-7.8858,-7.933,-7.9464,-7.9498,-7.9769,-7.9837,-7.9904,-8.0141,-8.0547,-8.0919,-8.0919,-8.1494,-8.2035,-8.2035,-8.2238,-8.2408,-8.2408,-8.2813,-8.3287,-8.3795,-8.3659,-8.3592,-8.3862,-8.4099,-8.5138,-8.7599,-8.8117,-8.9221,-9.162,-9.1803,-9.1803,-9.1803,-9.1803,-9.1803,-9.1803,-9.1546,-9.14,-9.14,-9.1143,-9.1143,-9.14,-9.1987,-9.2391,-9.2684,-9.3492,-9.4259,-5.1139,-5.2217,-5.3084,-5.5329,-5.5867,-5.5987,-5.6406,-5.6496,-5.6675,-5.7334,-5.6915,-5.6555,-5.7004,-5.7812,-5.8471,-5.871,-6.0266,-6.1553,-6.1792,-6.272,-6.3498,-6.3737,-6.4725,-6.5383,-6.5383,-6.5592,-6.5802,-6.6011,-6.6221,-6.655,-6.6969,-6.6999,-6.6999,-6.6999,-6.6999,-6.6999,-6.6999,-6.6999,-6.6999,-6.6999,-6.7238,-6.7358,-6.7358,-6.7597,-6.7956,-6.8345,-6.8345,-6.8585,-6.9004,-6.9004,-6.9004,-6.9034,-6.9243,-6.9363,-6.9363,-6.9602,-7.0705,-7.1928,-7.1229,-7.1378,-7.2189,-7.4455,-7.5811,-7.6823,-7.8319,-7.9392,-8.0209,-8.0209,-8.0209,-8.0209,-8.0209,-8.0209,-8.0276,-8.0513,-8.0953,-8.1359,-8.1629,-8.2272,-8.278,-8.278,-8.3016,-8.3219,-8.3219,-8.3828,-8.4471,-8.4979,-8.464,-8.4403,-8.4606,-8.464,-8.5515,-8.7987,-8.8259,-8.9221,-9.162,-9.1803,-9.1803,-9.1803,-9.1803,-9.195,-9.2244,-9.195,-9.195,-9.2244,-9.2244,-9.2244,-9.2281,-9.3125,-9.3529,-9.3565,-9.4336,-9.5285,-5.2366,-5.3294,-5.3982,-5.6466,-5.7094,-5.7094,-5.7124,-5.7184,-5.7363,-5.7902,-5.6555,-5.5568,-5.6645,-5.7004,-5.7363,-5.8022,-6.0446,-6.248,-6.3079,-6.3707,-6.4336,-6.4994,-6.5652,-6.6071,-6.6071,-6.664,-6.6729,-6.6101,-6.664,-6.6999,-6.6999,-6.6999,-6.6999,-6.6999,-6.6999,-6.6999,-6.6999,-6.6999,-6.6999,-6.7059,-6.7687,-6.7986,-6.8046,-6.8704,-6.9004,-6.9064,-6.9064,-6.9064,-6.9093,-6.9093,-6.9093,-6.9153,-6.9909,-7.0149,-7.0209,-7.0938,-7.2078,-7.3655,-7.4531,-7.5742,-7.7206,-7.9396,-8.0074,-8.0074,-8.0209,-8.0209,-8.0209,-8.0242,-8.0242,-8.0276,-8.031,-8.031,-8.0479,-8.119,-8.1359,-8.1596,-8.2306,-8.305,-8.3558,-8.3558,-8.4133,-8.464,-8.4674,-8.5283,-8.579,-8.5824,-8.5858,-8.5587,-8.4843,-8.4708,-8.5686,-8.8093,-8.8365,-8.9328,-9.173,-9.1913,-9.1913,-9.1913,-9.1913,-9.2281,-9.3125,-9.2354,-9.2317,-9.3161,-9.3161,-9.3161,-9.3161,-9.3969,-9.4373,-9.4373,-9.518,-9.6411,-5.3593,-5.4999,-5.6256,-5.6915,-5.7094,-5.7244,-5.7752,-5.8231,-5.8231,-5.6944,-5.6256,-5.5418,-5.3743,-5.5867,-5.7932,-5.8082,-6.1583,-6.4336,-6.4515,-6.5084,-6.5562,-6.5742,-6.634,-6.6759,-6.6759,-6.6879,-6.6909,-6.6759,-6.6879,-6.6999,-6.6999,-6.6999,-6.6999,-6.6999,-6.6999,-6.6999,-6.6999,-6.6999,-6.7238,-6.7717,-6.7897,-6.8256,-6.8734,-6.8914,-6.9273,-6.9722,-6.9722,-6.9991,-7.041,-7.041,-7.041,-7.0539,-7.1869,-7.2428,-7.2583,-7.3897,-7.5783,-7.7576,-7.7748,-7.7023,-7.6265,-7.7924,-7.8485,-7.8697,-7.9836,-8.0209,-8.031,-8.0851,-8.1021,-8.1156,-8.1697,-8.1832,-8.19,-8.2069,-8.2543,-8.2983,-8.3186,-8.3795,-8.4336,-8.4336,-8.4505,-8.4809,-8.5384,-8.5655,-8.5993,-8.6535,-8.6636,-8.6569,-8.6366,-8.6678,-8.7721,-8.9739,-9.0836,-9.2012,-9.3564,-9.3639,-9.3639,-9.3639,-9.3639,-9.3749,-9.3969,-9.3786,-9.3749,-9.3969,-9.3969,-9.3969,-9.4006,-9.4813,-9.518,-9.5217,-9.6025,-9.7196,-5.5149,-5.6496,-5.7603,-5.7902,-5.7992,-5.7842,-5.7363,-5.7543,-5.7184,-5.491,-5.3982,-5.3114,-5.1618,-5.4581,-5.7363,-5.7633,-6.1822,-6.5114,-6.5413,-6.5772,-6.6131,-6.64,-6.6759,-6.6999,-6.6999,-6.6999,-6.6999,-6.6999,-6.6999,-6.6999,-6.6999,-6.6999,-6.6999,-6.6999,-6.6999,-6.7119,-6.7418,-6.7418,-6.7777,-6.8435,-6.8704,-6.9064,-6.9453,-6.9722,-7.0051,-7.038,-7.038,-7.059,-7.0889,-7.0889,-7.0889,-7.1048,-7.2159,-7.3104,-7.388,-7.5105,-7.7197,-7.954,-7.954,-7.9056,-7.8727,-7.9628,-7.9875,-8.0014,-8.0917,-8.1156,-8.1257,-8.1663,-8.1765,-8.1866,-8.2306,-8.2408,-8.2475,-8.2813,-8.3186,-8.3592,-8.393,-8.4336,-8.464,-8.464,-8.464,-8.4877,-8.5655,-8.6061,-8.6535,-8.7279,-8.738,-8.7516,-8.782,-8.8053,-8.8844,-9.0432,-9.1706,-9.299,-9.4188,-9.4299,-9.4299,-9.4299,-9.4299,-9.4446,-9.4813,-9.4483,-9.4483,-9.4813,-9.4813,-9.4813,-9.4813,-9.5621,-9.6025,-9.6061,-9.6843,-9.783,-5.6645,-5.7663,-5.8381,-5.8949,-5.9099,-5.859,-5.6615,-5.6166,-5.5359,-5.2426,-5.096,-5.0122,-4.9793,-5.3054,-5.6077,-5.6944,-6.1403,-6.5084,-6.6011,-6.6131,-6.634,-6.6909,-6.6999,-6.6999,-6.6999,-6.6999,-6.6999,-6.6999,-6.6999,-6.6999,-6.6999,-6.6999,-6.7029,-6.7119,-6.7119,-6.7448,-6.8106,-6.8106,-6.8465,-6.9123,-6.9722,-7.0021,-7.0111,-7.0649,-7.0889,-7.0889,-7.0889,-7.0889,-7.0889,-7.0889,-7.1078,-7.1457,-7.2258,-7.3623,-7.5211,-7.6021,-7.8078,-8.0521,-8.0521,-8.145,-8.2678,-8.2475,-8.2408,-8.2408,-8.2408,-8.2408,-8.2441,-8.2543,-8.2543,-8.2577,-8.2678,-8.2712,-8.2847,-8.349,-8.3659,-8.3828,-8.4471,-8.464,-8.464,-8.464,-8.464,-8.4877,-8.5655,-8.6399,-8.7144,-8.7888,-8.8091,-8.8361,-8.9004,-8.9224,-8.9668,-9.0786,-9.2202,-9.3514,-9.4518,-9.463,-9.463,-9.463,-9.463,-9.4923,-9.5658,-9.4997,-9.496,-9.5658,-9.5658,-9.5658,-9.5658,-9.6355,-9.6685,-9.6685,-9.7492,-9.8215,-5.7004,-5.7992,-5.8949,-5.9069,-5.9099,-5.859,-5.6615,-5.6166,-5.494,-5.0661,-5.0032,-4.9583,-4.7399,-5.0661,-5.4431,-5.6735,-6.0655,-6.4216,-6.649,-6.6819,-6.6879,-6.6969,-6.6999,-6.6999,-6.6999,-6.6999,-6.6999,-6.6999,-6.6999,-6.6999,-6.6999,-6.6999,-6.7238,-6.7777,-6.7807,-6.8136,-6.8824,-6.8824,-6.9153,-6.9812,-6.9931,-7.026,-7.0739,-7.0859,-7.0889,-7.0889,-7.0889,-7.0889,-7.0889,-7.0889,-7.2062,-7.3911,-7.5294,-7.7222,-7.9266,-8.0684,-8.194,-8.2937,-8.2937,-8.3481,-8.4031,-8.2813,-8.2408,-8.2408,-8.2408,-8.2408,-8.2543,-8.3152,-8.3321,-8.3456,-8.4065,-8.4234,-8.4268,-8.4403,-8.4437,-8.4471,-8.4606,-8.464,-8.464,-8.464,-8.464,-8.4877,-8.5655,-8.6399,-8.7144,-8.7888,-8.8497,-8.8937,-8.9072,-9.043,-9.1611,-9.2436,-9.4578,-9.6091,-9.6282,-9.6282,-9.6282,-9.6282,-9.6282,-9.6355,-9.6502,-9.6355,-9.6355,-9.6502,-9.6502,-9.6502,-9.6502,-9.6649,-9.6685,-9.6685,-9.7492,-9.8215,-5.7094,-5.8082,-5.9099,-5.9099,-5.9099,-5.8321,-5.5299,-5.4341,-5.2785,-4.8147,-4.7728,-4.7698,-4.6082,-4.9553,-5.3204,-5.479,-5.9279,-6.3139,-6.4725,-6.6131,-6.6999,-6.6999,-6.6999,-6.6999,-6.6999,-6.6999,-6.6999,-6.6999,-6.6999,-6.6999,-6.6999,-6.7298,-6.7657,-6.7956,-6.8315,-6.8824,-6.9512,-6.9512,-6.9842,-7.047,-7.047,-7.062,-7.0889,-7.0889,-7.0889,-7.0889,-7.0889,-7.1098,-7.1528,-7.2372,-7.3596,-7.5091,-7.6998,-7.8971,-8.0761,-8.1857,-8.3053,-8.4065,-8.4065,-8.4302,-8.4505,-8.3795,-8.3558,-8.3558,-8.3558,-8.3558,-8.3625,-8.3998,-8.4065,-8.4167,-8.4539,-8.464,-8.464,-8.464,-8.464,-8.464,-8.464,-8.464,-8.464,-8.464,-8.464,-8.4877,-8.5655,-8.6399,-8.7144,-8.7888,-8.8632,-8.9373,-9.0036,-9.1451,-9.2507,-9.2861,-9.5181,-9.6685,-9.6685,-9.6685,-9.6685,-9.6685,-9.6685,-9.6685,-9.6685,-9.6685,-9.6685,-9.6685,-9.6685,-9.6685,-9.6685,-9.6685,-9.6685,-9.6685,-9.7897,-9.8651,-5.7064,-5.8082,-5.9099,-5.9099,-5.9099,-5.8052,-5.4072,-5.2576,-5.072,-4.6232,-4.5723,-4.5933,-4.5394,-4.8626,-5.1768,-5.2995,-5.7363,-6.1194,-6.2839,-6.4964,-6.652,-6.6939,-6.6999,-6.6999,-6.6999,-6.6999,-6.6999,-6.6999,-6.7119,-6.7208,-6.7208,-6.7837,-6.8256,-6.8405,-6.8914,-6.9512,-7.0171,-7.0171,-7.041,-7.0889,-7.0889,-7.0889,-7.0889,-7.0889,-7.0889,-7.0919,-7.1038,-7.1398,-7.2008,-7.3842,-7.5123,-7.6244,-7.8491,-8.0377,-8.2001,-8.2486,-8.3531,-8.464,-8.464,-8.464,-8.464,-8.464,-8.464,-8.464,-8.464,-8.464,-8.464,-8.464,-8.464,-8.464,-8.464,-8.464,-8.464,-8.464,-8.464,-8.464,-8.464,-8.4776,-8.4877,-8.4877,-8.4877,-8.508,-8.5689,-8.6399,-8.711,-8.7685,-8.8829,-8.9853,-9.0919,-9.2321,-9.3271,-9.3271,-9.5348,-9.6685,-9.6685,-9.6685,-9.6685,-9.6685,-9.6685,-9.6685,-9.6685,-9.6685,-9.6685,-9.6685,-9.6685,-9.6685,-9.6685,-9.6685,-9.6762,-9.699,-9.838,-9.9122,-5.6944,-5.8082,-5.9099,-5.9099,-5.9099,-5.8052,-5.4072,-5.2217,-5.0152,-4.6112,-4.5334,-4.5364,-4.5304,-4.713,-4.9643,-5.2695,-5.467,-5.7513,-6.2391,-6.3767,-6.4934,-6.6759,-6.6999,-6.6999,-6.6999,-6.6999,-6.6999,-6.6999,-6.7537,-6.7897,-6.7897,-6.8525,-6.9183,-6.9782,-6.9871,-7.0201,-7.0799,-7.0829,-7.0859,-7.0889,-7.0889,-7.0889,-7.0889,-7.0889,-7.0889,-7.0949,-7.1517,-7.1816,-7.2038,-7.4334,-7.6555,-7.8619,-8.0362,-8.2356,-8.4291,-8.4359,-8.45,-8.464,-8.464,-8.464,-8.464,-8.464,-8.464,-8.464,-8.464,-8.464,-8.464,-8.464,-8.464,-8.464,-8.464,-8.464,-8.464,-8.464,-8.464,-8.464,-8.464,-8.5182,-8.5689,-8.5689,-8.5689,-8.5689,-8.5757,-8.6399,-8.6941,-8.7008,-8.9145,-9.0919,-9.1022,-9.3084,-9.4633,-9.4633,-9.5866,-9.6685,-9.6685,-9.6685,-9.6685,-9.6685,-9.6685,-9.6685,-9.6685,-9.6685,-9.6685,-9.6685,-9.6685,-9.6685,-9.6685,-9.6685,-9.7027,-9.7695,-9.8591,-9.9401,-5.6825,-5.8082,-5.9099,-5.9099,-5.8501,-5.7064,-5.3892,-5.1558,-4.9134,-4.5963,-4.4975,-4.4825,-4.5214,-4.6292,-4.7908,-5.0421,-5.2606,-5.485,-5.7393,-6.0356,-6.269,-6.3887,-6.5084,-6.6131,-6.6909,-6.6999,-6.7148,-6.7537,-6.8585,-6.9183,-6.9183,-6.9453,-6.9722,-6.9961,-7.035,-7.0649,-7.0889,-7.0889,-7.0889,-7.0889,-7.0889,-7.0889,-7.0889,-7.0889,-7.1128,-7.1517,-7.1757,-7.2355,-7.3237,-7.5163,-7.7245,-7.9597,-8.1163,-8.2899,-8.464,-8.464,-8.464,-8.464,-8.464,-8.464,-8.464,-8.464,-8.464,-8.464,-8.464,-8.464,-8.464,-8.464,-8.464,-8.4742,-8.5215,-8.5655,-8.5892,-8.5418,-8.5655,-8.5993,-8.5993,-8.6264,-8.6467,-8.6467,-8.6467,-8.6467,-8.6467,-8.7076,-8.755,-8.755,-8.9492,-9.1296,-9.2063,-9.3674,-9.5097,-9.5866,-9.6416,-9.6685,-9.6685,-9.6685,-9.6685,-9.6685,-9.6685,-9.6685,-9.6685,-9.6685,-9.6685,-9.6685,-9.6685,-9.6685,-9.6685,-9.6685,-9.7101,-9.783,-9.8651,-9.9401,-5.6406,-5.7812,-5.886,-5.9069,-5.7962,-5.6196,-5.3743,-5.099,-4.8267,-4.5813,-4.4766,-4.4496,-4.5185,-4.5873,-4.689,-4.8686,-5.069,-5.2606,-5.4251,-5.7483,-6.0206,-6.1642,-6.3199,-6.4665,-6.5981,-6.6819,-6.7567,-6.8226,-6.9333,-7.0051,-7.026,-7.026,-7.026,-7.026,-7.0679,-7.0889,-7.0889,-7.0889,-7.0889,-7.0889,-7.0889,-7.0889,-7.0919,-7.1098,-7.1457,-7.1906,-7.2295,-7.3013,-7.4016,-7.5901,-7.7842,-7.9893,-8.1589,-8.3166,-8.464,-8.464,-8.464,-8.464,-8.464,-8.464,-8.464,-8.464,-8.4776,-8.4979,-8.4979,-8.4979,-8.4979,-8.4979,-8.5114,-8.5418,-8.596,-8.6501,-8.6771,-8.623,-8.6535,-8.6907,-8.6907,-8.7076,-8.7245,-8.7245,-8.7245,-8.7245,-8.7245,-8.7651,-8.7989,-8.7989,-9.0052,-9.1865,-9.2802,-9.4336,-9.5668,-9.6608,-9.6685,-9.6685,-9.6685,-9.6685,-9.6685,-9.6685,-9.6685,-9.6685,-9.6685,-9.6685,-9.6685,-9.6685,-9.6685,-9.6685,-9.6685,-9.6685,-9.721,-9.8188,-9.8772,-9.9547,-5.5628,-5.7124,-5.8291,-5.8949,-5.7633,-5.5658,-5.3623,-5.0661,-4.7728,-4.5723,-4.4766,-4.4496,-4.5185,-4.5873,-4.6741,-4.8087,-4.8865,-5.069,-5.464,-5.5777,-5.7453,-6.0745,-6.1702,-6.263,-6.3917,-6.64,-6.8256,-6.8944,-6.9602,-7.026,-7.0859,-7.0889,-7.0889,-7.0889,-7.0889,-7.0889,-7.0889,-7.0889,-7.0889,-7.0889,-7.0889,-7.0889,-7.0919,-7.1577,-7.1876,-7.1966,-7.3283,-7.3881,-7.4076,-7.6423,-7.8282,-7.9925,-8.1621,-8.3166,-8.464,-8.464,-8.464,-8.464,-8.464,-8.464,-8.464,-8.464,-8.5148,-8.5757,-8.5757,-8.5757,-8.5757,-8.5757,-8.6298,-8.6907,-8.6907,-8.6907,-8.6907,-8.6907,-8.6907,-8.6907,-8.6907,-8.7482,-8.7989,-8.7989,-8.7989,-8.7989,-8.7989,-8.7989,-8.7989,-8.7989,-9.0809,-9.2896,-9.2896,-9.5097,-9.6685,-9.6685,-9.6685,-9.6685,-9.6685,-9.6685,-9.6685,-9.6685,-9.6685,-9.6685,-9.6685,-9.6685,-9.6685,-9.6685,-9.6685,-9.6685,-9.6685,-9.6685,-9.7529,-9.9007,-9.9007,-9.9809,-5.3025,-5.4431,-5.5388,-5.5119,-5.3922,-5.2396,-5.084,-4.8656,-4.6501,-4.4945,-4.4107,-4.3838,-4.4496,-4.4796,-4.5963,-4.9105,-4.9793,-5.084,-5.3443,-5.6346,-5.856,-5.9608,-6.3109,-6.5592,-6.6011,-6.7657,-6.8764,-6.8974,-6.9991,-7.0709,-7.0889,-7.0889,-7.0889,-7.0889,-7.0889,-7.0889,-7.0889,-7.1338,-7.1338,-7.0919,-7.1846,-7.2026,-7.1607,-7.2265,-7.2834,-7.3283,-7.3702,-7.4151,-7.4569,-7.5399,-7.7352,-7.9803,-8.0376,-8.2198,-8.464,-8.464,-8.464,-8.464,-8.464,-8.464,-8.4708,-8.5249,-8.5587,-8.5892,-8.6399,-8.6569,-8.6569,-8.6569,-8.7076,-8.755,-8.7042,-8.7651,-8.826,-8.7786,-8.8023,-8.8395,-8.8395,-8.8564,-8.8734,-8.8734,-8.8734,-8.8734,-8.8734,-8.8734,-8.9033,-8.9873,-9.169,-9.3178,-9.4034,-9.5668,-9.6685,-9.6685,-9.6685,-9.6685,-9.6685,-9.6685,-9.6685,-9.6685,-9.6685,-9.6685,-9.6685,-9.6685,-9.6685,-9.6685,-9.6685,-9.6685,-9.6685,-9.721,-9.8252,-9.9847,-10.029,-10.0808,-5.084,-5.2426,-5.3414,-5.3234,-5.1828,-5.0272,-4.9464,-4.7339,-4.5334,-4.4496,-4.3778,-4.3539,-4.4197,-4.4317,-4.5274,-4.8267,-4.8955,-5.0182,-5.3144,-5.5927,-5.8291,-6.0027,-6.3558,-6.5981,-6.6221,-6.7926,-6.9004,-6.9004,-7.0171,-7.0889,-7.0889,-7.0889,-7.0889,-7.0889,-7.0889,-7.0889,-7.0889,-7.1308,-7.1427,-7.1278,-7.2116,-7.2445,-7.2295,-7.2984,-7.3522,-7.3911,-7.4151,-7.448,0.0,-7.5624,-7.7321,-7.9803,-8.0528,-8.2312,-8.464,-8.464,-8.464,-8.464,-8.464,-8.4809,-8.5148,-8.5621,-8.6163,-8.6771,-8.7516,-8.755,-8.738,-8.7651,-8.8057,-8.8294,-8.7854,-8.8395,-8.897,-8.8497,-8.8767,-8.9072,-8.9072,-8.9072,-8.9072,-8.9072,-8.9072,-8.9072,-8.9072,-8.9072,-8.9559,-9.0815,-9.2028,-9.3363,-9.4633,-9.5947,-9.6685,-9.6685,-9.6685,-9.6685,-9.6685,-9.6685,-9.6685,-9.6685,-9.6685,-9.6685,-9.6685,-9.6685,-9.6685,-9.6685,-9.6685,-9.6685,-9.6685,-9.7732,-9.8949,-10.0185,-10.1008,-10.1289,0.0,-5.072,-5.1917,-5.2486,-5.078,-4.8985,-4.8925,-4.6501,0.0,-4.4257,-4.3718,-4.3479,-4.4257,-4.4347,-4.4825,-4.6352,-4.716,-4.9194,-5.3773,-5.5239,-5.7453,-6.1852,-6.3468,-6.4455,-6.5054,-6.7448,-6.9004,-6.9004,-7.0171,-7.0889,-7.0889,-7.0889,-7.0889,-7.0889,-7.0889,-7.0889,-7.0889,-7.0949,-7.1278,-7.1876,-7.1996,-7.2355,-7.3013,-7.3672,-7.3971,-7.4001,-7.4599,-7.4869,-7.5006,-7.67,-7.8313,-7.9925,-8.1621,-8.3166,-8.464,-8.464,-8.4674,-8.4708,-8.4708,-8.5215,-8.5858,-8.5926,-8.6907,-8.8192,-8.8869,-8.8598,-8.8226,-8.8903,-8.9072,-8.9072,-8.9072,-8.9072,-8.9072,-8.9072,-8.9072,-8.9072,-8.9072,-8.9072,-8.9072,-8.9072,-8.9072,-8.9072,-8.9072,-8.9072,-8.9559,-9.0919,-9.2126,-9.3363,-9.472,-9.5947,-9.6685,-9.6685,-9.6685,-9.6685,-9.6685,-9.6685,-9.6685,-9.6685,-9.6685,-9.6685,-9.6685,-9.6685,-9.6685,-9.6685,-9.6762,-9.6838,-9.6877,-9.838,-9.9493,-10.0319,-10.1008,-10.1289,-4.3808,0.0,-4.7608,-4.7249,-4.6681,-4.6112,0.0,-4.4496,-4.3569,-4.3569,-4.303,-4.309,-4.4766,-4.4646,-4.5424,-4.8775,-4.9883,-5.1738,-5.5837,-5.9608,-6.272,-6.4844,-6.5802,-6.6161,-6.5802,-6.7747,-6.9004,-6.9004,-7.0171,-7.0889,-7.0889,-7.0889,-7.0889,-7.0889,-7.0889,-7.0889,-7.0889,-7.1398,-7.1727,-7.1906,-7.2924,-7.3492,-7.3702,-7.436,-7.4629,-7.4659,-7.4809,-7.4869,-7.5006,-7.67,-7.8313,-7.9925,-8.1621,-8.3166,-8.464,-8.464,-8.5012,-8.552,-8.552,-8.6027,-8.6738,-8.7279,-8.8091,-8.8869,-8.9038,-8.897,-8.8869,-8.9038,-8.9072,-8.9072,-8.9072,-8.9072,-8.9072,-8.9072,-8.9072,-8.9072,-8.9072,-8.9072,-8.9072,-8.9072,-8.9072,-8.9072,-8.9072,-8.9072,-8.9853,-9.2126,-9.2706,-9.3729,-9.5947,-9.6494,-9.6685,-9.6685,-9.6685,-9.6685,-9.6685,-9.6685,-9.6685,-9.6685,-9.6685,-9.6685,-9.6685,-9.6685,-9.6685,-9.6685,-9.7245,-9.783,-9.8467,-9.9439,-10.028,-10.0973,-10.1171,-10.1289,-4.0905,-4.3389,-4.5753,-4.5394,-4.5065,-4.4766,-4.4407,-4.3329,-4.2432,-4.2432,-4.2402,-4.2791,-4.4137,-4.5603,-4.7189,-4.9045,-5.1917,-5.5209,-5.889,-6.2331,-6.4844,-6.5892,-6.6311,-6.652,-6.646,-6.7986,-6.9004,-6.9004,-7.0171,-7.0889,-7.0889,-7.0889,-7.0889,-7.0889,-7.0889,-7.0889,-7.0889,-7.1547,-7.2056,-7.2355,-7.3402,-7.4061,-7.436,-7.4719,-7.4869,-7.4869,-7.4869,-7.5384,-7.6099,-7.7804,-7.9404,-8.1003,-8.2684,-8.3784,-8.464,-8.464,-8.5114,-8.579,-8.579,-8.6501,-8.7516,-8.826,-8.8767,-8.9072,-8.9072,-8.9072,-8.9072,-8.9072,-8.9072,-8.9072,-8.9072,-8.9072,-8.9072,-8.9072,-8.9072,-8.9072,-8.9072,-8.9072,-8.9072,-8.9072,-8.9072,-8.9072,-8.9072,-8.9072,-8.9928,-9.2515,-9.2896,-9.3855,-9.6416,-9.6685,-9.6685,-9.6685,-9.6685,-9.6685,-9.6685,-9.6685,-9.6685,-9.6685,-9.6685,-9.6685,-9.6685,-9.6685,-9.6685,-9.6685,-9.7422,-9.8188,-9.9007,-9.9847,-10.0589,-10.1289,-10.1289,-10.1289,-3.9589,-4.2432,-4.5214,-4.4915,-4.4586,-4.4287,-4.4197,-4.2791,-4.1564,-4.1654,-4.2132,-4.291,-4.4287,-4.704,-4.9194,-4.9464,-5.4042,-5.868,-6.1942,-6.4096,-6.5503,-6.5951,-6.6101,-6.634,-6.6789,-6.8136,-6.9004,-6.9004,-7.0171,-7.0889,-7.0889,-7.0889,-7.0889,-7.0889,-7.0889,-7.0949,-7.1038,-7.1607,-7.2295,-7.3073,-7.3642,-7.424,-7.4869,-7.4869,-7.4869,-7.4869,-7.5112,-7.5832,-7.7061,-7.9312,-8.0766,-8.1968,-8.3893,-8.464,-8.464,-8.464,-8.5114,-8.5824,-8.6027,-8.7008,-8.826,-8.8869,-8.9072,-8.9072,-8.9072,-8.9072,-8.9072,-8.9072,-8.9072,-8.9072,-8.9072,-8.9072,-8.9072,-8.9072,-8.9072,-8.9072,-8.9072,-8.9072,-8.9072,-8.9072,-8.9072,-8.9072,-8.9072,-8.9295,-9.025,-9.2515,-9.3084,-9.4034,-9.6416,-9.6685,-9.6685,-9.6685,-9.6685,-9.6685,-9.6685,-9.6685,-9.6685,-9.6685,-9.6685,-9.6685,-9.6685,-9.6685,-9.6685,-9.6685,-9.7525,-9.8342,-9.9007,-9.9949,-10.0716,-10.1289,-10.1289,-10.1289,-4.0337,-4.315,-4.4885,-4.324,-4.3569,-4.4167,-4.3599,-4.2821,-4.2372,-4.291,-4.312,-4.4586,-4.9164,-4.9134,-4.9883,-5.4251,-5.7573,-6.0565,-6.3318,-6.5443,-6.652,-6.6071,-6.649,-6.667,-6.6191,-6.7867,-6.9004,-6.9004,-7.0171,-7.0889,-7.0889,-7.0889,-7.0889,-7.0889,-7.0889,-7.1158,-7.1727,-7.1846,-7.2505,-7.3762,-7.3851,-7.424,-7.4869,-7.4869,-7.4869,-7.5006,-7.6335,-7.6335,-7.5624,-8.0014,-8.1121,-8.0495,-8.3421,-8.464,-8.464,-8.464,-8.5114,-8.596,-8.7211,-8.8226,-8.8937,-8.9038,-8.9072,-8.9072,-8.9072,-8.9072,-8.9072,-8.9072,-8.9072,-8.9072,-8.9072,-8.9072,-8.9072,-8.9072,-8.9072,-8.9072,-8.9072,-8.9072,-8.9072,-8.9072,-8.9072,-8.9072,-8.9072,-8.9962,-9.1194,-9.2706,-9.3855,-9.5012,-9.6494,-9.6685,-9.6685,-9.6685,-9.6685,-9.6685,-9.6685,-9.6685,-9.6685,-9.6685,-9.6685,-9.6685,-9.6685,-9.6685,-9.6685,-9.6685,-9.8058,-9.889,-9.9007,-10.0421,-10.121,-10.1289,-10.1289,-10.1289,-3.8721,-4.1175,-4.3299,-4.3808,-4.6292,-4.8506,-4.8177,-4.7608,-4.692,-4.6172,-4.6292,-4.7489,-5.0631,-5.2217,-5.5029,-6.1044,-6.1852,-6.248,-6.4755,-6.5562,-6.5951,-6.6011,-6.6281,-6.661,-6.7029,-6.8226,-6.9153,-6.9512,-7.038,-7.0889,-7.0889,-7.0889,-7.0889,-7.0889,-7.0889,-7.1398,-7.2445,-7.2445,-7.2924,-7.3881,-7.424,-7.4569,-7.4869,-7.4869,-7.4869,-7.5006,-7.5728,-7.6099,-7.6467,-7.9649,-8.1003,-8.1356,-8.3674,-8.464,-8.4742,-8.5554,-8.6095,-8.6602,-8.8057,-8.8801,-8.9072,-8.9072,-8.9072,-8.9072,-8.9072,-8.9072,-8.9072,-8.9072,-8.9072,-8.9072,-8.9072,-8.9072,-8.9072,-8.9072,-8.9072,-8.9072,-8.9072,-8.9072,-8.9072,-8.9072,-8.9072,-8.9072,-8.9072,-9.0143,-9.1398,-9.2706,-9.3945,-9.5265,-9.6531,-9.6685,-9.6685,-9.6685,-9.6685,-9.6685,-9.6685,-9.6685,-9.6685,-9.6685,-9.6685,-9.6685,-9.6685,-9.6685,-9.6685,-9.6685,-9.8188,-9.9007,-9.9007,-10.0512,-10.1289,-10.1289,-10.1289,-10.1289,-3.8212,-4.0157,-4.2491,-4.5304,-4.8297,-5.087,-5.1947,-5.1468,-5.0511,-4.9613,-5.0092,-5.105,-5.2366,-5.5688,-5.9937,-6.5024,-6.4545,-6.4156,-6.5981,-6.5802,-6.5682,-6.6191,-6.6251,-6.67,-6.7867,-6.8585,-6.9273,-6.9931,-7.056,-7.0889,-7.0889,-7.0889,-7.0889,-7.0889,-7.1038,-7.1697,-7.2894,-7.3073,-7.3462,-7.4121,-7.4629,-7.4869,-7.4869,-7.4869,-7.4869,-7.4869,-7.5248,-7.6202,-7.7419,-7.9559,-8.1121,-8.2345,-8.4035,-8.4742,-8.5046,-8.623,-8.6873,-8.7313,-8.8429,-8.8937,-8.9072,-8.9072,-8.9072,-8.9072,-8.9072,-8.9072,-8.9072,-8.9072,-8.9072,-8.9072,-8.9072,-8.9072,-8.9072,-8.9072,-8.9072,-8.9072,-8.9072,-8.9072,-8.9072,-8.9072,-8.9072,-8.9072,-8.9072,-9.0429,-9.1766,-9.2802,-9.4248,-9.5586,-9.6608,-9.6685,-9.6685,-9.6685,-9.6685,-9.6685,-9.6685,-9.6685,-9.6685,-9.6685,-9.6685,-9.6685,-9.6685,-9.6685,-9.6685,-9.6685,-9.8188,-9.9007,-9.9007,-10.0512,-10.1289,-10.1289,-10.1289,-10.1289,-4.1145,-4.2581,-4.3988,-4.7249,-4.692,-4.692,-5.1229,-5.075,-5.0062,-5.2366,-5.3862,-5.5149,-5.6436,-5.9458,-6.1882,-6.2361,-6.3827,-6.5353,-6.6729,-6.6879,-6.6879,-6.6909,-6.6909,-6.7208,-6.7897,-6.8585,-6.9273,-6.9931,-7.056,-7.0889,-7.0889,-7.0889,-7.0889,-7.0889,-7.1487,-7.2176,-7.2894,-7.3522,-7.4151,-7.4809,-7.4869,-7.4869,-7.4869,-7.4869,-7.4869,-7.5006,-7.6436,-7.716,-7.7548,-8.0734,-8.2083,-8.2345,-8.4035,-8.508,-8.5723,-8.5824,-8.6738,-8.7955,-8.8023,-8.8531,-8.9072,-8.9072,-8.9072,-8.9072,-8.9072,-8.9072,-8.9072,-8.9072,-8.9072,-8.9072,-8.9072,-8.9072,-8.9072,-8.9072,-8.9072,-8.9072,-8.9072,-8.9072,-8.9072,-8.9072,-8.9072,-8.9072,-8.9072,-9.1194,-9.2802,-9.2896,-9.4976,-9.6608,-9.6685,-9.6685,-9.6685,-9.6685,-9.6685,-9.6685,-9.6685,-9.6685,-9.6685,-9.6685,-9.6685,-9.6685,-9.6685,-9.6685,-9.6685,-9.6685,-9.8188,-9.9007,-9.9007,-10.0512,-10.1289,-10.1289,-10.1289,-10.1289,-3.9948,-4.1923,-4.3958,-4.6441,-4.7728,-4.9583,-5.4192,-5.5329,-5.5658,-5.6675,-5.7932,-5.9009,-5.9518,-6.263,-6.4874,-6.4066,-6.5233,-6.643,-6.6909,-6.6999,-6.6999,-6.6999,-6.6999,-6.7418,-6.8495,-6.8854,-6.9423,-7.047,-7.0769,-7.0889,-7.0889,-7.0889,-7.0889,-7.0889,-7.1547,-7.2206,-7.2894,-7.3552,-7.424,-7.4869,-7.4869,-7.4869,-7.4869,-7.4869,-7.4869,-7.4869,-7.5489,-7.6335,-7.7548,-7.9771,-8.1271,-8.2378,-8.4539,-8.552,-8.5892,-8.6805,-8.7516,-8.8057,-8.8497,-8.8869,-8.9072,-8.9072,-8.9072,-8.9072,-8.9072,-8.9072,-8.9072,-8.9072,-8.9072,-8.9072,-8.9072,-8.9072,-8.9072,-8.9072,-8.9072,-8.9072,-8.9072,-8.9072,-8.9072,-8.9072,-8.9072,-8.9373,-9.0143,-9.1766,-9.3178,-9.3945,-9.5549,-9.6685,-9.6685,-9.6685,-9.6685,-9.6685,-9.6685,-9.6685,-9.6685,-9.6685,-9.6685,-9.6685,-9.6685,-9.6685,-9.6685,-9.6685,-9.6685,-9.6685,-9.8188,-9.9007,-9.9007,-10.0512,-10.1289,-10.1289,-10.1289,-10.1289,-4.0726,-4.2611,-4.4885,-4.7279,-4.9075,-5.1498,-5.6316,-5.7812,-5.865,-6.0326,-6.0894,-6.1373,-6.2211,-6.4036,-6.5353,-6.5084,-6.6131,-6.6999,-6.6999,-6.6999,-6.6999,-6.6999,-6.6999,-6.7537,-6.8884,-6.9004,-6.9542,-7.0799,-7.0889,-7.0889,-7.0889,-7.0889,-7.0889,-7.0889,-7.1757,-7.2445,-7.2924,-7.3762,-7.442,-7.4869,-7.4869,-7.4869,-7.4869,-7.4869,-7.4869,-7.4869,-7.5489,-7.6599,-7.8186,-7.9925,-8.1636,-8.3487,-8.5464,-8.6298,-8.6602,-8.7617,-8.8158,-8.8395,-8.8903,-8.9072,-8.9072,-8.9072,-8.9072,-8.9072,-8.9072,-8.9072,-8.9072,-8.9072,-8.9072,-8.9072,-8.9072,-8.9072,-8.9072,-8.9072,-8.9072,-8.9072,-8.9072,-8.9072,-8.9072,-8.9072,-8.9072,-8.9449,-9.0815,-9.2063,-9.3363,-9.4633,-9.5866,-9.6685,-9.6685,-9.6685,-9.6685,-9.6685,-9.6685,-9.6685,-9.6685,-9.6685,-9.6685,-9.6685,-9.6685,-9.6685,-9.6685,-9.6685,-9.6685,-9.6685,-9.8188,-9.9007,-9.9007,-10.0512,-10.1289,-10.1289,-10.1289,-10.1289,-4.4287,-4.5274,-4.713,-5.0391,-5.075,-5.1708,-5.6944,-5.7124,-5.7693,-6.2929,-6.248,-6.1942,-6.4545,-6.3438,-6.278,-6.4725,-6.6131,-6.6999,-6.6999,-6.6999,-6.6999,-6.6999,-6.6999,-6.7537,-6.8884,-6.9004,-6.9542,-7.0799,-7.0889,-7.0889,-7.0889,-7.0889,-7.0889,-7.0889,-7.2206,-7.2924,-7.2924,-7.421,-7.4869,-7.4869,-7.4869,-7.4869,-7.4869,-7.4869,-7.4869,-7.5006,-7.6568,-7.8313,-7.9925,-8.1505,-8.3632,-8.5858,-8.6636,-8.738,-8.7989,-8.7989,-8.8463,-8.9072,-8.9072,-8.9072,-8.9072,-8.9072,-8.9072,-8.9072,-8.9072,-8.9072,-8.9072,-8.9072,-8.9072,-8.9072,-8.9072,-8.9072,-8.9072,-8.9072,-8.9072,-8.9072,-8.9072,-8.9072,-8.9072,-8.9072,-8.9072,-8.9449,-9.0815,-9.2028,-9.3363,-9.4633,-9.5866,-9.6685,-9.6685,-9.6685,-9.6685,-9.6685,-9.6685,-9.6685,-9.6685,-9.6685,-9.6685,-9.6685,-9.6685,-9.6685,-9.6685,-9.6685,-9.6685,-9.6685,-9.8188,-9.9007,-9.9007,-10.0589,-10.1289,-10.1289,-10.1289,-10.1289,-4.1564,-4.4556,-4.7938,-4.8925,-5.2845,-5.6885,-5.8471,-5.8501,-5.9458,-6.3827,-6.4276,-6.4096,-6.4874,-6.5293,-6.5443,-6.5084,-6.6131,-6.6999,-6.6999,-6.6999,-6.6999,-6.6999,-6.7388,-6.8016,-6.8914,-6.9423,-7.0021,-7.0829,-7.0889,-7.0889,-7.0889,-7.0889,-7.0889,-7.0889,-7.2206,-7.2924,-7.2924,-7.421,-7.4869,-7.4869,-7.4869,-7.4869,-7.4869,-7.4869,-7.4869,-7.5006,-7.6568,-7.8282,-8.0078,-8.3394,-8.5195,-8.5892,-8.7177,-8.782,-8.8057,-8.8564,-8.8903,-8.9072,-8.9072,-8.9072,-8.9072,-8.9072,-8.9072,-8.9072,-8.9072,-8.9072,-8.9072,-8.9072,-8.9072,-8.9072,-8.9072,-8.9072,-8.9072,-8.9072,-8.9072,-8.9072,-8.9072,-8.9072,-8.9072,-8.9072,-8.9072,-8.9744,-9.1929,-9.2611,-9.3638,-9.583,-9.6416,-9.6685,-9.6685,-9.6685,-9.6685,-9.6685,-9.6685,-9.6685,-9.6685,-9.6685,-9.6685,-9.6685,-9.6685,-9.6685,-9.6685,-9.6685,-9.6915,-9.7492,-9.8467,-9.9291,-9.9847,-10.0765,-10.1289,-10.1289,-10.1289,-10.1289,-4.5394,-4.8596,-5.1798,-5.3384,-5.6466,-5.9458,-6.0745,-6.1253,-6.2211,-6.4874,-6.5203,-6.5173,-6.5712,-6.6041,-6.6131,-6.5862,-6.646,-6.6999,-6.6999,-6.6999,-6.6999,-6.6999,-6.7567,-6.8256,-6.8944,-6.9602,-7.0231,-7.0859,-7.0889,-7.0889,-7.0889,-7.0889,-7.1009,-7.1278,-7.2355,-7.3043,-7.3313,-7.436,-7.4869,-7.4869,-7.4869,-7.4869,-7.4869,-7.4869,-7.4869,-7.5006,-7.7321,-7.9809,-8.2428,-8.5168,-8.6399,-8.6771,-8.7955,-8.8429,-8.8497,-8.8937,-8.9072,-8.9072,-8.9072,-8.9072,-8.9072,-8.9072,-8.9072,-8.9072,-8.9072,-8.9072,-8.9072,-8.9072,-8.9072,-8.9072,-8.9072,-8.9072,-8.9072,-8.9072,-8.9072,-8.9072,-8.9072,-8.9072,-8.9072,-8.9072,-8.9072,-8.9962,-9.2418,-9.2896,-9.3729,-9.6338,-9.6685,-9.6685,-9.6685,-9.6685,-9.6685,-9.6685,-9.6685,-9.6685,-9.6685,-9.6685,-9.6685,-9.6685,-9.6685,-9.6685,-9.6685,-9.6685,-9.7027,-9.7763,-9.8591,-9.9401,-10.0185,-10.0889,-10.1289,-10.1289,-10.1289,-10.1289,-5.2187,-5.47,-5.7064,-6.0805,-6.0625,-6.0356,-6.3408,-6.4635,-6.5293,-6.5892,-6.5592,-6.5562,-6.6759,-6.6011,-6.5592,-6.6789,-6.6999,-6.6999,-6.6999,-6.6999,-6.6999,-6.7059,-6.7657,-6.8345,-6.9034,-6.9692,-7.029,-7.0859,-7.0889,-7.0889,-7.0889,-7.0889,-7.1218,-7.1876,-7.2565,-7.3223,-7.3881,-7.454,-7.4869,-7.4869,-7.4869,-7.4869,-7.4869,-7.4869,-7.5172,-7.558,-7.8471,-8.2079,-8.5926,-8.6636,-8.7347,-8.8057,-8.8801,-8.9072,-8.9072,-8.9072,-8.9072,-8.9072,-8.9072,-8.9072,-8.9072,-8.9072,-8.9072,-8.9072,-8.9072,-8.9072,-8.9072,-8.9072,-8.9072,-8.9072,-8.9072,-8.9072,-8.9072,-8.9072,-8.9072,-8.9072,-8.9072,-8.9072,-8.9072,-8.9072,-8.9184,-9.0036,-9.2515,-9.2991,-9.3945,-9.6301,-9.6685,-9.6685,-9.6685,-9.6685,-9.6685,-9.6685,-9.6685,-9.6685,-9.6685,-9.6685,-9.6685,-9.6685,-9.6685,-9.6685,-9.6685,-9.6685,-9.7101,-9.786,-9.8651,-9.9401,-10.0319,-10.1008,-10.1289,-10.1289,-10.1289,-10.1289,-4.6322,-5.1199,-5.6615,-5.8501,-6.0984,-6.3288,-6.4515,-6.5323,-6.5832,-6.5981,-6.6311,-6.667,-6.6939,-6.6759,-6.667,-6.6939,-6.6999,-6.6999,-6.6999,-6.6999,-6.7178,-6.7687,-6.8375,-6.9034,-6.9692,-7.032,-7.0769,-7.0889,-7.0889,-7.0889,-7.0889,-7.0889,-7.1218,-7.1876,-7.2565,-7.3223,-7.3881,-7.454,-7.4869,-7.4869,-7.4869,-7.4869,-7.4869,-7.4869,-7.664,-7.9574,-7.9782,-8.2374,-8.667,-8.6839,-8.7347,-8.8057,-8.8801,-8.9072,-8.9072,-8.9072,-8.9072,-8.9072,-8.9072,-8.9072,-8.9072,-8.9072,-8.9072,-8.9072,-8.9072,-8.9072,-8.9072,-8.9072,-8.9072,-8.9072,-8.9072,-8.9072,-8.9072,-8.9072,-8.9072,-8.9072,-8.9072,-8.9072,-8.9072,-8.9072,-8.9962,-9.1091,-9.2611,-9.3765,-9.4891,-9.6494,-9.6685,-9.6685,-9.6685,-9.6685,-9.6685,-9.6685,-9.6685,-9.6685,-9.6685,-9.6685,-9.6685,-9.6685,-9.6685,-9.6685,-9.6685,-9.6685,-9.7317,-9.8712,-9.8949,-9.9706,-10.1129,-10.1171,-10.1289,-10.1289,-10.1289,-10.1289,-4.8506,-5.2785,-5.6944,-6.0146,-6.272,-6.4665,-6.5353,-6.6011,-6.649,-6.649,-6.6759,-6.6999,-6.6999,-6.6999,-6.6999,-6.6999,-6.6999,-6.6999,-6.6999,-6.7268,-6.7597,-6.7926,-6.8854,-6.9602,-6.9961,-7.056,-7.0889,-7.0889,-7.0889,-7.0889,-7.0889,-7.0889,-7.1368,-7.2355,-7.2744,-7.3373,-7.436,-7.4719,-7.4869,-7.4869,-7.4869,-7.4869,-7.4869,-7.4869,-7.7099,-8.0918,-8.0091,-8.2753,-8.7414,-8.7076,-8.755,-8.8564,-8.8937,-8.9072,-8.9072,-8.9072,-8.9072,-8.9072,-8.9072,-8.9072,-8.9072,-8.9072,-8.9072,-8.9072,-8.9072,-8.9072,-8.9072,-8.9072,-8.9072,-8.9072,-8.9072,-8.9072,-8.9072,-8.9072,-8.9072,-8.9072,-8.9072,-8.9072,-8.9072,-8.9072,-9.0143,-9.1398,-9.2706,-9.4423,-9.5947,-9.6608,-9.6685,-9.6685,-9.6685,-9.6685,-9.6685,-9.6685,-9.6685,-9.6685,-9.6685,-9.6685,-9.6685,-9.6685,-9.6685,-9.6685,-9.6685,-9.6685,-9.7459,-9.9007,-9.9007,-9.9758,-10.1289,-10.1289,-10.1289,-10.1289,-10.1289,-10.152,-5.1079,-5.4551,-5.7423,-6.269,-6.4515,-6.5203,-6.5862,-6.652,-6.6999,-6.6999,-6.6999,-6.6999,-6.6999,-6.6999,-6.6999,-6.6999,-6.6999,-6.6999,-6.6999,-6.7567,-6.8016,-6.8136,-6.9243,-7.0021,-7.0141,-7.062,-7.0889,-7.0889,-7.0889,-7.0889,-7.0889,-7.0889,-7.1517,-7.2864,-7.2924,-7.3552,-7.4869,-7.4869,-7.4869,-7.4869,-7.4869,-7.4869,-7.4869,-7.4988,-7.7253,-8.1079,-8.0251,-8.3113,-8.8125,-8.738,-8.7888,-8.9072,-8.9072,-8.9072,-8.9072,-8.9072,-8.9072,-8.9072,-8.9072,-8.9072,-8.9072,-8.9072,-8.9072,-8.9072,-8.9072,-8.9072,-8.9072,-8.9072,-8.9072,-8.9072,-8.9072,-8.9072,-8.9072,-8.9072,-8.9072,-8.9072,-8.9072,-8.9072,-8.9072,-8.9072,-9.0323,-9.1766,-9.3271,-9.5265,-9.6685,-9.6685,-9.6685,-9.6685,-9.6685,-9.6685,-9.6685,-9.6685,-9.6685,-9.6685,-9.6685,-9.6685,-9.6685,-9.6685,-9.6685,-9.6685,-9.6685,-9.6685,-9.7459,-9.9007,-9.9007,-9.9758,-10.1289,-10.1289,-10.1289,-10.1289,-10.1289,-10.1789,-4.3928,-5.0002,-5.7423,-6.269,-6.4515,-6.5203,-6.5862,-6.652,-6.6999,-6.6999,-6.6999,-6.6999,-6.6999,-6.6999,-6.6999,-6.6999,-6.6999,-6.6999,-6.6999,-6.7567,-6.8196,-6.8794,-6.9512,-7.0201,-7.0739,-7.0859,-7.0889,-7.0889,-7.0889,-7.0889,-7.0889,-7.0889,-7.1517,-7.2864,-7.2924,-7.3552,-7.4869,-7.4869,-7.4869,-7.4869,-7.4869,-7.4869,-7.4899,-7.5497,-7.799,-8.1816,-8.1111,-8.3867,-8.8869,-8.8158,-8.8328,-8.9072,-8.9072,-8.9072,-8.9072,-8.9072,-8.9072,-8.9072,-8.9072,-8.9072,-8.9072,-8.9072,-8.9072,-8.9072,-8.9072,-8.9072,-8.9072,-8.9072,-8.9072,-8.9072,-8.9072,-8.9072,-8.9072,-8.9072,-8.9072,-8.9072,-8.9072,-8.9072,-8.9072,-8.9072,-9.0988,-9.3363,-9.5749,-9.6494,-9.6685,-9.6685,-9.6685,-9.6685,-9.6685,-9.6685,-9.6685,-9.6685,-9.6685,-9.6685,-9.6685,-9.6685,-9.6685,-9.6685,-9.6685,-9.6685,-9.6685,-9.6685,-9.7459,-9.9007,-9.9007,-9.9758,-10.1289,-10.1289,-10.1289,-10.1289,-10.1289,-10.1789,-4.5992,-5.1917,-5.7962,-6.3258,-6.4814,-6.5293,-6.6311,-6.6789,-6.6999,-6.6999,-6.6999,-6.6999,-6.6999,-6.6999,-6.6999,-6.6999,-6.6999,-6.7119,-6.7478,-6.8136,-6.8794,-6.9482,-7.0111,-7.062,-7.0889,-7.0889,-7.0889,-7.0889,-7.0889,-7.0889,-7.0889,-7.1248,-7.1906,-7.2894,-7.3283,-7.3911,-7.4869,-7.4869,-7.4869,-7.4869,-7.4869,-7.4869,-7.4899,-7.5587,-7.8113,-8.1944,-8.1655,-8.4391,-8.9038,-8.8294,-8.8429,-8.9072,-8.9072,-8.9072,-8.9072,-8.9072,-8.9072,-8.9072,-8.9072,-8.9072,-8.9072,-8.9072,-8.9072,-8.9072,-8.9072,-8.9072,-8.9072,-8.9072,-8.9072,-8.9072,-8.9072,-8.9072,-8.9072,-8.9072,-8.9072,-8.9072,-8.9072,-8.9669,-9.064,-9.2063,-9.3178,-9.4511,-9.6416,-9.6685,-9.6685,-9.6685,-9.6685,-9.6685,-9.6685,-9.6685,-9.6685,-9.6685,-9.6685,-9.6685,-9.6685,-9.6685,-9.6685,-9.6685,-9.6685,-9.6685,-9.6685,-9.6685,-9.7459,-9.9007,-9.9007,-9.9758,-10.1289,-10.1289,-10.1289,-10.1289,-10.1289,-10.202,-4.7189,-5.1738,-5.5598,-6.1942,-6.3797,-6.4545,-6.655,-6.6999,-6.6999,-6.6999,-6.6999,-6.6999,-6.6999,-6.6999,-6.6999,-6.6999,-6.6999,-6.7208,-6.7867,-6.8555,-6.9243,-6.9901,-7.053,-7.0889,-7.0889,-7.0889,-7.0889,-7.0889,-7.0889,-7.0889,-7.0889,-7.1517,-7.2206,-7.2894,-7.3552,-7.421,-7.4869,-7.4869,-7.4869,-7.4869,-7.4869,-7.4958,-7.5168,-7.6348,-7.8729,-8.2264,-8.2139,-8.485,-8.9038,-8.8497,-8.8598,-8.9072,-8.9072,-8.9072,-8.9072,-8.9072,-8.9072,-8.9072,-8.9072,-8.9072,-8.9072,-8.9072,-8.9072,-8.9072,-8.9072,-8.9072,-8.9072,-8.9072,-8.9072,-8.9072,-8.9072,-8.9072,-8.9072,-8.9072,-8.9072,-8.9184,-8.9449,-9.0323,-9.1766,-9.4336,-9.4806,-9.5181,-9.6494,-9.6685,-9.6685,-9.6685,-9.6685,-9.6685,-9.6685,-9.6685,-9.6685,-9.6685,-9.6685,-9.6685,-9.6685,-9.6685,-9.6685,-9.6685,-9.6685,-9.6685,-9.6685,-9.6685,-9.7459,-9.9007,-9.9007,-9.9758,-10.1289,-10.1289,-10.1289,-10.1289,-10.152,-10.2404,-4.303,-4.5274,-4.8087,-5.7154,-6.0356,-6.2301,-6.6131,-6.6999,-6.6999,-6.6999,-6.6999,-6.6999,-6.6999,-6.6999,-6.6999,-6.6999,-6.6999,-6.7208,-6.7867,-6.8555,-6.9243,-6.9901,-7.053,-7.0889,-7.0889,-7.0889,-7.0889,-7.0889,-7.0889,-7.0889,-7.0889,-7.1517,-7.2206,-7.2894,-7.3552,-7.421,-7.4869,-7.4869,-7.4869,-7.4869,-7.4869,-7.5228,-7.5856,-7.8121,-8.0569,-8.2875,-8.2875,-8.5341,-8.9072,-8.9038,-8.9038,-8.9072,-8.9072,-8.9072,-8.9072,-8.9072,-8.9072,-8.9072,-8.9072,-8.9072,-8.9072,-8.9072,-8.9072,-8.9072,-8.9072,-8.9072,-8.9072,-8.9072,-8.9072,-8.9072,-8.9072,-8.9072,-8.9072,-8.9072,-8.9072,-8.9483,-9.064,-9.0919,-9.1766,-9.4336,-9.4806,-9.5181,-9.6494,-9.6685,-9.6685,-9.6685,-9.6685,-9.6685,-9.6685,-9.6685,-9.6685,-9.6685,-9.6685,-9.6685,-9.6685,-9.6685,-9.6685,-9.6685,-9.6685,-9.6685,-9.6685,-9.6685,-9.7459,-9.9007,-9.9007,-9.9758,-10.1289,-10.1289,-10.1289,-10.1289,-10.2097,-10.302,-4.1803,-4.3838,-4.6381,-5.3533,-5.7573,-6.0535,-6.3228,-6.5473,-6.6999,-6.6999,-6.6999,-6.6999,-6.6999,-6.6999,-6.6999,-6.6999,-6.6999,-6.7358,-6.8495,-6.8854,-6.9393,-7.044,-7.0769,-7.0889,-7.0889,-7.0889,-7.0889,-7.0889,-7.0889,-7.0889,-7.0889,-7.1936,-7.2654,-7.2894,-7.3971,-7.4629,-7.4869,-7.4869,-7.4869,-7.4869,-7.4869,-7.5018,-7.5288,-7.6969,-7.949,-8.2425,-8.3227,-8.5678,-8.9072,-8.9072,-8.9072,-8.9072,-8.9072,-8.9072,-8.9072,-8.9072,-8.9072,-8.9072,-8.9072,-8.9072,-8.9072,-8.9072,-8.9072,-8.9072,-8.9072,-8.9072,-8.9072,-8.9072,-8.9072,-8.9072,-8.9072,-8.9072,-8.9072,-8.9072,-8.9072,-8.9483,-9.071,-9.1665,-9.2706,-9.4423,-9.5467,-9.6143,-9.6608,-9.6685,-9.6685,-9.6685,-9.6685,-9.6685,-9.6685,-9.6685,-9.6685,-9.6685,-9.6685,-9.6685,-9.6685,-9.6685,-9.6685,-9.6685,-9.6685,-9.6685,-9.6685,-9.7137,-9.7897,-9.9007,-9.9547,-10.0319,-10.1289,-10.1289,-10.1289,-10.1289,-10.2212,-10.3097,-3.9606,-4.1504,-4.4107,-5.0062,-5.3533,-5.6705,-6.1373,-6.3767,-6.5383,-6.6729,-6.6999,-6.6999,-6.6999,-6.6999,-6.6999,-6.6999,-6.7178,-6.7717,-6.8824,-6.9183,-6.9722,-7.0769,-7.0889,-7.0889,-7.0889,-7.0889,-7.0889,-7.0889,-7.0889,-7.0889,-7.0889,-7.2176,-7.3133,-7.3552,-7.442,-7.4869,-7.4869,-7.4869,-7.4869,-7.4869,-7.4869,-7.5108,-7.5557,-7.7059,-7.9481,-8.2745,-8.4212,-8.6393,-8.9072,-8.9072,-8.9072,-8.9072,-8.9072,-8.9072,-8.9072,-8.9072,-8.9072,-8.9072,-8.9072,-8.9072,-8.9072,-8.9072,-8.9072,-8.9072,-8.9072,-8.9072,-8.9072,-8.9072,-8.9072,-8.9072,-8.9072,-8.9072,-8.9072,-8.9072,-8.9072,-8.9483,-9.071,-9.2063,-9.3271,-9.4511,-9.583,-9.6685,-9.6685,-9.6685,-9.6685,-9.6685,-9.6685,-9.6685,-9.6685,-9.6685,-9.6685,-9.6685,-9.6685,-9.6685,-9.6685,-9.6685,-9.6685,-9.6685,-9.6685,-9.6685,-9.6685,-9.7422,-9.8151,-9.9007,-9.9796,-10.0627,-10.1289,-10.1289,-10.152,-10.1789,-10.2597,-10.3597,0.0,0.0,0.0,-4.6561,-4.8087,-5.075,-6.0446,-6.1762,-6.2061,-6.6041,-6.6849,-6.6879,-6.6969,-6.6999,-6.6999,-6.6999,-6.7537,-6.8196,-6.8884,-6.9542,-7.0201,-7.0829,-7.0889,-7.0889,-7.0889,-7.0889,-7.0889,-7.0889,-7.0889,-7.0889,-7.0889,-7.2176,-7.3522,-7.4839,-7.4869,-7.4869,-7.4869,-7.4869,-7.4869,-7.4869,-7.4869,-7.5557,-7.6784,-7.8593,-8.0977,-8.4091,-8.5752,-8.7411,-8.9072,-8.9072,-8.9072,-8.9072,-8.9072,-8.9072,-8.9072,-8.9072,-8.9072,-8.9072,-8.9072,-8.9072,-8.9072,-8.9072,-8.9072,-8.9072,-8.9072,-8.9072,-8.9072,-8.9072,-8.9072,-8.9072,-8.9072,-8.9072,-8.9072,-8.9072,-8.9072,-8.9483,-9.071,-9.2063,-9.3271,-9.4511,-9.583,-9.6685,-9.6685,-9.6685,-9.6685,-9.6685,-9.6685,-9.6685,-9.6685,-9.6685,-9.6685,-9.6685,-9.6685,-9.6685,-9.6685,-9.6685,-9.6685,-9.6685,-9.6685,-9.6685,-9.6762,-9.7422,-9.8215,-9.9007,-9.9809,-10.0589,-10.1289,-10.1289,-10.1712,-10.2597,-10.3482,-10.4789,-3.4787,0.0,0.0,0.0,0.0,0.0,-5.2037,-5.5029,-5.8082,-6.254,-6.3438,-6.4186,-6.655,-6.6999,-6.6999,-6.6999,-6.7148,-6.7657,-6.8824,-6.9153,-6.9662,-7.0769,-7.0889,-7.0889,-7.0889,-7.0889,-7.0889,-7.0889,-7.0889,-7.0889,-7.0889,-7.2176,-7.3522,-7.4839,-7.4869,-7.4869,-7.4869,-7.4869,-7.4869,-7.4869,-7.4869,-7.5318,-7.6185,-7.7132,-7.9594,-8.3386,-8.428,-8.6393,-8.9072,-8.9072,-8.9072,-8.9072,-8.9072,-8.9072,-8.9072,-8.9072,-8.9072,-8.9072,-8.9072,-8.9072,-8.9072,-8.9072,-8.9072,-8.9072,-8.9072,-8.9072,-8.9072,-8.9072,-8.9072,-8.9072,-8.9072,-8.9072,-8.9072,-8.9072,-8.9072,-8.9483,-9.071,-9.2063,-9.3271,-9.4511,-9.583,-9.6685,-9.6685,-9.6685,-9.6685,-9.6685,-9.6685,-9.6685,-9.6685,-9.6685,-9.6685,-9.6685,-9.6685,-9.6685,-9.6685,-9.6685,-9.6685,-9.6685,-9.6685,-9.6915,-9.7492,-9.8215,-9.9065,-9.9847,-10.0633,-10.1091,-10.1289,-10.1289,-10.1712,-10.2597,-10.4097,-10.5405,-3.5747,-3.699,-3.8542,-3.9738,0.0,0.0,-5.078,-5.3503,-5.6555,-6.2839,-6.4126,-6.4725,-6.664,-6.6999,-6.6999,-6.6999,-6.6999,-6.7358,-6.8435,-6.9064,-6.9692,-7.044,-7.0739,-7.0889,-7.0889,-7.0889,-7.0889,-7.0889,-7.0889,-7.1158,-7.1697,-7.2505,-7.3522,-7.4839,-7.4869,-7.4869,-7.4869,-7.4869,-7.4869,-7.4869,-7.4869,-7.5377,-7.6305,-7.6664,-7.925,-8.3419,-8.3803,-8.5907,-8.9072,-8.9072,-8.9072,-8.9072,-8.9072,-8.9072,-8.9072,-8.9072,-8.9072,-8.9072,-8.9072,-8.9072,-8.9072,-8.9072,-8.9072,-8.9072,-8.9072,-8.9072,-8.9072,-8.9072,-8.9072,-8.9072,-8.9072,-8.9072,-8.9072,-8.9072,-8.9072,-8.9559,-9.1363,-9.2418,-9.3271,-9.4511,-9.583,-9.6685,-9.6685,-9.6685,-9.6685,-9.6685,-9.6685,-9.6685,-9.6685,-9.6685,-9.6685,-9.6685,-9.6685,-9.6685,-9.6685,-9.6685,-9.6685,-9.6685,-9.6685,-9.7027,-9.7763,-9.8591,-9.9346,-10.0223,-10.0889,-10.152,-10.1789,-10.1789,-10.252,-10.3712,-10.4982,-10.5905,-3.7945,-3.8852,-3.995,-4.1654,-4.1324,0.0,-5.2306,-5.3683,-5.5299,-6.3348,-6.5024,-6.5173,-6.5682,-6.5802,-6.5802,-6.5892,-6.6191,-6.6819,-6.7837,-6.9064,-6.9901,-6.9961,-7.053,-7.0889,-7.0889,-7.0889,-7.0889,-7.0889,-7.0889,-7.1487,-7.2834,-7.2924,-7.3522,-7.4839,-7.4869,-7.4869,-7.4869,-7.4869,-7.4869,-7.4869,-7.4958,-7.5647,-7.6844,-7.7014,-7.9663,-8.3995,-8.4251,-8.6151,-8.9072,-8.9072,-8.9072,-8.9072,-8.9072,-8.9072,-8.9072,-8.9072,-8.9072,-8.9072,-8.9072,-8.9072,-8.9072,-8.9072,-8.9072,-8.9072,-8.9072,-8.9072,-8.9072,-8.9072,-8.9072,-8.9072,-8.9072,-8.9072,-8.9072,-8.9072,-8.9184,-8.9928,-9.2418,-9.2991,-9.3455,-9.4806,-9.5947,-9.6685,-9.6685,-9.6685,-9.6685,-9.6685,-9.6685,-9.6685,-9.6685,-9.6685,-9.6685,-9.6685,-9.6685,-9.6685,-9.6685,-9.6685,-9.6685,-9.6685,-9.6685,-9.7101,-9.786,-9.8651,-9.9401,-10.0319,-10.1008,-10.1789,-10.2712,-10.2712,-10.3597,-10.5097,-10.602,-10.6405,-3.7866,-3.8831,-4.0284,-4.0055,-4.0995,0.0,-4.324,-4.4526,-4.689,-5.1738,-5.2725,-5.3862,-5.7603,-5.8291,-5.8441,-5.8949,-6.1283,-6.4186,-6.7508,-6.8675,-6.9393,-6.9931,-7.053,-7.0889,-7.0889,-7.0889,-7.0889,-7.0889,-7.0889,-7.1487,-7.2834,-7.2924,-7.3522,-7.4839,-7.4869,-7.4869,-7.4869,-7.4869,-7.4869,-7.4899,-7.5437,-7.6096,-7.6844,-7.8766,-8.1244,-8.4123,-8.5382,-8.7143,-8.9072,-8.9072,-8.9072,-8.9072,-8.9072,-8.9072,-8.9072,-8.9072,-8.9072,-8.9072,-8.9072,-8.9072,-8.9072,-8.9072,-8.9072,-8.9072,-8.9072,-8.9072,-8.9072,-8.9072,-8.9072,-8.9072,-8.9072,-8.9072,-8.9072,-8.9072,-8.9853,-9.0988,-9.2611,-9.3674,-9.4806,-9.6027,-9.6531,-9.6685,-9.6685,-9.6685,-9.6685,-9.6685,-9.6685,-9.6685,-9.6685,-9.6685,-9.6685,-9.6685,-9.6685,-9.6685,-9.6685,-9.6685,-9.6685,-9.6685,-9.6685,-9.7317,-9.8712,-9.8949,-9.9653,-10.1129,-10.1171,-10.2097,-10.3597,-10.3597,-10.4097,-10.5097,-10.602,-10.6405,-3.8519,-3.8839,-3.9839,-4.0363,-4.0793,0.0,0.0,-4.4825,-4.6352,-5.1618,-5.1917,-5.2127,-5.5119,-5.5418,-5.5388,-5.6047,-5.9219,-6.1822,-6.245,-6.5981,-6.8734,-6.9423,-7.0051,-7.056,-7.0859,-7.0889,-7.0889,-7.0889,-7.0889,-7.1487,-7.2834,-7.2924,-7.3522,-7.4839,-7.4869,-7.4869,-7.4869,-7.4869,-7.4869,-7.4899,-7.5587,-7.6245,-7.6844,-7.9298,-8.1767,-8.4123,-8.5752,-8.7529,-8.9072,-8.9072,-8.9072,-8.9072,-8.9072,-8.9072,-8.9072,-8.9072,-8.9072,-8.9072,-8.9072,-8.9072,-8.9072,-8.9072,-8.9072,-8.9072,-8.9072,-8.9072,-8.9072,-8.9072,-8.9072,-8.9072,-8.9072,-8.9072,-8.9072,-8.9072,-9.0036,-9.1398,-9.2611,-9.3945,-9.5181,-9.6416,-9.6685,-9.6685,-9.6685,-9.6685,-9.6685,-9.6685,-9.6685,-9.6685,-9.6685,-9.6685,-9.6685,-9.6685,-9.6685,-9.6685,-9.6685,-9.6685,-9.6685,-9.6685,-9.7027,-9.78,-9.8949,-9.9401,-10.006,-10.1288,-10.1712,-10.2597,-10.3905,-10.4289,-10.4905,-10.579,-10.6213,-10.6405,-3.9852,-3.9393,-3.9881,-4.1029,-4.085,-4.1666,0.0,0.0,0.0,-5.2396,-5.2127,-5.1349,-5.2815,-5.2546,-5.2366,-5.3144,-5.6496,-5.8291,-5.6256,-6.1583,-6.6041,-6.6969,-6.8794,-6.9961,-6.9961,-6.9842,-7.0081,-7.0829,-7.0201,-7.0649,-7.2624,-7.2834,-7.3462,-7.4659,-7.4809,-7.4869,-7.4869,-7.4869,-7.4869,-7.4899,-7.5707,-7.6335,-7.6844,-7.9798,-8.2156,-8.4123,-8.6118,-8.7795,-8.9072,-8.9072,-8.9072,-8.9072,-8.9072,-8.9072,-8.9072,-8.9072,-8.9072,-8.9072,-8.9072,-8.9072,-8.9072,-8.9072,-8.9072,-8.9072,-8.9072,-8.9072,-8.9072,-8.9072,-8.9072,-8.9072,-8.9072,-8.9072,-8.9072,-8.9072,-9.025,-9.1665,-9.2706,-9.4123,-9.5467,-9.6494,-9.6685,-9.6685,-9.6685,-9.6685,-9.6685,-9.6685,-9.6685,-9.6685,-9.6685,-9.6685,-9.6685,-9.6685,-9.6685,-9.6685,-9.6685,-9.6685,-9.6685,-9.6685,-9.7351,-9.8188,-9.9007,-9.9898,-10.0716,-10.1327,-10.2212,-10.302,-10.3905,-10.4713,-10.5482,-10.6405,-10.6405,-10.6405,-4.1629,-4.1285,-4.1736,-4.0371,-4.1874,-4.3056,-4.0538,0.0,-4.2312,-4.3658,0.0,-4.3299,-4.5214,0.0,0.0,-4.6232,-4.9254,-5.1558,-5.1858,-5.5119,-5.8201,-6.0027,-6.6011,-6.9064,-6.6789,-6.6041,-6.7148,-7.0649,-6.7657,-6.7537,-7.1787,-7.2595,-7.3253,-7.3971,-7.4569,-7.4869,-7.4869,-7.4869,-7.4869,-7.4899,-7.6125,-7.6754,-7.6984,-8.1471,-8.3771,-8.4123,-8.7411,-8.8959,-8.9072,-8.9072,-8.9072,-8.9072,-8.9072,-8.9072,-8.9072,-8.9072,-8.9072,-8.9072,-8.9072,-8.9072,-8.9072,-8.9072,-8.9072,-8.9072,-8.9072,-8.9072,-8.9072,-8.9072,-8.9072,-8.9072,-8.9072,-8.9072,-8.9072,-8.9072,-9.0884,-9.2706,-9.2896,-9.4806,-9.6531,-9.6685,-9.6685,-9.6685,-9.6685,-9.6685,-9.6685,-9.6685,-9.6685,-9.6685,-9.6685,-9.6685,-9.6685,-9.6685,-9.6685,-9.6685,-9.6685,-9.6685,-9.6685,-9.6685,-9.7351,-9.8188,-9.9007,-10.0375,-10.1171,-10.1289,-10.2212,-10.302,-10.3905,-10.4713,-10.5482,-10.6405,-10.6405,-10.6405,-4.0108,-4.0645,-4.1802,-3.9894,-4.1489,-4.2782,-4.0474,-4.0135,-4.0756,-4.2551,0.0,0.0,0.0,0.0,0.0,0.0,-4.7249,-4.9224,-4.7967,-5.2306,-5.6346,-5.8291,-6.0894,-6.3288,-6.5233,-6.5533,-6.7089,-7.0649,-6.7597,-6.7448,-7.1667,-7.2535,-7.3223,-7.3881,-7.454,-7.4869,-7.4869,-7.4869,-7.4869,-7.4899,-7.5826,-7.6981,-7.8352,-8.1913,-8.4119,-8.5629,-8.806,-8.9072,-8.9072,-8.9072,-8.9072,-8.9072,-8.9072,-8.9072,-8.9072,-8.9072,-8.9072,-8.9072,-8.9072,-8.9072,-8.9072,-8.9072,-8.9072,-8.9072,-8.9072,-8.9072,-8.9072,-8.9072,-8.9072,-8.9072,-8.9072,-8.9072,-8.9295,-9.007,-9.1565,-9.3084,-9.3855,-9.5467,-9.6685,-9.6685,-9.6685,-9.6685,-9.6685,-9.6685,-9.6685,-9.6685,-9.6685,-9.6685,-9.6685,-9.6685,-9.6685,-9.6685,-9.6685,-9.6685,-9.6685,-9.6685,-9.6877,-9.7317,-9.8467,-9.9547,-10.0328,-10.1008,-10.152,-10.202,-10.2904,-10.3789,-10.4597,-10.5405,-10.602,-10.6405,-10.6405,-10.6405,-4.0551,-4.1178,-4.2074,-3.9129,-4.0106,-4.1366,-3.9704,-3.9605,-4.041,-4.2485,-4.2306,0.0,0.0,0.0,-4.306,-4.3539,0.0,-4.7249,-4.5304,-4.9164,-5.2935,-5.494,-5.5837,-5.8171,-6.2929,-6.3019,-6.4605,-6.8974,-6.6251,-6.649,-7.1368,-7.2265,-7.2924,-7.3612,-7.427,-7.4689,-7.4869,-7.4869,-7.4869,-7.4899,-7.5587,-7.7092,-7.9499,-8.1855,-8.4328,-8.6633,-8.829,-8.9072,-8.9072,-8.9072,-8.9072,-8.9072,-8.9072,-8.9072,-8.9072,-8.9072,-8.9072,-8.9072,-8.9072,-8.9072,-8.9072,-8.9072,-8.9072,-8.9072,-8.9072,-8.9072,-8.9072,-8.9072,-8.9072,-8.9072,-8.9072,-8.9072,-8.9483,-9.0745,-9.1964,-9.3271,-9.4511,-9.5749,-9.6685,-9.6685,-9.6685,-9.6685,-9.6685,-9.6685,-9.6685,-9.6685,-9.6685,-9.6685,-9.6685,-9.6685,-9.6685,-9.6685,-9.6685,-9.6685,-9.6685,-9.6685,-9.7101,-9.8058,-9.9439,-10.0505,-10.1288,-10.152,-10.202,-10.2597,-10.3712,-10.4482,-10.5097,-10.602,-10.6405,-10.6405,-10.6405,-10.6405,-4.5095,-4.4066,-4.3237,-3.7837,-3.7732,-3.8412,-3.63,-3.831,-4.0943,-4.1666,-4.3602,-4.5155,-4.5214,-4.4706,-4.4257,-4.4287,-4.4377,0.0,0.0,-4.4526,-4.5394,-4.7429,-5.1588,-5.5628,-5.8979,-5.6436,-5.7543,-6.4695,-6.2151,-6.3378,-7.056,-7.1577,-7.2235,-7.2924,-7.3582,-7.424,-7.4869,-7.4869,-7.4869,-7.4899,-7.5587,-7.7092,-7.9499,-8.1855,-8.4328,-8.6633,-8.829,-8.9072,-8.9072,-8.9072,-8.9072,-8.9072,-8.9072,-8.9072,-8.9072,-8.9072,-8.9072,-8.9072,-8.9072,-8.9072,-8.9072,-8.9072,-8.9072,-8.9072,-8.9072,-8.9072,-8.9072,-8.9072,-8.9072,-8.9072,-8.9072,-8.9072,-8.9483,-9.0745,-9.1964,-9.3271,-9.4511,-9.5749,-9.6685,-9.6685,-9.6685,-9.6685,-9.6685,-9.6685,-9.6685,-9.6685,-9.6685,-9.6685,-9.6685,-9.6685,-9.6685,-9.6685,-9.6685,-9.6685,-9.6685,-9.6685,-9.7317,-9.889,-9.9706,-10.0505,-10.1288,-10.2097,-10.2597,-10.2597,-10.4212,-10.5097,-10.5097,-10.602,-10.6405,-10.6405,-10.6405,-10.6405,-4.7029,-4.8008,-4.8058,-4.1756,-4.2259,-4.2918,-3.7742,-3.9363,-4.193,-4.1728,-4.3931,-4.5843,-4.5364,-4.5095,-4.4975,-4.4975,-4.4586,-4.4167,0.0,-4.3688,-4.4227,-4.5783,-5.0062,-5.3473,-5.5029,-5.6944,-6.0027,-6.4665,-6.4395,-6.6011,-7.0649,-7.1517,-7.2206,-7.2894,-7.3552,-7.421,-7.4869,-7.4869,-7.4869,-7.4869,-7.5108,-7.7282,-8.1094,-8.1981,-8.4487,-8.829,-8.8813,-8.9072,-8.9072,-8.9072,-8.9072,-8.9072,-8.9072,-8.9072,-8.9072,-8.9072,-8.9072,-8.9072,-8.9072,-8.9072,-8.9072,-8.9072,-8.9072,-8.9072,-8.9072,-8.9072,-8.9072,-8.9072,-8.9072,-8.9072,-8.9072,-8.9779,-9.071,-9.1929,-9.3178,-9.4511,-9.5749,-9.6416,-9.6685,-9.6685,-9.6685,-9.6685,-9.6685,-9.6685,-9.6685,-9.6685,-9.6685,-9.6685,-9.6685,-9.6685,-9.6685,-9.6685,-9.6685,-9.6685,-9.6685,-9.7632,-9.8405,-9.9007,-10.0195,-10.1011,-10.1327,-10.2097,-10.2904,-10.3405,-10.4482,-10.5405,-10.602,-10.629,-10.6405,-10.6405,-10.6405,-10.6405,-4.9665,-5.072,-5.0745,-4.5045,-4.5247,-4.5356,-3.9633,-4.0992,-4.3305,-4.26,-4.4582,-4.6757,-4.8286,-4.711,-4.6232,-4.695,-4.5693,-4.4347,0.0,-4.3359,-4.3838,-4.5125,-4.8147,-5.081,-5.2665,-5.4251,-5.7812,-6.4186,-6.3767,-6.5473,-7.062,-7.1308,-7.1846,-7.2535,-7.3193,-7.3851,-7.451,-7.4749,-7.5248,-7.5728,-7.5112,-7.7671,-8.2839,-8.2224,-8.462,-8.9072,-8.9072,-8.9072,-8.9072,-8.9072,-8.9072,-8.9072,-8.9072,-8.9072,-8.9072,-8.9072,-8.9072,-8.9072,-8.9072,-8.9072,-8.9072,-8.9072,-8.9072,-8.9072,-8.9072,-8.9072,-8.9072,-8.9072,-8.9072,-8.9072,-8.9072,-9.007,-9.1296,-9.2611,-9.3855,-9.5181,-9.6416,-9.6685,-9.6685,-9.6685,-9.6685,-9.6685,-9.6685,-9.6685,-9.6685,-9.6685,-9.6685,-9.6685,-9.6685,-9.6685,-9.6685,-9.6685,-9.6685,-9.6801,-9.7101,-9.8252,-9.9122,-9.9401,-10.0595,-10.1289,-10.1289,-10.2404,-10.3289,-10.3905,-10.4982,-10.579,-10.6405,-10.6405,-10.6405,-10.6405,-10.6405,-10.6405]}]]